<?xml version="1.0" encoding="UTF-8" standalone="no" ?>
<gpx xmlns="http://www.topografix.com/GPX/1/1" xmlns:xsi="http://www.w3.org/2001/XMLSchema-instance" xsi:schemaLocation="http://www.topografix.com/GPX/1/1 http://www.topografix.com/GPX/1/1/gpx.xsd" version="1.1" creator="VisuGPX - https://www.visugpx.com">
  <metadata>
    <name>Valgorge Loubaresse</name>
    <desc><![CDATA[Randonnée du dimanche 26 juin 2016 au programme du SCLapalud ]]></desc>
  </metadata>
  <trk>
    <name><![CDATA[Valgorge  Loubaresse]]></name>
    <trkseg>
      <trkpt lat="44.58742" lon="4.13009">
        <ele>548</ele>
        <time>2011-03-04T08:33:40Z</time>
      </trkpt>
      <trkpt lat="44.58726" lon="4.12977">
        <ele>554</ele>
        <time>2011-03-04T08:36:05Z</time>
      </trkpt>
      <trkpt lat="44.58725" lon="4.12963">
        <ele>554</ele>
        <time>2011-03-04T08:36:15Z</time>
      </trkpt>
      <trkpt lat="44.58727" lon="4.12947">
        <ele>554</ele>
        <time>2011-03-04T08:36:25Z</time>
      </trkpt>
      <trkpt lat="44.58727" lon="4.1293">
        <ele>554</ele>
        <time>2011-03-04T08:36:35Z</time>
      </trkpt>
      <trkpt lat="44.58731" lon="4.12915">
        <ele>554</ele>
        <time>2011-03-04T08:36:46Z</time>
      </trkpt>
      <trkpt lat="44.58731" lon="4.129">
        <ele>554</ele>
        <time>2011-03-04T08:36:52Z</time>
      </trkpt>
      <trkpt lat="44.58734" lon="4.12885">
        <ele>554</ele>
        <time>2011-03-04T08:37:02Z</time>
      </trkpt>
      <trkpt lat="44.58733" lon="4.12868">
        <ele>554</ele>
        <time>2011-03-04T08:37:14Z</time>
      </trkpt>
      <trkpt lat="44.58735" lon="4.12854">
        <ele>554</ele>
        <time>2011-03-04T08:37:23Z</time>
      </trkpt>
      <trkpt lat="44.58733" lon="4.12838">
        <ele>554</ele>
        <time>2011-03-04T08:37:33Z</time>
      </trkpt>
      <trkpt lat="44.58732" lon="4.12823">
        <ele>554</ele>
        <time>2011-03-04T08:37:39Z</time>
      </trkpt>
      <trkpt lat="44.58735" lon="4.12811">
        <ele>559</ele>
        <time>2011-03-04T08:37:51Z</time>
      </trkpt>
      <trkpt lat="44.58738" lon="4.12795">
        <ele>560</ele>
        <time>2011-03-04T08:38:02Z</time>
      </trkpt>
      <trkpt lat="44.58739" lon="4.12777">
        <ele>560</ele>
        <time>2011-03-04T08:38:12Z</time>
      </trkpt>
      <trkpt lat="44.5874" lon="4.12761">
        <ele>560</ele>
        <time>2011-03-04T08:38:21Z</time>
      </trkpt>
      <trkpt lat="44.58742" lon="4.12749">
        <ele>560</ele>
        <time>2011-03-04T08:38:28Z</time>
      </trkpt>
      <trkpt lat="44.58745" lon="4.12732">
        <ele>559</ele>
        <time>2011-03-04T08:38:38Z</time>
      </trkpt>
      <trkpt lat="44.58746" lon="4.12717">
        <ele>559</ele>
        <time>2011-03-04T08:38:47Z</time>
      </trkpt>
      <trkpt lat="44.58749" lon="4.12703">
        <ele>558</ele>
        <time>2011-03-04T08:38:56Z</time>
      </trkpt>
      <trkpt lat="44.58753" lon="4.12687">
        <ele>557</ele>
        <time>2011-03-04T08:39:05Z</time>
      </trkpt>
      <trkpt lat="44.58754" lon="4.12672">
        <ele>557</ele>
        <time>2011-03-04T08:39:14Z</time>
      </trkpt>
      <trkpt lat="44.58759" lon="4.12659">
        <ele>557</ele>
        <time>2011-03-04T08:39:23Z</time>
      </trkpt>
      <trkpt lat="44.58765" lon="4.12649">
        <ele>556</ele>
        <time>2011-03-04T08:39:31Z</time>
      </trkpt>
      <trkpt lat="44.58772" lon="4.1264">
        <ele>556</ele>
        <time>2011-03-04T08:39:38Z</time>
      </trkpt>
      <trkpt lat="44.58778" lon="4.12631">
        <ele>555</ele>
        <time>2011-03-04T08:39:54Z</time>
      </trkpt>
      <trkpt lat="44.58775" lon="4.12641">
        <ele>546</ele>
        <time>2011-03-04T08:40:14Z</time>
      </trkpt>
      <trkpt lat="44.58765" lon="4.12651">
        <ele>547</ele>
        <time>2011-03-04T08:40:24Z</time>
      </trkpt>
      <trkpt lat="44.58755" lon="4.12663">
        <ele>556</ele>
        <time>2011-03-04T08:40:35Z</time>
      </trkpt>
      <trkpt lat="44.58752" lon="4.1266">
        <ele>557</ele>
        <time>2011-03-04T08:42:05Z</time>
      </trkpt>
      <trkpt lat="44.58756" lon="4.12657">
        <ele>557</ele>
        <time>2011-03-04T08:42:21Z</time>
      </trkpt>
      <trkpt lat="44.58767" lon="4.12645">
        <ele>556</ele>
        <time>2011-03-04T08:42:33Z</time>
      </trkpt>
      <trkpt lat="44.58773" lon="4.12635">
        <ele>556</ele>
        <time>2011-03-04T08:42:41Z</time>
      </trkpt>
      <trkpt lat="44.58782" lon="4.12626">
        <ele>556</ele>
        <time>2011-03-04T08:42:52Z</time>
      </trkpt>
      <trkpt lat="44.58787" lon="4.12615">
        <ele>559</ele>
        <time>2011-03-04T08:42:59Z</time>
      </trkpt>
      <trkpt lat="44.58792" lon="4.12604">
        <ele>560</ele>
        <time>2011-03-04T08:43:07Z</time>
      </trkpt>
      <trkpt lat="44.58799" lon="4.12595">
        <ele>560</ele>
        <time>2011-03-04T08:43:15Z</time>
      </trkpt>
      <trkpt lat="44.58806" lon="4.12583">
        <ele>560</ele>
        <time>2011-03-04T08:43:23Z</time>
      </trkpt>
      <trkpt lat="44.58813" lon="4.12573">
        <ele>560</ele>
        <time>2011-03-04T08:43:31Z</time>
      </trkpt>
      <trkpt lat="44.58821" lon="4.12559">
        <ele>560</ele>
        <time>2011-03-04T08:43:41Z</time>
      </trkpt>
      <trkpt lat="44.58826" lon="4.12545">
        <ele>560</ele>
        <time>2011-03-04T08:43:50Z</time>
      </trkpt>
      <trkpt lat="44.58829" lon="4.12531">
        <ele>559</ele>
        <time>2011-03-04T08:43:59Z</time>
      </trkpt>
      <trkpt lat="44.58834" lon="4.12516">
        <ele>559</ele>
        <time>2011-03-04T08:44:08Z</time>
      </trkpt>
      <trkpt lat="44.58838" lon="4.12501">
        <ele>558</ele>
        <time>2011-03-04T08:44:17Z</time>
      </trkpt>
      <trkpt lat="44.58842" lon="4.12486">
        <ele>558</ele>
        <time>2011-03-04T08:44:26Z</time>
      </trkpt>
      <trkpt lat="44.58845" lon="4.12471">
        <ele>558</ele>
        <time>2011-03-04T08:44:35Z</time>
      </trkpt>
      <trkpt lat="44.58849" lon="4.12454">
        <ele>558</ele>
        <time>2011-03-04T08:44:45Z</time>
      </trkpt>
      <trkpt lat="44.58855" lon="4.12439">
        <ele>558</ele>
        <time>2011-03-04T08:44:55Z</time>
      </trkpt>
      <trkpt lat="44.5886" lon="4.12424">
        <ele>558</ele>
        <time>2011-03-04T08:45:04Z</time>
      </trkpt>
      <trkpt lat="44.58864" lon="4.12409">
        <ele>558</ele>
        <time>2011-03-04T08:45:13Z</time>
      </trkpt>
      <trkpt lat="44.58867" lon="4.12393">
        <ele>558</ele>
        <time>2011-03-04T08:45:22Z</time>
      </trkpt>
      <trkpt lat="44.58868" lon="4.1238">
        <ele>558</ele>
        <time>2011-03-04T08:45:28Z</time>
      </trkpt>
      <trkpt lat="44.58871" lon="4.12366">
        <ele>558</ele>
        <time>2011-03-04T08:45:38Z</time>
      </trkpt>
      <trkpt lat="44.58875" lon="4.12353">
        <ele>558</ele>
        <time>2011-03-04T08:45:47Z</time>
      </trkpt>
      <trkpt lat="44.5888" lon="4.12336">
        <ele>560</ele>
        <time>2011-03-04T08:45:57Z</time>
      </trkpt>
      <trkpt lat="44.58883" lon="4.12322">
        <ele>560</ele>
        <time>2011-03-04T08:46:06Z</time>
      </trkpt>
      <trkpt lat="44.58884" lon="4.12307">
        <ele>560</ele>
        <time>2011-03-04T08:46:15Z</time>
      </trkpt>
      <trkpt lat="44.58876" lon="4.12294">
        <ele>560</ele>
        <time>2011-03-04T08:46:26Z</time>
      </trkpt>
      <trkpt lat="44.58865" lon="4.12292">
        <ele>560</ele>
        <time>2011-03-04T08:46:36Z</time>
      </trkpt>
      <trkpt lat="44.58852" lon="4.12288">
        <ele>560</ele>
        <time>2011-03-04T08:46:47Z</time>
      </trkpt>
      <trkpt lat="44.5885" lon="4.12299">
        <ele>561</ele>
        <time>2011-03-04T08:46:58Z</time>
      </trkpt>
      <trkpt lat="44.58862" lon="4.12296">
        <ele>561</ele>
        <time>2011-03-04T08:47:07Z</time>
      </trkpt>
      <trkpt lat="44.58864" lon="4.12308">
        <ele>561</ele>
        <time>2011-03-04T08:47:16Z</time>
      </trkpt>
      <trkpt lat="44.58861" lon="4.12325">
        <ele>561</ele>
        <time>2011-03-04T08:47:25Z</time>
      </trkpt>
      <trkpt lat="44.58855" lon="4.12342">
        <ele>561</ele>
        <time>2011-03-04T08:47:34Z</time>
      </trkpt>
      <trkpt lat="44.58846" lon="4.12343">
        <ele>561</ele>
        <time>2011-03-04T08:47:53Z</time>
      </trkpt>
      <trkpt lat="44.58836" lon="4.12334">
        <ele>561</ele>
        <time>2011-03-04T08:48:08Z</time>
      </trkpt>
      <trkpt lat="44.58829" lon="4.12326">
        <ele>561</ele>
        <time>2011-03-04T08:48:15Z</time>
      </trkpt>
      <trkpt lat="44.58822" lon="4.12312">
        <ele>561</ele>
        <time>2011-03-04T08:48:25Z</time>
      </trkpt>
      <trkpt lat="44.58824" lon="4.12298">
        <ele>558</ele>
        <time>2011-03-04T08:48:39Z</time>
      </trkpt>
      <trkpt lat="44.58828" lon="4.12283">
        <ele>556</ele>
        <time>2011-03-04T08:48:48Z</time>
      </trkpt>
      <trkpt lat="44.58834" lon="4.12267">
        <ele>552</ele>
        <time>2011-03-04T08:48:58Z</time>
      </trkpt>
      <trkpt lat="44.58846" lon="4.12256">
        <ele>552</ele>
        <time>2011-03-04T08:49:09Z</time>
      </trkpt>
      <trkpt lat="44.58855" lon="4.12252">
        <ele>552</ele>
        <time>2011-03-04T08:49:26Z</time>
      </trkpt>
      <trkpt lat="44.58865" lon="4.12256">
        <ele>552</ele>
        <time>2011-03-04T08:49:44Z</time>
      </trkpt>
      <trkpt lat="44.5887" lon="4.12256">
        <ele>555</ele>
        <time>2011-03-04T08:50:27Z</time>
      </trkpt>
      <trkpt lat="44.58867" lon="4.12248">
        <ele>555</ele>
        <time>2011-03-04T08:51:33Z</time>
      </trkpt>
      <trkpt lat="44.58865" lon="4.12252">
        <ele>556</ele>
        <time>2011-03-04T08:52:04Z</time>
      </trkpt>
      <trkpt lat="44.58857" lon="4.12244">
        <ele>557</ele>
        <time>2011-03-04T08:52:23Z</time>
      </trkpt>
      <trkpt lat="44.58862" lon="4.12229">
        <ele>557</ele>
        <time>2011-03-04T08:52:37Z</time>
      </trkpt>
      <trkpt lat="44.58868" lon="4.12216">
        <ele>558</ele>
        <time>2011-03-04T08:52:48Z</time>
      </trkpt>
      <trkpt lat="44.58876" lon="4.12202">
        <ele>558</ele>
        <time>2011-03-04T08:52:58Z</time>
      </trkpt>
      <trkpt lat="44.58883" lon="4.12188">
        <ele>558</ele>
        <time>2011-03-04T08:53:08Z</time>
      </trkpt>
      <trkpt lat="44.58892" lon="4.12174">
        <ele>558</ele>
        <time>2011-03-04T08:53:18Z</time>
      </trkpt>
      <trkpt lat="44.58896" lon="4.12158">
        <ele>560</ele>
        <time>2011-03-04T08:53:30Z</time>
      </trkpt>
      <trkpt lat="44.589" lon="4.12147">
        <ele>561</ele>
        <time>2011-03-04T08:53:38Z</time>
      </trkpt>
      <trkpt lat="44.58905" lon="4.12134">
        <ele>561</ele>
        <time>2011-03-04T08:53:48Z</time>
      </trkpt>
      <trkpt lat="44.58913" lon="4.1212">
        <ele>561</ele>
        <time>2011-03-04T08:54:00Z</time>
      </trkpt>
      <trkpt lat="44.58921" lon="4.12114">
        <ele>561</ele>
        <time>2011-03-04T08:54:12Z</time>
      </trkpt>
      <trkpt lat="44.58921" lon="4.12103">
        <ele>561</ele>
        <time>2011-03-04T08:54:26Z</time>
      </trkpt>
      <trkpt lat="44.58913" lon="4.12097">
        <ele>567</ele>
        <time>2011-03-04T08:54:45Z</time>
      </trkpt>
      <trkpt lat="44.58921" lon="4.12095">
        <ele>576</ele>
        <time>2011-03-04T08:55:37Z</time>
      </trkpt>
      <trkpt lat="44.58928" lon="4.12087">
        <ele>576</ele>
        <time>2011-03-04T08:55:48Z</time>
      </trkpt>
      <trkpt lat="44.58937" lon="4.12078">
        <ele>576</ele>
        <time>2011-03-04T08:55:58Z</time>
      </trkpt>
      <trkpt lat="44.58947" lon="4.12066">
        <ele>575</ele>
        <time>2011-03-04T08:56:10Z</time>
      </trkpt>
      <trkpt lat="44.58954" lon="4.12057">
        <ele>574</ele>
        <time>2011-03-04T08:56:18Z</time>
      </trkpt>
      <trkpt lat="44.58965" lon="4.12047">
        <ele>574</ele>
        <time>2011-03-04T08:56:28Z</time>
      </trkpt>
      <trkpt lat="44.58974" lon="4.12037">
        <ele>574</ele>
        <time>2011-03-04T08:56:40Z</time>
      </trkpt>
      <trkpt lat="44.5898" lon="4.12024">
        <ele>574</ele>
        <time>2011-03-04T08:56:51Z</time>
      </trkpt>
      <trkpt lat="44.58985" lon="4.12011">
        <ele>574</ele>
        <time>2011-03-04T08:57:01Z</time>
      </trkpt>
      <trkpt lat="44.5899" lon="4.11998">
        <ele>574</ele>
        <time>2011-03-04T08:57:12Z</time>
      </trkpt>
      <trkpt lat="44.58995" lon="4.11983">
        <ele>573</ele>
        <time>2011-03-04T08:57:23Z</time>
      </trkpt>
      <trkpt lat="44.58997" lon="4.11981">
        <ele>570</ele>
        <time>2011-03-04T08:57:37Z</time>
      </trkpt>
      <trkpt lat="44.59002" lon="4.11967">
        <ele>570</ele>
        <time>2011-03-04T08:57:46Z</time>
      </trkpt>
      <trkpt lat="44.59005" lon="4.11952">
        <ele>570</ele>
        <time>2011-03-04T08:57:55Z</time>
      </trkpt>
      <trkpt lat="44.5901" lon="4.11937">
        <ele>570</ele>
        <time>2011-03-04T08:58:05Z</time>
      </trkpt>
      <trkpt lat="44.59011" lon="4.1192">
        <ele>570</ele>
        <time>2011-03-04T08:58:14Z</time>
      </trkpt>
      <trkpt lat="44.59016" lon="4.11905">
        <ele>573</ele>
        <time>2011-03-04T08:58:25Z</time>
      </trkpt>
      <trkpt lat="44.59022" lon="4.11891">
        <ele>573</ele>
        <time>2011-03-04T08:58:37Z</time>
      </trkpt>
      <trkpt lat="44.59024" lon="4.11873">
        <ele>573</ele>
        <time>2011-03-04T08:58:48Z</time>
      </trkpt>
      <trkpt lat="44.59027" lon="4.1186">
        <ele>573</ele>
        <time>2011-03-04T08:58:58Z</time>
      </trkpt>
      <trkpt lat="44.59031" lon="4.11845">
        <ele>575</ele>
        <time>2011-03-04T08:59:09Z</time>
      </trkpt>
      <trkpt lat="44.59031" lon="4.11832">
        <ele>580</ele>
        <time>2011-03-04T08:59:19Z</time>
      </trkpt>
      <trkpt lat="44.59035" lon="4.1182">
        <ele>580</ele>
        <time>2011-03-04T08:59:31Z</time>
      </trkpt>
      <trkpt lat="44.59033" lon="4.11802">
        <ele>581</ele>
        <time>2011-03-04T09:00:15Z</time>
      </trkpt>
      <trkpt lat="44.59028" lon="4.11789">
        <ele>581</ele>
        <time>2011-03-04T09:00:25Z</time>
      </trkpt>
      <trkpt lat="44.59021" lon="4.11774">
        <ele>581</ele>
        <time>2011-03-04T09:00:36Z</time>
      </trkpt>
      <trkpt lat="44.59016" lon="4.11762">
        <ele>581</ele>
        <time>2011-03-04T09:00:47Z</time>
      </trkpt>
      <trkpt lat="44.59016" lon="4.11747">
        <ele>579</ele>
        <time>2011-03-04T09:00:57Z</time>
      </trkpt>
      <trkpt lat="44.59018" lon="4.11734">
        <ele>578</ele>
        <time>2011-03-04T09:01:09Z</time>
      </trkpt>
      <trkpt lat="44.59018" lon="4.11733">
        <ele>580</ele>
        <time>2011-03-04T09:02:53Z</time>
      </trkpt>
      <trkpt lat="44.59021" lon="4.11731">
        <ele>582</ele>
        <time>2011-03-04T09:03:19Z</time>
      </trkpt>
      <trkpt lat="44.59023" lon="4.11716">
        <ele>581</ele>
        <time>2011-03-04T09:03:28Z</time>
      </trkpt>
      <trkpt lat="44.59022" lon="4.11699">
        <ele>579</ele>
        <time>2011-03-04T09:03:37Z</time>
      </trkpt>
      <trkpt lat="44.59019" lon="4.11683">
        <ele>579</ele>
        <time>2011-03-04T09:03:46Z</time>
      </trkpt>
      <trkpt lat="44.59016" lon="4.1167">
        <ele>579</ele>
        <time>2011-03-04T09:03:56Z</time>
      </trkpt>
      <trkpt lat="44.59023" lon="4.11656">
        <ele>579</ele>
        <time>2011-03-04T09:04:10Z</time>
      </trkpt>
      <trkpt lat="44.59019" lon="4.1165">
        <ele>583</ele>
        <time>2011-03-04T09:04:25Z</time>
      </trkpt>
      <trkpt lat="44.59012" lon="4.11662">
        <ele>587</ele>
        <time>2011-03-04T09:04:42Z</time>
      </trkpt>
      <trkpt lat="44.59017" lon="4.11667">
        <ele>586</ele>
        <time>2011-03-04T09:05:17Z</time>
      </trkpt>
      <trkpt lat="44.59021" lon="4.11658">
        <ele>586</ele>
        <time>2011-03-04T09:05:29Z</time>
      </trkpt>
      <trkpt lat="44.59024" lon="4.11644">
        <ele>586</ele>
        <time>2011-03-04T09:05:40Z</time>
      </trkpt>
      <trkpt lat="44.59027" lon="4.1163">
        <ele>586</ele>
        <time>2011-03-04T09:05:46Z</time>
      </trkpt>
      <trkpt lat="44.59032" lon="4.11619">
        <ele>586</ele>
        <time>2011-03-04T09:05:53Z</time>
      </trkpt>
      <trkpt lat="44.59035" lon="4.11607">
        <ele>586</ele>
        <time>2011-03-04T09:06:00Z</time>
      </trkpt>
      <trkpt lat="44.59035" lon="4.11591">
        <ele>586</ele>
        <time>2011-03-04T09:06:10Z</time>
      </trkpt>
      <trkpt lat="44.59034" lon="4.11575">
        <ele>586</ele>
        <time>2011-03-04T09:06:20Z</time>
      </trkpt>
      <trkpt lat="44.59036" lon="4.11561">
        <ele>585</ele>
        <time>2011-03-04T09:06:32Z</time>
      </trkpt>
      <trkpt lat="44.59034" lon="4.11551">
        <ele>593</ele>
        <time>2011-03-04T09:06:50Z</time>
      </trkpt>
      <trkpt lat="44.59039" lon="4.11538">
        <ele>595</ele>
        <time>2011-03-04T09:06:57Z</time>
      </trkpt>
      <trkpt lat="44.59043" lon="4.11526">
        <ele>594</ele>
        <time>2011-03-04T09:07:06Z</time>
      </trkpt>
      <trkpt lat="44.59043" lon="4.11511">
        <ele>591</ele>
        <time>2011-03-04T09:07:17Z</time>
      </trkpt>
      <trkpt lat="44.59047" lon="4.11496">
        <ele>590</ele>
        <time>2011-03-04T09:07:32Z</time>
      </trkpt>
      <trkpt lat="44.5905" lon="4.11484">
        <ele>590</ele>
        <time>2011-03-04T09:07:40Z</time>
      </trkpt>
      <trkpt lat="44.59049" lon="4.11471">
        <ele>590</ele>
        <time>2011-03-04T09:07:49Z</time>
      </trkpt>
      <trkpt lat="44.59055" lon="4.11463">
        <ele>593</ele>
        <time>2011-03-04T09:08:03Z</time>
      </trkpt>
      <trkpt lat="44.59058" lon="4.11451">
        <ele>593</ele>
        <time>2011-03-04T09:08:10Z</time>
      </trkpt>
      <trkpt lat="44.59061" lon="4.11437">
        <ele>595</ele>
        <time>2011-03-04T09:08:21Z</time>
      </trkpt>
      <trkpt lat="44.59069" lon="4.11424">
        <ele>595</ele>
        <time>2011-03-04T09:08:32Z</time>
      </trkpt>
      <trkpt lat="44.5908" lon="4.11419">
        <ele>595</ele>
        <time>2011-03-04T09:08:42Z</time>
      </trkpt>
      <trkpt lat="44.59089" lon="4.11409">
        <ele>597</ele>
        <time>2011-03-04T09:09:00Z</time>
      </trkpt>
      <trkpt lat="44.59091" lon="4.11393">
        <ele>597</ele>
        <time>2011-03-04T09:09:11Z</time>
      </trkpt>
      <trkpt lat="44.59092" lon="4.11381">
        <ele>597</ele>
        <time>2011-03-04T09:09:17Z</time>
      </trkpt>
      <trkpt lat="44.59096" lon="4.11364">
        <ele>597</ele>
        <time>2011-03-04T09:09:28Z</time>
      </trkpt>
      <trkpt lat="44.59101" lon="4.11352">
        <ele>597</ele>
        <time>2011-03-04T09:09:45Z</time>
      </trkpt>
      <trkpt lat="44.59098" lon="4.11338">
        <ele>597</ele>
        <time>2011-03-04T09:09:52Z</time>
      </trkpt>
      <trkpt lat="44.59093" lon="4.11327">
        <ele>597</ele>
        <time>2011-03-04T09:10:18Z</time>
      </trkpt>
      <trkpt lat="44.59091" lon="4.11312">
        <ele>597</ele>
        <time>2011-03-04T09:10:37Z</time>
      </trkpt>
      <trkpt lat="44.59093" lon="4.11322">
        <ele>598</ele>
        <time>2011-03-04T09:11:04Z</time>
      </trkpt>
      <trkpt lat="44.59096" lon="4.11322">
        <ele>598</ele>
        <time>2011-03-04T09:11:17Z</time>
      </trkpt>
      <trkpt lat="44.59098" lon="4.11304">
        <ele>598</ele>
        <time>2011-03-04T09:11:29Z</time>
      </trkpt>
      <trkpt lat="44.59102" lon="4.11287">
        <ele>598</ele>
        <time>2011-03-04T09:11:40Z</time>
      </trkpt>
      <trkpt lat="44.59108" lon="4.11275">
        <ele>598</ele>
        <time>2011-03-04T09:11:47Z</time>
      </trkpt>
      <trkpt lat="44.59115" lon="4.11264">
        <ele>598</ele>
        <time>2011-03-04T09:11:56Z</time>
      </trkpt>
      <trkpt lat="44.59123" lon="4.11255">
        <ele>598</ele>
        <time>2011-03-04T09:12:03Z</time>
      </trkpt>
      <trkpt lat="44.59135" lon="4.11246">
        <ele>598</ele>
        <time>2011-03-04T09:12:16Z</time>
      </trkpt>
      <trkpt lat="44.59145" lon="4.11239">
        <ele>598</ele>
        <time>2011-03-04T09:12:24Z</time>
      </trkpt>
      <trkpt lat="44.59153" lon="4.1123">
        <ele>601</ele>
        <time>2011-03-04T09:12:36Z</time>
      </trkpt>
      <trkpt lat="44.59163" lon="4.11222">
        <ele>601</ele>
        <time>2011-03-04T09:12:48Z</time>
      </trkpt>
      <trkpt lat="44.59172" lon="4.11222">
        <ele>601</ele>
        <time>2011-03-04T09:12:56Z</time>
      </trkpt>
      <trkpt lat="44.59182" lon="4.1122">
        <ele>601</ele>
        <time>2011-03-04T09:13:06Z</time>
      </trkpt>
      <trkpt lat="44.59194" lon="4.11212">
        <ele>601</ele>
        <time>2011-03-04T09:13:17Z</time>
      </trkpt>
      <trkpt lat="44.59204" lon="4.11205">
        <ele>601</ele>
        <time>2011-03-04T09:13:27Z</time>
      </trkpt>
      <trkpt lat="44.59212" lon="4.112">
        <ele>603</ele>
        <time>2011-03-04T09:13:34Z</time>
      </trkpt>
      <trkpt lat="44.59221" lon="4.11191">
        <ele>603</ele>
        <time>2011-03-04T09:13:45Z</time>
      </trkpt>
      <trkpt lat="44.59233" lon="4.11184">
        <ele>603</ele>
        <time>2011-03-04T09:13:56Z</time>
      </trkpt>
      <trkpt lat="44.59246" lon="4.11186">
        <ele>604</ele>
        <time>2011-03-04T09:14:06Z</time>
      </trkpt>
      <trkpt lat="44.59257" lon="4.1119">
        <ele>605</ele>
        <time>2011-03-04T09:14:14Z</time>
      </trkpt>
      <trkpt lat="44.59269" lon="4.11188">
        <ele>609</ele>
        <time>2011-03-04T09:14:24Z</time>
      </trkpt>
      <trkpt lat="44.59279" lon="4.11188">
        <ele>611</ele>
        <time>2011-03-04T09:14:33Z</time>
      </trkpt>
      <trkpt lat="44.5929" lon="4.11187">
        <ele>611</ele>
        <time>2011-03-04T09:14:44Z</time>
      </trkpt>
      <trkpt lat="44.59299" lon="4.11179">
        <ele>611</ele>
        <time>2011-03-04T09:14:52Z</time>
      </trkpt>
      <trkpt lat="44.59303" lon="4.11165">
        <ele>612</ele>
        <time>2011-03-04T09:15:01Z</time>
      </trkpt>
      <trkpt lat="44.59306" lon="4.11149">
        <ele>613</ele>
        <time>2011-03-04T09:15:11Z</time>
      </trkpt>
      <trkpt lat="44.59303" lon="4.11133">
        <ele>615</ele>
        <time>2011-03-04T09:15:21Z</time>
      </trkpt>
      <trkpt lat="44.59296" lon="4.11119">
        <ele>615</ele>
        <time>2011-03-04T09:15:32Z</time>
      </trkpt>
      <trkpt lat="44.59288" lon="4.11107">
        <ele>615</ele>
        <time>2011-03-04T09:15:43Z</time>
      </trkpt>
      <trkpt lat="44.5928" lon="4.11094">
        <ele>615</ele>
        <time>2011-03-04T09:16:01Z</time>
      </trkpt>
      <trkpt lat="44.59278" lon="4.11078">
        <ele>615</ele>
        <time>2011-03-04T09:16:10Z</time>
      </trkpt>
      <trkpt lat="44.59267" lon="4.11074">
        <ele>615</ele>
        <time>2011-03-04T09:16:19Z</time>
      </trkpt>
      <trkpt lat="44.59256" lon="4.11067">
        <ele>615</ele>
        <time>2011-03-04T09:16:28Z</time>
      </trkpt>
      <trkpt lat="44.59251" lon="4.11055">
        <ele>615</ele>
        <time>2011-03-04T09:16:38Z</time>
      </trkpt>
      <trkpt lat="44.59253" lon="4.11041">
        <ele>613</ele>
        <time>2011-03-04T09:16:44Z</time>
      </trkpt>
      <trkpt lat="44.59259" lon="4.11025">
        <ele>612</ele>
        <time>2011-03-04T09:16:53Z</time>
      </trkpt>
      <trkpt lat="44.59265" lon="4.11012">
        <ele>612</ele>
        <time>2011-03-04T09:17:02Z</time>
      </trkpt>
      <trkpt lat="44.59272" lon="4.10997">
        <ele>611</ele>
        <time>2011-03-04T09:17:11Z</time>
      </trkpt>
      <trkpt lat="44.59278" lon="4.10983">
        <ele>611</ele>
        <time>2011-03-04T09:17:20Z</time>
      </trkpt>
      <trkpt lat="44.59287" lon="4.10966">
        <ele>611</ele>
        <time>2011-03-04T09:17:30Z</time>
      </trkpt>
      <trkpt lat="44.59293" lon="4.10953">
        <ele>611</ele>
        <time>2011-03-04T09:17:39Z</time>
      </trkpt>
      <trkpt lat="44.593" lon="4.10939">
        <ele>610</ele>
        <time>2011-03-04T09:17:52Z</time>
      </trkpt>
      <trkpt lat="44.5931" lon="4.10929">
        <ele>610</ele>
        <time>2011-03-04T09:18:08Z</time>
      </trkpt>
      <trkpt lat="44.59318" lon="4.10915">
        <ele>610</ele>
        <time>2011-03-04T09:18:19Z</time>
      </trkpt>
      <trkpt lat="44.59323" lon="4.10901">
        <ele>610</ele>
        <time>2011-03-04T09:18:28Z</time>
      </trkpt>
      <trkpt lat="44.59327" lon="4.10887">
        <ele>610</ele>
        <time>2011-03-04T09:18:37Z</time>
      </trkpt>
      <trkpt lat="44.59331" lon="4.10872">
        <ele>610</ele>
        <time>2011-03-04T09:18:46Z</time>
      </trkpt>
      <trkpt lat="44.59333" lon="4.10857">
        <ele>610</ele>
        <time>2011-03-04T09:18:55Z</time>
      </trkpt>
      <trkpt lat="44.59338" lon="4.10841">
        <ele>610</ele>
        <time>2011-03-04T09:19:05Z</time>
      </trkpt>
      <trkpt lat="44.59343" lon="4.10827">
        <ele>610</ele>
        <time>2011-03-04T09:19:14Z</time>
      </trkpt>
      <trkpt lat="44.59348" lon="4.10812">
        <ele>610</ele>
        <time>2011-03-04T09:19:24Z</time>
      </trkpt>
      <trkpt lat="44.59354" lon="4.10799">
        <ele>610</ele>
        <time>2011-03-04T09:19:35Z</time>
      </trkpt>
      <trkpt lat="44.5936" lon="4.10786">
        <ele>610</ele>
        <time>2011-03-04T09:19:46Z</time>
      </trkpt>
      <trkpt lat="44.59369" lon="4.10771">
        <ele>610</ele>
        <time>2011-03-04T09:19:58Z</time>
      </trkpt>
      <trkpt lat="44.59373" lon="4.1076">
        <ele>610</ele>
        <time>2011-03-04T09:20:06Z</time>
      </trkpt>
      <trkpt lat="44.59379" lon="4.10746">
        <ele>610</ele>
        <time>2011-03-04T09:20:17Z</time>
      </trkpt>
      <trkpt lat="44.59386" lon="4.10731">
        <ele>610</ele>
        <time>2011-03-04T09:20:28Z</time>
      </trkpt>
      <trkpt lat="44.59392" lon="4.10717">
        <ele>610</ele>
        <time>2011-03-04T09:20:38Z</time>
      </trkpt>
      <trkpt lat="44.59397" lon="4.10704">
        <ele>610</ele>
        <time>2011-03-04T09:20:47Z</time>
      </trkpt>
      <trkpt lat="44.59402" lon="4.1069">
        <ele>611</ele>
        <time>2011-03-04T09:20:58Z</time>
      </trkpt>
      <trkpt lat="44.59406" lon="4.10677">
        <ele>611</ele>
        <time>2011-03-04T09:21:09Z</time>
      </trkpt>
      <trkpt lat="44.5941" lon="4.10665">
        <ele>612</ele>
        <time>2011-03-04T09:21:23Z</time>
      </trkpt>
      <trkpt lat="44.5941" lon="4.10661">
        <ele>618</ele>
        <time>2011-03-04T09:22:20Z</time>
      </trkpt>
      <trkpt lat="44.59415" lon="4.10648">
        <ele>621</ele>
        <time>2011-03-04T09:22:32Z</time>
      </trkpt>
      <trkpt lat="44.5942" lon="4.10633">
        <ele>622</ele>
        <time>2011-03-04T09:22:44Z</time>
      </trkpt>
      <trkpt lat="44.59424" lon="4.10619">
        <ele>622</ele>
        <time>2011-03-04T09:22:55Z</time>
      </trkpt>
      <trkpt lat="44.59427" lon="4.10604">
        <ele>622</ele>
        <time>2011-03-04T09:23:09Z</time>
      </trkpt>
      <trkpt lat="44.5943" lon="4.10589">
        <ele>622</ele>
        <time>2011-03-04T09:23:18Z</time>
      </trkpt>
      <trkpt lat="44.59435" lon="4.10572">
        <ele>622</ele>
        <time>2011-03-04T09:23:29Z</time>
      </trkpt>
      <trkpt lat="44.59436" lon="4.10559">
        <ele>622</ele>
        <time>2011-03-04T09:23:39Z</time>
      </trkpt>
      <trkpt lat="44.59439" lon="4.10545">
        <ele>622</ele>
        <time>2011-03-04T09:23:48Z</time>
      </trkpt>
      <trkpt lat="44.59444" lon="4.10529">
        <ele>622</ele>
        <time>2011-03-04T09:23:58Z</time>
      </trkpt>
      <trkpt lat="44.59446" lon="4.10512">
        <ele>622</ele>
        <time>2011-03-04T09:24:08Z</time>
      </trkpt>
      <trkpt lat="44.59449" lon="4.10497">
        <ele>622</ele>
        <time>2011-03-04T09:24:17Z</time>
      </trkpt>
      <trkpt lat="44.59451" lon="4.10482">
        <ele>624</ele>
        <time>2011-03-04T09:24:26Z</time>
      </trkpt>
      <trkpt lat="44.59456" lon="4.10466">
        <ele>625</ele>
        <time>2011-03-04T09:24:36Z</time>
      </trkpt>
      <trkpt lat="44.59458" lon="4.10451">
        <ele>625</ele>
        <time>2011-03-04T09:24:47Z</time>
      </trkpt>
      <trkpt lat="44.59461" lon="4.10438">
        <ele>625</ele>
        <time>2011-03-04T09:24:57Z</time>
      </trkpt>
      <trkpt lat="44.59463" lon="4.10422">
        <ele>628</ele>
        <time>2011-03-04T09:25:06Z</time>
      </trkpt>
      <trkpt lat="44.59463" lon="4.10409">
        <ele>628</ele>
        <time>2011-03-04T09:25:16Z</time>
      </trkpt>
      <trkpt lat="44.59468" lon="4.10393">
        <ele>628</ele>
        <time>2011-03-04T09:25:26Z</time>
      </trkpt>
      <trkpt lat="44.59472" lon="4.10379">
        <ele>628</ele>
        <time>2011-03-04T09:25:35Z</time>
      </trkpt>
      <trkpt lat="44.59477" lon="4.10363">
        <ele>630</ele>
        <time>2011-03-04T09:25:44Z</time>
      </trkpt>
      <trkpt lat="44.59476" lon="4.10349">
        <ele>633</ele>
        <time>2011-03-04T09:25:53Z</time>
      </trkpt>
      <trkpt lat="44.59475" lon="4.10334">
        <ele>634</ele>
        <time>2011-03-04T09:26:02Z</time>
      </trkpt>
      <trkpt lat="44.5947" lon="4.10324">
        <ele>636</ele>
        <time>2011-03-04T09:26:09Z</time>
      </trkpt>
      <trkpt lat="44.59463" lon="4.10315">
        <ele>637</ele>
        <time>2011-03-04T09:26:17Z</time>
      </trkpt>
      <trkpt lat="44.59456" lon="4.10304">
        <ele>637</ele>
        <time>2011-03-04T09:26:25Z</time>
      </trkpt>
      <trkpt lat="44.59448" lon="4.10291">
        <ele>637</ele>
        <time>2011-03-04T09:26:35Z</time>
      </trkpt>
      <trkpt lat="44.59443" lon="4.10279">
        <ele>638</ele>
        <time>2011-03-04T09:26:43Z</time>
      </trkpt>
      <trkpt lat="44.5944" lon="4.10264">
        <ele>638</ele>
        <time>2011-03-04T09:26:52Z</time>
      </trkpt>
      <trkpt lat="44.59444" lon="4.10248">
        <ele>638</ele>
        <time>2011-03-04T09:27:01Z</time>
      </trkpt>
      <trkpt lat="44.59447" lon="4.10234">
        <ele>638</ele>
        <time>2011-03-04T09:27:10Z</time>
      </trkpt>
      <trkpt lat="44.59451" lon="4.1022">
        <ele>638</ele>
        <time>2011-03-04T09:27:19Z</time>
      </trkpt>
      <trkpt lat="44.59454" lon="4.10206">
        <ele>638</ele>
        <time>2011-03-04T09:27:28Z</time>
      </trkpt>
      <trkpt lat="44.59456" lon="4.10192">
        <ele>638</ele>
        <time>2011-03-04T09:27:37Z</time>
      </trkpt>
      <trkpt lat="44.59459" lon="4.10177">
        <ele>640</ele>
        <time>2011-03-04T09:27:47Z</time>
      </trkpt>
      <trkpt lat="44.59457" lon="4.10163">
        <ele>644</ele>
        <time>2011-03-04T09:27:57Z</time>
      </trkpt>
      <trkpt lat="44.59453" lon="4.10147">
        <ele>649</ele>
        <time>2011-03-04T09:28:07Z</time>
      </trkpt>
      <trkpt lat="44.59451" lon="4.1013">
        <ele>651</ele>
        <time>2011-03-04T09:28:17Z</time>
      </trkpt>
      <trkpt lat="44.59445" lon="4.10119">
        <ele>652</ele>
        <time>2011-03-04T09:28:29Z</time>
      </trkpt>
      <trkpt lat="44.59439" lon="4.10108">
        <ele>652</ele>
        <time>2011-03-04T09:28:41Z</time>
      </trkpt>
      <trkpt lat="44.59432" lon="4.10097">
        <ele>652</ele>
        <time>2011-03-04T09:28:52Z</time>
      </trkpt>
      <trkpt lat="44.59426" lon="4.10084">
        <ele>655</ele>
        <time>2011-03-04T09:29:04Z</time>
      </trkpt>
      <trkpt lat="44.59422" lon="4.10071">
        <ele>655</ele>
        <time>2011-03-04T09:29:15Z</time>
      </trkpt>
      <trkpt lat="44.59427" lon="4.1006">
        <ele>656</ele>
        <time>2011-03-04T09:29:27Z</time>
      </trkpt>
      <trkpt lat="44.59436" lon="4.10058">
        <ele>656</ele>
        <time>2011-03-04T09:29:41Z</time>
      </trkpt>
      <trkpt lat="44.59444" lon="4.10057">
        <ele>661</ele>
        <time>2011-03-04T09:30:03Z</time>
      </trkpt>
      <trkpt lat="44.59441" lon="4.10042">
        <ele>662</ele>
        <time>2011-03-04T09:30:17Z</time>
      </trkpt>
      <trkpt lat="44.59432" lon="4.10032">
        <ele>662</ele>
        <time>2011-03-04T09:30:28Z</time>
      </trkpt>
      <trkpt lat="44.59421" lon="4.10029">
        <ele>663</ele>
        <time>2011-03-04T09:30:39Z</time>
      </trkpt>
      <trkpt lat="44.59411" lon="4.10026">
        <ele>663</ele>
        <time>2011-03-04T09:30:48Z</time>
      </trkpt>
      <trkpt lat="44.594" lon="4.10022">
        <ele>663</ele>
        <time>2011-03-04T09:30:58Z</time>
      </trkpt>
      <trkpt lat="44.59388" lon="4.10021">
        <ele>664</ele>
        <time>2011-03-04T09:31:08Z</time>
      </trkpt>
      <trkpt lat="44.59379" lon="4.10014">
        <ele>666</ele>
        <time>2011-03-04T09:31:19Z</time>
      </trkpt>
      <trkpt lat="44.59371" lon="4.10002">
        <ele>666</ele>
        <time>2011-03-04T09:31:29Z</time>
      </trkpt>
      <trkpt lat="44.59362" lon="4.09993">
        <ele>667</ele>
        <time>2011-03-04T09:31:40Z</time>
      </trkpt>
      <trkpt lat="44.59354" lon="4.09981">
        <ele>667</ele>
        <time>2011-03-04T09:31:53Z</time>
      </trkpt>
      <trkpt lat="44.59349" lon="4.09969">
        <ele>667</ele>
        <time>2011-03-04T09:31:59Z</time>
      </trkpt>
      <trkpt lat="44.59347" lon="4.09956">
        <ele>667</ele>
        <time>2011-03-04T09:32:06Z</time>
      </trkpt>
      <trkpt lat="44.59339" lon="4.0995">
        <ele>668</ele>
        <time>2011-03-04T09:32:15Z</time>
      </trkpt>
      <trkpt lat="44.59333" lon="4.09941">
        <ele>669</ele>
        <time>2011-03-04T09:32:29Z</time>
      </trkpt>
      <trkpt lat="44.59325" lon="4.09935">
        <ele>669</ele>
        <time>2011-03-04T09:32:43Z</time>
      </trkpt>
      <trkpt lat="44.59315" lon="4.09929">
        <ele>669</ele>
        <time>2011-03-04T09:32:55Z</time>
      </trkpt>
      <trkpt lat="44.59307" lon="4.09917">
        <ele>676</ele>
        <time>2011-03-04T09:33:06Z</time>
      </trkpt>
      <trkpt lat="44.59301" lon="4.09909">
        <ele>677</ele>
        <time>2011-03-04T09:33:17Z</time>
      </trkpt>
      <trkpt lat="44.59296" lon="4.09894">
        <ele>677</ele>
        <time>2011-03-04T09:33:28Z</time>
      </trkpt>
      <trkpt lat="44.59293" lon="4.0988">
        <ele>678</ele>
        <time>2011-03-04T09:33:37Z</time>
      </trkpt>
      <trkpt lat="44.59293" lon="4.09865">
        <ele>682</ele>
        <time>2011-03-04T09:33:47Z</time>
      </trkpt>
      <trkpt lat="44.59293" lon="4.09849">
        <ele>684</ele>
        <time>2011-03-04T09:33:58Z</time>
      </trkpt>
      <trkpt lat="44.59293" lon="4.09834">
        <ele>685</ele>
        <time>2011-03-04T09:34:08Z</time>
      </trkpt>
      <trkpt lat="44.59293" lon="4.09821">
        <ele>686</ele>
        <time>2011-03-04T09:34:17Z</time>
      </trkpt>
      <trkpt lat="44.59293" lon="4.09808">
        <ele>687</ele>
        <time>2011-03-04T09:34:27Z</time>
      </trkpt>
      <trkpt lat="44.59296" lon="4.09796">
        <ele>688</ele>
        <time>2011-03-04T09:35:03Z</time>
      </trkpt>
      <trkpt lat="44.59298" lon="4.09782">
        <ele>689</ele>
        <time>2011-03-04T09:35:12Z</time>
      </trkpt>
      <trkpt lat="44.59304" lon="4.0977">
        <ele>689</ele>
        <time>2011-03-04T09:35:24Z</time>
      </trkpt>
      <trkpt lat="44.59312" lon="4.0976">
        <ele>692</ele>
        <time>2011-03-04T09:35:37Z</time>
      </trkpt>
      <trkpt lat="44.59321" lon="4.09752">
        <ele>694</ele>
        <time>2011-03-04T09:35:49Z</time>
      </trkpt>
      <trkpt lat="44.5933" lon="4.09744">
        <ele>696</ele>
        <time>2011-03-04T09:36:01Z</time>
      </trkpt>
      <trkpt lat="44.59341" lon="4.09739">
        <ele>696</ele>
        <time>2011-03-04T09:36:12Z</time>
      </trkpt>
      <trkpt lat="44.59351" lon="4.09735">
        <ele>697</ele>
        <time>2011-03-04T09:36:31Z</time>
      </trkpt>
      <trkpt lat="44.59359" lon="4.09727">
        <ele>697</ele>
        <time>2011-03-04T09:36:41Z</time>
      </trkpt>
      <trkpt lat="44.59365" lon="4.09716">
        <ele>699</ele>
        <time>2011-03-04T09:37:04Z</time>
      </trkpt>
      <trkpt lat="44.5937" lon="4.09704">
        <ele>699</ele>
        <time>2011-03-04T09:37:15Z</time>
      </trkpt>
      <trkpt lat="44.59373" lon="4.0969">
        <ele>699</ele>
        <time>2011-03-04T09:37:24Z</time>
      </trkpt>
      <trkpt lat="44.59377" lon="4.09674">
        <ele>701</ele>
        <time>2011-03-04T09:37:35Z</time>
      </trkpt>
      <trkpt lat="44.59381" lon="4.09661">
        <ele>702</ele>
        <time>2011-03-04T09:37:44Z</time>
      </trkpt>
      <trkpt lat="44.59378" lon="4.09647">
        <ele>703</ele>
        <time>2011-03-04T09:37:53Z</time>
      </trkpt>
      <trkpt lat="44.59377" lon="4.09634">
        <ele>705</ele>
        <time>2011-03-04T09:38:02Z</time>
      </trkpt>
      <trkpt lat="44.59374" lon="4.09619">
        <ele>705</ele>
        <time>2011-03-04T09:38:12Z</time>
      </trkpt>
      <trkpt lat="44.59373" lon="4.09606">
        <ele>707</ele>
        <time>2011-03-04T09:38:21Z</time>
      </trkpt>
      <trkpt lat="44.59381" lon="4.09592">
        <ele>708</ele>
        <time>2011-03-04T09:38:33Z</time>
      </trkpt>
      <trkpt lat="44.59391" lon="4.09581">
        <ele>710</ele>
        <time>2011-03-04T09:38:45Z</time>
      </trkpt>
      <trkpt lat="44.59399" lon="4.09569">
        <ele>712</ele>
        <time>2011-03-04T09:38:57Z</time>
      </trkpt>
      <trkpt lat="44.59409" lon="4.0956">
        <ele>713</ele>
        <time>2011-03-04T09:39:09Z</time>
      </trkpt>
      <trkpt lat="44.59414" lon="4.09549">
        <ele>715</ele>
        <time>2011-03-04T09:39:22Z</time>
      </trkpt>
      <trkpt lat="44.59422" lon="4.09543">
        <ele>717</ele>
        <time>2011-03-04T09:39:30Z</time>
      </trkpt>
      <trkpt lat="44.59431" lon="4.09531">
        <ele>719</ele>
        <time>2011-03-04T09:39:42Z</time>
      </trkpt>
      <trkpt lat="44.59443" lon="4.09528">
        <ele>721</ele>
        <time>2011-03-04T09:39:52Z</time>
      </trkpt>
      <trkpt lat="44.59454" lon="4.09528">
        <ele>722</ele>
        <time>2011-03-04T09:40:02Z</time>
      </trkpt>
      <trkpt lat="44.59463" lon="4.09525">
        <ele>722</ele>
        <time>2011-03-04T09:40:12Z</time>
      </trkpt>
      <trkpt lat="44.59475" lon="4.09523">
        <ele>722</ele>
        <time>2011-03-04T09:40:22Z</time>
      </trkpt>
      <trkpt lat="44.59483" lon="4.09518">
        <ele>722</ele>
        <time>2011-03-04T09:40:42Z</time>
      </trkpt>
      <trkpt lat="44.5948" lon="4.09507">
        <ele>725</ele>
        <time>2011-03-04T09:41:21Z</time>
      </trkpt>
      <trkpt lat="44.59473" lon="4.09495">
        <ele>726</ele>
        <time>2011-03-04T09:41:33Z</time>
      </trkpt>
      <trkpt lat="44.59472" lon="4.0948">
        <ele>726</ele>
        <time>2011-03-04T09:41:43Z</time>
      </trkpt>
      <trkpt lat="44.59475" lon="4.09465">
        <ele>726</ele>
        <time>2011-03-04T09:41:53Z</time>
      </trkpt>
      <trkpt lat="44.59483" lon="4.09463">
        <ele>726</ele>
        <time>2011-03-04T09:42:03Z</time>
      </trkpt>
      <trkpt lat="44.59487" lon="4.09448">
        <ele>726</ele>
        <time>2011-03-04T09:42:16Z</time>
      </trkpt>
      <trkpt lat="44.59492" lon="4.09435">
        <ele>726</ele>
        <time>2011-03-04T09:42:32Z</time>
      </trkpt>
      <trkpt lat="44.59501" lon="4.09421">
        <ele>725</ele>
        <time>2011-03-04T09:42:45Z</time>
      </trkpt>
      <trkpt lat="44.5951" lon="4.09411">
        <ele>725</ele>
        <time>2011-03-04T09:42:55Z</time>
      </trkpt>
      <trkpt lat="44.59518" lon="4.09398">
        <ele>725</ele>
        <time>2011-03-04T09:43:06Z</time>
      </trkpt>
      <trkpt lat="44.59525" lon="4.09384">
        <ele>725</ele>
        <time>2011-03-04T09:43:16Z</time>
      </trkpt>
      <trkpt lat="44.59534" lon="4.0937">
        <ele>725</ele>
        <time>2011-03-04T09:43:27Z</time>
      </trkpt>
      <trkpt lat="44.5954" lon="4.09356">
        <ele>725</ele>
        <time>2011-03-04T09:43:47Z</time>
      </trkpt>
      <trkpt lat="44.59546" lon="4.09341">
        <ele>725</ele>
        <time>2011-03-04T09:43:57Z</time>
      </trkpt>
      <trkpt lat="44.59552" lon="4.09331">
        <ele>726</ele>
        <time>2011-03-04T09:44:05Z</time>
      </trkpt>
      <trkpt lat="44.5956" lon="4.09315">
        <ele>726</ele>
        <time>2011-03-04T09:44:16Z</time>
      </trkpt>
      <trkpt lat="44.59565" lon="4.09304">
        <ele>726</ele>
        <time>2011-03-04T09:44:24Z</time>
      </trkpt>
      <trkpt lat="44.59571" lon="4.09289">
        <ele>726</ele>
        <time>2011-03-04T09:44:34Z</time>
      </trkpt>
      <trkpt lat="44.59577" lon="4.09278">
        <ele>729</ele>
        <time>2011-03-04T09:45:06Z</time>
      </trkpt>
      <trkpt lat="44.59585" lon="4.09269">
        <ele>729</ele>
        <time>2011-03-04T09:45:14Z</time>
      </trkpt>
      <trkpt lat="44.59591" lon="4.09258">
        <ele>730</ele>
        <time>2011-03-04T09:45:38Z</time>
      </trkpt>
      <trkpt lat="44.59587" lon="4.09242">
        <ele>731</ele>
        <time>2011-03-04T09:45:52Z</time>
      </trkpt>
      <trkpt lat="44.59582" lon="4.09228">
        <ele>735</ele>
        <time>2011-03-04T09:46:13Z</time>
      </trkpt>
      <trkpt lat="44.59577" lon="4.09217">
        <ele>735</ele>
        <time>2011-03-04T09:46:33Z</time>
      </trkpt>
      <trkpt lat="44.59573" lon="4.09201">
        <ele>735</ele>
        <time>2011-03-04T09:46:46Z</time>
      </trkpt>
      <trkpt lat="44.5957" lon="4.09185">
        <ele>735</ele>
        <time>2011-03-04T09:46:55Z</time>
      </trkpt>
      <trkpt lat="44.59571" lon="4.09169">
        <ele>735</ele>
        <time>2011-03-04T09:47:04Z</time>
      </trkpt>
      <trkpt lat="44.59572" lon="4.09153">
        <ele>735</ele>
        <time>2011-03-04T09:47:13Z</time>
      </trkpt>
      <trkpt lat="44.59562" lon="4.09144">
        <ele>735</ele>
        <time>2011-03-04T09:47:22Z</time>
      </trkpt>
      <trkpt lat="44.59551" lon="4.09149">
        <ele>735</ele>
        <time>2011-03-04T09:47:33Z</time>
      </trkpt>
      <trkpt lat="44.59543" lon="4.09158">
        <ele>735</ele>
        <time>2011-03-04T09:47:47Z</time>
      </trkpt>
      <trkpt lat="44.59537" lon="4.09172">
        <ele>732</ele>
        <time>2011-03-04T09:48:17Z</time>
      </trkpt>
      <trkpt lat="44.59533" lon="4.09185">
        <ele>731</ele>
        <time>2011-03-04T09:48:27Z</time>
      </trkpt>
      <trkpt lat="44.59533" lon="4.0918">
        <ele>729</ele>
        <time>2011-03-04T09:48:59Z</time>
      </trkpt>
      <trkpt lat="44.5954" lon="4.09167">
        <ele>729</ele>
        <time>2011-03-04T09:49:11Z</time>
      </trkpt>
      <trkpt lat="44.59544" lon="4.09156">
        <ele>729</ele>
        <time>2011-03-04T09:49:23Z</time>
      </trkpt>
      <trkpt lat="44.59538" lon="4.09168">
        <ele>729</ele>
        <time>2011-03-04T09:49:58Z</time>
      </trkpt>
      <trkpt lat="44.59534" lon="4.09179">
        <ele>729</ele>
        <time>2011-03-04T09:50:04Z</time>
      </trkpt>
      <trkpt lat="44.59527" lon="4.09195">
        <ele>729</ele>
        <time>2011-03-04T09:50:14Z</time>
      </trkpt>
      <trkpt lat="44.5952" lon="4.0921">
        <ele>728</ele>
        <time>2011-03-04T09:50:23Z</time>
      </trkpt>
      <trkpt lat="44.59513" lon="4.09218">
        <ele>726</ele>
        <time>2011-03-04T09:50:29Z</time>
      </trkpt>
      <trkpt lat="44.59506" lon="4.09231">
        <ele>723</ele>
        <time>2011-03-04T09:50:38Z</time>
      </trkpt>
      <trkpt lat="44.59498" lon="4.09245">
        <ele>720</ele>
        <time>2011-03-04T09:50:48Z</time>
      </trkpt>
      <trkpt lat="44.59489" lon="4.09257">
        <ele>718</ele>
        <time>2011-03-04T09:50:57Z</time>
      </trkpt>
      <trkpt lat="44.59479" lon="4.0926">
        <ele>718</ele>
        <time>2011-03-04T09:51:03Z</time>
      </trkpt>
      <trkpt lat="44.5947" lon="4.09257">
        <ele>718</ele>
        <time>2011-03-04T09:51:09Z</time>
      </trkpt>
      <trkpt lat="44.5946" lon="4.09247">
        <ele>718</ele>
        <time>2011-03-04T09:51:18Z</time>
      </trkpt>
      <trkpt lat="44.59456" lon="4.09231">
        <ele>718</ele>
        <time>2011-03-04T09:51:27Z</time>
      </trkpt>
      <trkpt lat="44.59452" lon="4.09215">
        <ele>718</ele>
        <time>2011-03-04T09:51:36Z</time>
      </trkpt>
      <trkpt lat="44.59447" lon="4.09204">
        <ele>718</ele>
        <time>2011-03-04T09:51:42Z</time>
      </trkpt>
      <trkpt lat="44.59438" lon="4.09192">
        <ele>718</ele>
        <time>2011-03-04T09:51:51Z</time>
      </trkpt>
      <trkpt lat="44.59432" lon="4.09177">
        <ele>714</ele>
        <time>2011-03-04T09:52:01Z</time>
      </trkpt>
      <trkpt lat="44.59435" lon="4.09161">
        <ele>712</ele>
        <time>2011-03-04T09:52:11Z</time>
      </trkpt>
      <trkpt lat="44.59436" lon="4.09148">
        <ele>711</ele>
        <time>2011-03-04T09:52:20Z</time>
      </trkpt>
      <trkpt lat="44.59435" lon="4.09135">
        <ele>710</ele>
        <time>2011-03-04T09:52:27Z</time>
      </trkpt>
      <trkpt lat="44.59431" lon="4.09119">
        <ele>710</ele>
        <time>2011-03-04T09:52:36Z</time>
      </trkpt>
      <trkpt lat="44.59427" lon="4.09106">
        <ele>710</ele>
        <time>2011-03-04T09:52:43Z</time>
      </trkpt>
      <trkpt lat="44.59422" lon="4.09096">
        <ele>710</ele>
        <time>2011-03-04T09:52:49Z</time>
      </trkpt>
      <trkpt lat="44.59413" lon="4.09091">
        <ele>710</ele>
        <time>2011-03-04T09:52:56Z</time>
      </trkpt>
      <trkpt lat="44.59401" lon="4.0909">
        <ele>710</ele>
        <time>2011-03-04T09:53:07Z</time>
      </trkpt>
      <trkpt lat="44.59392" lon="4.09099">
        <ele>710</ele>
        <time>2011-03-04T09:53:19Z</time>
      </trkpt>
      <trkpt lat="44.59386" lon="4.0911">
        <ele>710</ele>
        <time>2011-03-04T09:53:27Z</time>
      </trkpt>
      <trkpt lat="44.59381" lon="4.09121">
        <ele>710</ele>
        <time>2011-03-04T09:53:35Z</time>
      </trkpt>
      <trkpt lat="44.59373" lon="4.09132">
        <ele>710</ele>
        <time>2011-03-04T09:53:47Z</time>
      </trkpt>
      <trkpt lat="44.59367" lon="4.09142">
        <ele>710</ele>
        <time>2011-03-04T09:53:55Z</time>
      </trkpt>
      <trkpt lat="44.59362" lon="4.09156">
        <ele>710</ele>
        <time>2011-03-04T09:54:05Z</time>
      </trkpt>
      <trkpt lat="44.59356" lon="4.0917">
        <ele>710</ele>
        <time>2011-03-04T09:54:15Z</time>
      </trkpt>
      <trkpt lat="44.59347" lon="4.09176">
        <ele>711</ele>
        <time>2011-03-04T09:54:22Z</time>
      </trkpt>
      <trkpt lat="44.59335" lon="4.09178">
        <ele>717</ele>
        <time>2011-03-04T09:54:30Z</time>
      </trkpt>
      <trkpt lat="44.59325" lon="4.09179">
        <ele>723</ele>
        <time>2011-03-04T09:54:37Z</time>
      </trkpt>
      <trkpt lat="44.59323" lon="4.09194">
        <ele>730</ele>
        <time>2011-03-04T09:54:49Z</time>
      </trkpt>
      <trkpt lat="44.59336" lon="4.09206">
        <ele>730</ele>
        <time>2011-03-04T09:55:00Z</time>
      </trkpt>
      <trkpt lat="44.59347" lon="4.09213">
        <ele>737</ele>
        <time>2011-03-04T09:55:07Z</time>
      </trkpt>
      <trkpt lat="44.59355" lon="4.09223">
        <ele>739</ele>
        <time>2011-03-04T09:55:16Z</time>
      </trkpt>
      <trkpt lat="44.59364" lon="4.09231">
        <ele>745</ele>
        <time>2011-03-04T09:55:23Z</time>
      </trkpt>
      <trkpt lat="44.59372" lon="4.09244">
        <ele>752</ele>
        <time>2011-03-04T09:55:34Z</time>
      </trkpt>
      <trkpt lat="44.59376" lon="4.09257">
        <ele>753</ele>
        <time>2011-03-04T09:55:45Z</time>
      </trkpt>
      <trkpt lat="44.59381" lon="4.09271">
        <ele>756</ele>
        <time>2011-03-04T09:55:56Z</time>
      </trkpt>
      <trkpt lat="44.5938" lon="4.09287">
        <ele>747</ele>
        <time>2011-03-04T09:56:06Z</time>
      </trkpt>
      <trkpt lat="44.59378" lon="4.09303">
        <ele>738</ele>
        <time>2011-03-04T09:56:15Z</time>
      </trkpt>
      <trkpt lat="44.59372" lon="4.09313">
        <ele>736</ele>
        <time>2011-03-04T09:56:23Z</time>
      </trkpt>
      <trkpt lat="44.59368" lon="4.09304">
        <ele>729</ele>
        <time>2011-03-04T09:57:12Z</time>
      </trkpt>
      <trkpt lat="44.5936" lon="4.093">
        <ele>730</ele>
        <time>2011-03-04T09:57:41Z</time>
      </trkpt>
      <trkpt lat="44.59348" lon="4.09303">
        <ele>734</ele>
        <time>2011-03-04T09:58:05Z</time>
      </trkpt>
      <trkpt lat="44.5934" lon="4.09304">
        <ele>739</ele>
        <time>2011-03-04T09:58:20Z</time>
      </trkpt>
      <trkpt lat="44.59333" lon="4.09307">
        <ele>747</ele>
        <time>2011-03-04T09:58:39Z</time>
      </trkpt>
      <trkpt lat="44.59323" lon="4.09307">
        <ele>750</ele>
        <time>2011-03-04T09:58:55Z</time>
      </trkpt>
      <trkpt lat="44.59319" lon="4.09306">
        <ele>751</ele>
        <time>2011-03-04T09:59:22Z</time>
      </trkpt>
      <trkpt lat="44.59311" lon="4.0931">
        <ele>756</ele>
        <time>2011-03-04T09:59:37Z</time>
      </trkpt>
      <trkpt lat="44.59301" lon="4.09311">
        <ele>762</ele>
        <time>2011-03-04T09:59:56Z</time>
      </trkpt>
      <trkpt lat="44.59293" lon="4.09303">
        <ele>763</ele>
        <time>2011-03-04T10:00:09Z</time>
      </trkpt>
      <trkpt lat="44.59283" lon="4.09297">
        <ele>764</ele>
        <time>2011-03-04T10:00:25Z</time>
      </trkpt>
      <trkpt lat="44.59277" lon="4.09286">
        <ele>768</ele>
        <time>2011-03-04T10:00:40Z</time>
      </trkpt>
      <trkpt lat="44.59274" lon="4.09275">
        <ele>768</ele>
        <time>2011-03-04T10:01:08Z</time>
      </trkpt>
      <trkpt lat="44.59269" lon="4.09264">
        <ele>768</ele>
        <time>2011-03-04T10:01:21Z</time>
      </trkpt>
      <trkpt lat="44.59262" lon="4.09257">
        <ele>771</ele>
        <time>2011-03-04T10:01:30Z</time>
      </trkpt>
      <trkpt lat="44.59261" lon="4.09249">
        <ele>771</ele>
        <time>2011-03-04T10:01:44Z</time>
      </trkpt>
      <trkpt lat="44.59263" lon="4.09249">
        <ele>777</ele>
        <time>2011-03-04T10:02:01Z</time>
      </trkpt>
      <trkpt lat="44.59264" lon="4.09263">
        <ele>777</ele>
        <time>2011-03-04T10:02:12Z</time>
      </trkpt>
      <trkpt lat="44.59257" lon="4.09253">
        <ele>776</ele>
        <time>2011-03-04T10:02:15Z</time>
      </trkpt>
      <trkpt lat="44.59249" lon="4.09237">
        <ele>776</ele>
        <time>2011-03-04T10:02:21Z</time>
      </trkpt>
      <trkpt lat="44.59247" lon="4.09223">
        <ele>777</ele>
        <time>2011-03-04T10:02:30Z</time>
      </trkpt>
      <trkpt lat="44.59249" lon="4.09214">
        <ele>784</ele>
        <time>2011-03-04T10:02:44Z</time>
      </trkpt>
      <trkpt lat="44.59241" lon="4.09208">
        <ele>784</ele>
        <time>2011-03-04T10:02:50Z</time>
      </trkpt>
      <trkpt lat="44.59239" lon="4.09198">
        <ele>778</ele>
        <time>2011-03-04T10:03:07Z</time>
      </trkpt>
      <trkpt lat="44.59236" lon="4.09186">
        <ele>777</ele>
        <time>2011-03-04T10:03:16Z</time>
      </trkpt>
      <trkpt lat="44.59227" lon="4.09174">
        <ele>779</ele>
        <time>2011-03-04T10:03:22Z</time>
      </trkpt>
      <trkpt lat="44.59219" lon="4.09164">
        <ele>781</ele>
        <time>2011-03-04T10:03:32Z</time>
      </trkpt>
      <trkpt lat="44.59214" lon="4.09153">
        <ele>782</ele>
        <time>2011-03-04T10:03:39Z</time>
      </trkpt>
      <trkpt lat="44.59207" lon="4.09142">
        <ele>786</ele>
        <time>2011-03-04T10:03:53Z</time>
      </trkpt>
      <trkpt lat="44.59197" lon="4.09133">
        <ele>787</ele>
        <time>2011-03-04T10:04:00Z</time>
      </trkpt>
      <trkpt lat="44.5919" lon="4.09122">
        <ele>791</ele>
        <time>2011-03-04T10:04:07Z</time>
      </trkpt>
      <trkpt lat="44.5919" lon="4.0911">
        <ele>788</ele>
        <time>2011-03-04T10:04:19Z</time>
      </trkpt>
      <trkpt lat="44.59193" lon="4.09098">
        <ele>782</ele>
        <time>2011-03-04T10:04:30Z</time>
      </trkpt>
      <trkpt lat="44.59188" lon="4.09086">
        <ele>782</ele>
        <time>2011-03-04T10:04:40Z</time>
      </trkpt>
      <trkpt lat="44.59185" lon="4.09072">
        <ele>779</ele>
        <time>2011-03-04T10:04:54Z</time>
      </trkpt>
      <trkpt lat="44.59175" lon="4.09063">
        <ele>783</ele>
        <time>2011-03-04T10:05:05Z</time>
      </trkpt>
      <trkpt lat="44.59172" lon="4.09049">
        <ele>784</ele>
        <time>2011-03-04T10:05:15Z</time>
      </trkpt>
      <trkpt lat="44.59167" lon="4.09049">
        <ele>776</ele>
        <time>2011-03-04T10:05:31Z</time>
      </trkpt>
      <trkpt lat="44.59161" lon="4.09038">
        <ele>783</ele>
        <time>2011-03-04T10:05:39Z</time>
      </trkpt>
      <trkpt lat="44.59152" lon="4.09026">
        <ele>791</ele>
        <time>2011-03-04T10:05:49Z</time>
      </trkpt>
      <trkpt lat="44.59142" lon="4.09013">
        <ele>793</ele>
        <time>2011-03-04T10:06:10Z</time>
      </trkpt>
      <trkpt lat="44.5913" lon="4.08977">
        <ele>803</ele>
        <time>2011-03-04T10:06:29Z</time>
      </trkpt>
      <trkpt lat="44.5912" lon="4.08975">
        <ele>797</ele>
        <time>2011-03-04T10:06:45Z</time>
      </trkpt>
      <trkpt lat="44.59117" lon="4.08961">
        <ele>794</ele>
        <time>2011-03-04T10:06:55Z</time>
      </trkpt>
      <trkpt lat="44.5912" lon="4.08965">
        <ele>799</ele>
        <time>2011-03-04T10:07:16Z</time>
      </trkpt>
      <trkpt lat="44.59124" lon="4.08975">
        <ele>799</ele>
        <time>2011-03-04T10:07:26Z</time>
      </trkpt>
      <trkpt lat="44.59131" lon="4.08988">
        <ele>799</ele>
        <time>2011-03-04T10:07:35Z</time>
      </trkpt>
      <trkpt lat="44.59132" lon="4.09002">
        <ele>800</ele>
        <time>2011-03-04T10:07:42Z</time>
      </trkpt>
      <trkpt lat="44.59139" lon="4.09017">
        <ele>806</ele>
        <time>2011-03-04T10:07:53Z</time>
      </trkpt>
      <trkpt lat="44.59145" lon="4.09026">
        <ele>812</ele>
        <time>2011-03-04T10:07:59Z</time>
      </trkpt>
      <trkpt lat="44.59144" lon="4.09037">
        <ele>814</ele>
        <time>2011-03-04T10:08:14Z</time>
      </trkpt>
      <trkpt lat="44.59132" lon="4.09028">
        <ele>810</ele>
        <time>2011-03-04T10:08:33Z</time>
      </trkpt>
      <trkpt lat="44.59125" lon="4.09017">
        <ele>809</ele>
        <time>2011-03-04T10:08:44Z</time>
      </trkpt>
      <trkpt lat="44.59109" lon="4.09008">
        <ele>809</ele>
        <time>2011-03-04T10:08:56Z</time>
      </trkpt>
      <trkpt lat="44.59105" lon="4.08996">
        <ele>799</ele>
        <time>2011-03-04T10:09:15Z</time>
      </trkpt>
      <trkpt lat="44.59096" lon="4.0899">
        <ele>797</ele>
        <time>2011-03-04T10:09:27Z</time>
      </trkpt>
      <trkpt lat="44.59085" lon="4.08979">
        <ele>802</ele>
        <time>2011-03-04T10:09:34Z</time>
      </trkpt>
      <trkpt lat="44.59084" lon="4.08965">
        <ele>811</ele>
        <time>2011-03-04T10:09:55Z</time>
      </trkpt>
      <trkpt lat="44.59083" lon="4.08953">
        <ele>814</ele>
        <time>2011-03-04T10:10:06Z</time>
      </trkpt>
      <trkpt lat="44.59082" lon="4.08941">
        <ele>815</ele>
        <time>2011-03-04T10:10:13Z</time>
      </trkpt>
      <trkpt lat="44.59074" lon="4.08935">
        <ele>806</ele>
        <time>2011-03-04T10:10:24Z</time>
      </trkpt>
      <trkpt lat="44.59068" lon="4.08918">
        <ele>803</ele>
        <time>2011-03-04T10:10:34Z</time>
      </trkpt>
      <trkpt lat="44.59065" lon="4.08906">
        <ele>803</ele>
        <time>2011-03-04T10:10:40Z</time>
      </trkpt>
      <trkpt lat="44.59067" lon="4.08888">
        <ele>806</ele>
        <time>2011-03-04T10:10:55Z</time>
      </trkpt>
      <trkpt lat="44.59074" lon="4.08881">
        <ele>813</ele>
        <time>2011-03-04T10:11:08Z</time>
      </trkpt>
      <trkpt lat="44.59082" lon="4.0887">
        <ele>821</ele>
        <time>2011-03-04T10:11:20Z</time>
      </trkpt>
      <trkpt lat="44.59088" lon="4.0888">
        <ele>820</ele>
        <time>2011-03-04T10:11:39Z</time>
      </trkpt>
      <trkpt lat="44.59097" lon="4.08887">
        <ele>819</ele>
        <time>2011-03-04T10:11:51Z</time>
      </trkpt>
      <trkpt lat="44.59108" lon="4.08884">
        <ele>814</ele>
        <time>2011-03-04T10:12:00Z</time>
      </trkpt>
      <trkpt lat="44.59115" lon="4.08889">
        <ele>815</ele>
        <time>2011-03-04T10:12:10Z</time>
      </trkpt>
      <trkpt lat="44.59126" lon="4.08888">
        <ele>818</ele>
        <time>2011-03-04T10:12:20Z</time>
      </trkpt>
      <trkpt lat="44.59139" lon="4.08888">
        <ele>818</ele>
        <time>2011-03-04T10:12:33Z</time>
      </trkpt>
      <trkpt lat="44.59148" lon="4.08891">
        <ele>818</ele>
        <time>2011-03-04T10:12:42Z</time>
      </trkpt>
      <trkpt lat="44.59158" lon="4.08897">
        <ele>818</ele>
        <time>2011-03-04T10:12:52Z</time>
      </trkpt>
      <trkpt lat="44.59167" lon="4.08894">
        <ele>819</ele>
        <time>2011-03-04T10:12:59Z</time>
      </trkpt>
      <trkpt lat="44.59175" lon="4.08894">
        <ele>819</ele>
        <time>2011-03-04T10:13:25Z</time>
      </trkpt>
      <trkpt lat="44.59187" lon="4.08894">
        <ele>819</ele>
        <time>2011-03-04T10:13:55Z</time>
      </trkpt>
      <trkpt lat="44.5919" lon="4.08887">
        <ele>821</ele>
        <time>2011-03-04T10:14:22Z</time>
      </trkpt>
      <trkpt lat="44.592" lon="4.08882">
        <ele>822</ele>
        <time>2011-03-04T10:14:32Z</time>
      </trkpt>
      <trkpt lat="44.59214" lon="4.08879">
        <ele>822</ele>
        <time>2011-03-04T10:14:44Z</time>
      </trkpt>
      <trkpt lat="44.5922" lon="4.08866">
        <ele>823</ele>
        <time>2011-03-04T10:14:57Z</time>
      </trkpt>
      <trkpt lat="44.59225" lon="4.08852">
        <ele>826</ele>
        <time>2011-03-04T10:15:08Z</time>
      </trkpt>
      <trkpt lat="44.5923" lon="4.08848">
        <ele>832</ele>
        <time>2011-03-04T10:15:18Z</time>
      </trkpt>
      <trkpt lat="44.59231" lon="4.08833">
        <ele>837</ele>
        <time>2011-03-04T10:15:27Z</time>
      </trkpt>
      <trkpt lat="44.59228" lon="4.08819">
        <ele>835</ele>
        <time>2011-03-04T10:15:37Z</time>
      </trkpt>
      <trkpt lat="44.5923" lon="4.08807">
        <ele>834</ele>
        <time>2011-03-04T10:15:49Z</time>
      </trkpt>
      <trkpt lat="44.59229" lon="4.08791">
        <ele>833</ele>
        <time>2011-03-04T10:15:59Z</time>
      </trkpt>
      <trkpt lat="44.59228" lon="4.08775">
        <ele>832</ele>
        <time>2011-03-04T10:16:07Z</time>
      </trkpt>
      <trkpt lat="44.59229" lon="4.08763">
        <ele>832</ele>
        <time>2011-03-04T10:16:17Z</time>
      </trkpt>
      <trkpt lat="44.59225" lon="4.08749">
        <ele>835</ele>
        <time>2011-03-04T10:16:24Z</time>
      </trkpt>
      <trkpt lat="44.59222" lon="4.08737">
        <ele>836</ele>
        <time>2011-03-04T10:16:30Z</time>
      </trkpt>
      <trkpt lat="44.59231" lon="4.08733">
        <ele>834</ele>
        <time>2011-03-04T10:16:36Z</time>
      </trkpt>
      <trkpt lat="44.59232" lon="4.0872">
        <ele>834</ele>
        <time>2011-03-04T10:16:46Z</time>
      </trkpt>
      <trkpt lat="44.59232" lon="4.08706">
        <ele>834</ele>
        <time>2011-03-04T10:16:57Z</time>
      </trkpt>
      <trkpt lat="44.5924" lon="4.08701">
        <ele>834</ele>
        <time>2011-03-04T10:17:13Z</time>
      </trkpt>
      <trkpt lat="44.5924" lon="4.08687">
        <ele>834</ele>
        <time>2011-03-04T10:17:30Z</time>
      </trkpt>
      <trkpt lat="44.59239" lon="4.08673">
        <ele>833</ele>
        <time>2011-03-04T10:17:41Z</time>
      </trkpt>
      <trkpt lat="44.59233" lon="4.08662">
        <ele>833</ele>
        <time>2011-03-04T10:17:49Z</time>
      </trkpt>
      <trkpt lat="44.59222" lon="4.0866">
        <ele>835</ele>
        <time>2011-03-04T10:17:58Z</time>
      </trkpt>
      <trkpt lat="44.59212" lon="4.08656">
        <ele>838</ele>
        <time>2011-03-04T10:18:08Z</time>
      </trkpt>
      <trkpt lat="44.59201" lon="4.08652">
        <ele>839</ele>
        <time>2011-03-04T10:18:18Z</time>
      </trkpt>
      <trkpt lat="44.59191" lon="4.08651">
        <ele>843</ele>
        <time>2011-03-04T10:18:27Z</time>
      </trkpt>
      <trkpt lat="44.5918" lon="4.08647">
        <ele>845</ele>
        <time>2011-03-04T10:18:38Z</time>
      </trkpt>
      <trkpt lat="44.59169" lon="4.08638">
        <ele>846</ele>
        <time>2011-03-04T10:18:48Z</time>
      </trkpt>
      <trkpt lat="44.59161" lon="4.08636">
        <ele>850</ele>
        <time>2011-03-04T10:18:54Z</time>
      </trkpt>
      <trkpt lat="44.59152" lon="4.08632">
        <ele>856</ele>
        <time>2011-03-04T10:19:00Z</time>
      </trkpt>
      <trkpt lat="44.59142" lon="4.08624">
        <ele>860</ele>
        <time>2011-03-04T10:19:15Z</time>
      </trkpt>
      <trkpt lat="44.59132" lon="4.08613">
        <ele>860</ele>
        <time>2011-03-04T10:19:27Z</time>
      </trkpt>
      <trkpt lat="44.59125" lon="4.08603">
        <ele>860</ele>
        <time>2011-03-04T10:19:38Z</time>
      </trkpt>
      <trkpt lat="44.59115" lon="4.08606">
        <ele>853</ele>
        <time>2011-03-04T10:19:49Z</time>
      </trkpt>
      <trkpt lat="44.59109" lon="4.08604">
        <ele>853</ele>
        <time>2011-03-04T10:20:42Z</time>
      </trkpt>
      <trkpt lat="44.59111" lon="4.08596">
        <ele>853</ele>
        <time>2011-03-04T10:21:39Z</time>
      </trkpt>
      <trkpt lat="44.59108" lon="4.08592">
        <ele>858</ele>
        <time>2011-03-04T10:22:18Z</time>
      </trkpt>
      <trkpt lat="44.59101" lon="4.08593">
        <ele>851</ele>
        <time>2011-03-04T10:22:44Z</time>
      </trkpt>
      <trkpt lat="44.59093" lon="4.08592">
        <ele>852</ele>
        <time>2011-03-04T10:22:57Z</time>
      </trkpt>
      <trkpt lat="44.59084" lon="4.08579">
        <ele>858</ele>
        <time>2011-03-04T10:23:07Z</time>
      </trkpt>
      <trkpt lat="44.59077" lon="4.08567">
        <ele>866</ele>
        <time>2011-03-04T10:23:21Z</time>
      </trkpt>
      <trkpt lat="44.59073" lon="4.08555">
        <ele>865</ele>
        <time>2011-03-04T10:23:28Z</time>
      </trkpt>
      <trkpt lat="44.59073" lon="4.08539">
        <ele>859</ele>
        <time>2011-03-04T10:23:39Z</time>
      </trkpt>
      <trkpt lat="44.59068" lon="4.08526">
        <ele>855</ele>
        <time>2011-03-04T10:23:51Z</time>
      </trkpt>
      <trkpt lat="44.5906" lon="4.08516">
        <ele>854</ele>
        <time>2011-03-04T10:24:09Z</time>
      </trkpt>
      <trkpt lat="44.59053" lon="4.08506">
        <ele>864</ele>
        <time>2011-03-04T10:24:20Z</time>
      </trkpt>
      <trkpt lat="44.59056" lon="4.085">
        <ele>864</ele>
        <time>2011-03-04T10:24:43Z</time>
      </trkpt>
      <trkpt lat="44.59055" lon="4.08502">
        <ele>866</ele>
        <time>2011-03-04T10:25:28Z</time>
      </trkpt>
      <trkpt lat="44.59066" lon="4.08502">
        <ele>868</ele>
        <time>2011-03-04T10:25:38Z</time>
      </trkpt>
      <trkpt lat="44.59077" lon="4.08497">
        <ele>867</ele>
        <time>2011-03-04T10:25:47Z</time>
      </trkpt>
      <trkpt lat="44.5909" lon="4.0849">
        <ele>864</ele>
        <time>2011-03-04T10:25:57Z</time>
      </trkpt>
      <trkpt lat="44.59098" lon="4.08482">
        <ele>863</ele>
        <time>2011-03-04T10:26:07Z</time>
      </trkpt>
      <trkpt lat="44.59108" lon="4.08476">
        <ele>860</ele>
        <time>2011-03-04T10:26:20Z</time>
      </trkpt>
      <trkpt lat="44.59116" lon="4.08468">
        <ele>859</ele>
        <time>2011-03-04T10:26:30Z</time>
      </trkpt>
      <trkpt lat="44.59128" lon="4.08471">
        <ele>859</ele>
        <time>2011-03-04T10:26:40Z</time>
      </trkpt>
      <trkpt lat="44.59137" lon="4.08465">
        <ele>866</ele>
        <time>2011-03-04T10:27:00Z</time>
      </trkpt>
      <trkpt lat="44.59146" lon="4.0847">
        <ele>866</ele>
        <time>2011-03-04T10:27:11Z</time>
      </trkpt>
      <trkpt lat="44.59156" lon="4.08473">
        <ele>866</ele>
        <time>2011-03-04T10:27:21Z</time>
      </trkpt>
      <trkpt lat="44.59164" lon="4.08466">
        <ele>868</ele>
        <time>2011-03-04T10:27:29Z</time>
      </trkpt>
      <trkpt lat="44.59168" lon="4.08455">
        <ele>868</ele>
        <time>2011-03-04T10:27:45Z</time>
      </trkpt>
      <trkpt lat="44.59165" lon="4.08443">
        <ele>863</ele>
        <time>2011-03-04T10:28:03Z</time>
      </trkpt>
      <trkpt lat="44.5916" lon="4.08433">
        <ele>863</ele>
        <time>2011-03-04T10:28:12Z</time>
      </trkpt>
      <trkpt lat="44.59153" lon="4.08422">
        <ele>863</ele>
        <time>2011-03-04T10:28:23Z</time>
      </trkpt>
      <trkpt lat="44.59148" lon="4.08409">
        <ele>867</ele>
        <time>2011-03-04T10:28:33Z</time>
      </trkpt>
      <trkpt lat="44.59144" lon="4.08398">
        <ele>870</ele>
        <time>2011-03-04T10:28:40Z</time>
      </trkpt>
      <trkpt lat="44.59142" lon="4.08384">
        <ele>870</ele>
        <time>2011-03-04T10:28:50Z</time>
      </trkpt>
      <trkpt lat="44.59136" lon="4.08372">
        <ele>870</ele>
        <time>2011-03-04T10:29:01Z</time>
      </trkpt>
      <trkpt lat="44.59132" lon="4.08356">
        <ele>870</ele>
        <time>2011-03-04T10:29:11Z</time>
      </trkpt>
      <trkpt lat="44.59129" lon="4.08341">
        <ele>870</ele>
        <time>2011-03-04T10:29:21Z</time>
      </trkpt>
      <trkpt lat="44.59131" lon="4.08325">
        <ele>870</ele>
        <time>2011-03-04T10:29:31Z</time>
      </trkpt>
      <trkpt lat="44.59132" lon="4.0831">
        <ele>877</ele>
        <time>2011-03-04T10:29:41Z</time>
      </trkpt>
      <trkpt lat="44.5913" lon="4.08295">
        <ele>877</ele>
        <time>2011-03-04T10:29:52Z</time>
      </trkpt>
      <trkpt lat="44.59133" lon="4.08283">
        <ele>877</ele>
        <time>2011-03-04T10:30:01Z</time>
      </trkpt>
      <trkpt lat="44.59138" lon="4.08278">
        <ele>881</ele>
        <time>2011-03-04T10:30:13Z</time>
      </trkpt>
      <trkpt lat="44.59137" lon="4.08262">
        <ele>881</ele>
        <time>2011-03-04T10:30:24Z</time>
      </trkpt>
      <trkpt lat="44.59136" lon="4.08248">
        <ele>881</ele>
        <time>2011-03-04T10:30:33Z</time>
      </trkpt>
      <trkpt lat="44.59145" lon="4.08236">
        <ele>881</ele>
        <time>2011-03-04T10:30:43Z</time>
      </trkpt>
      <trkpt lat="44.59149" lon="4.08225">
        <ele>881</ele>
        <time>2011-03-04T10:30:53Z</time>
      </trkpt>
      <trkpt lat="44.59145" lon="4.08212">
        <ele>882</ele>
        <time>2011-03-04T10:31:07Z</time>
      </trkpt>
      <trkpt lat="44.59137" lon="4.08203">
        <ele>887</ele>
        <time>2011-03-04T10:31:19Z</time>
      </trkpt>
      <trkpt lat="44.59134" lon="4.08191">
        <ele>890</ele>
        <time>2011-03-04T10:31:37Z</time>
      </trkpt>
      <trkpt lat="44.59139" lon="4.08186">
        <ele>895</ele>
        <time>2011-03-04T10:32:09Z</time>
      </trkpt>
      <trkpt lat="44.59136" lon="4.08183">
        <ele>895</ele>
        <time>2011-03-04T10:32:30Z</time>
      </trkpt>
      <trkpt lat="44.59132" lon="4.08184">
        <ele>891</ele>
        <time>2011-03-04T10:33:23Z</time>
      </trkpt>
      <trkpt lat="44.59134" lon="4.08184">
        <ele>885</ele>
        <time>2011-03-04T10:33:44Z</time>
      </trkpt>
      <trkpt lat="44.59132" lon="4.0819">
        <ele>889</ele>
        <time>2011-03-04T10:34:04Z</time>
      </trkpt>
      <trkpt lat="44.59138" lon="4.08185">
        <ele>889</ele>
        <time>2011-03-04T10:35:04Z</time>
      </trkpt>
      <trkpt lat="44.59138" lon="4.08181">
        <ele>896</ele>
        <time>2011-03-04T10:35:35Z</time>
      </trkpt>
      <trkpt lat="44.59138" lon="4.08183">
        <ele>888</ele>
        <time>2011-03-04T10:36:16Z</time>
      </trkpt>
      <trkpt lat="44.59137" lon="4.08185">
        <ele>884</ele>
        <time>2011-03-04T10:37:02Z</time>
      </trkpt>
      <trkpt lat="44.5914" lon="4.0818">
        <ele>884</ele>
        <time>2011-03-04T10:37:33Z</time>
      </trkpt>
      <trkpt lat="44.59152" lon="4.08181">
        <ele>887</ele>
        <time>2011-03-04T10:37:45Z</time>
      </trkpt>
      <trkpt lat="44.59166" lon="4.08175">
        <ele>887</ele>
        <time>2011-03-04T10:37:57Z</time>
      </trkpt>
      <trkpt lat="44.59175" lon="4.08177">
        <ele>889</ele>
        <time>2011-03-04T10:38:04Z</time>
      </trkpt>
      <trkpt lat="44.59184" lon="4.08182">
        <ele>890</ele>
        <time>2011-03-04T10:38:13Z</time>
      </trkpt>
      <trkpt lat="44.59193" lon="4.08193">
        <ele>896</ele>
        <time>2011-03-04T10:38:23Z</time>
      </trkpt>
      <trkpt lat="44.59199" lon="4.08203">
        <ele>899</ele>
        <time>2011-03-04T10:38:29Z</time>
      </trkpt>
      <trkpt lat="44.59206" lon="4.08214">
        <ele>900</ele>
        <time>2011-03-04T10:38:40Z</time>
      </trkpt>
      <trkpt lat="44.59213" lon="4.08224">
        <ele>900</ele>
        <time>2011-03-04T10:38:51Z</time>
      </trkpt>
      <trkpt lat="44.59222" lon="4.0823">
        <ele>900</ele>
        <time>2011-03-04T10:39:06Z</time>
      </trkpt>
      <trkpt lat="44.59233" lon="4.08237">
        <ele>900</ele>
        <time>2011-03-04T10:39:17Z</time>
      </trkpt>
      <trkpt lat="44.59244" lon="4.08234">
        <ele>900</ele>
        <time>2011-03-04T10:39:27Z</time>
      </trkpt>
      <trkpt lat="44.59257" lon="4.08227">
        <ele>899</ele>
        <time>2011-03-04T10:39:39Z</time>
      </trkpt>
      <trkpt lat="44.59266" lon="4.08223">
        <ele>896</ele>
        <time>2011-03-04T10:39:49Z</time>
      </trkpt>
      <trkpt lat="44.59274" lon="4.08212">
        <ele>894</ele>
        <time>2011-03-04T10:40:06Z</time>
      </trkpt>
      <trkpt lat="44.59272" lon="4.082">
        <ele>894</ele>
        <time>2011-03-04T10:40:20Z</time>
      </trkpt>
      <trkpt lat="44.59269" lon="4.08185">
        <ele>894</ele>
        <time>2011-03-04T10:40:33Z</time>
      </trkpt>
      <trkpt lat="44.59266" lon="4.08165">
        <ele>896</ele>
        <time>2011-03-04T10:40:44Z</time>
      </trkpt>
      <trkpt lat="44.59264" lon="4.08153">
        <ele>896</ele>
        <time>2011-03-04T10:40:52Z</time>
      </trkpt>
      <trkpt lat="44.59261" lon="4.08137">
        <ele>895</ele>
        <time>2011-03-04T10:41:02Z</time>
      </trkpt>
      <trkpt lat="44.59267" lon="4.08123">
        <ele>896</ele>
        <time>2011-03-04T10:41:13Z</time>
      </trkpt>
      <trkpt lat="44.59263" lon="4.08108">
        <ele>896</ele>
        <time>2011-03-04T10:41:22Z</time>
      </trkpt>
      <trkpt lat="44.59263" lon="4.08092">
        <ele>896</ele>
        <time>2011-03-04T10:41:30Z</time>
      </trkpt>
      <trkpt lat="44.59266" lon="4.08076">
        <ele>895</ele>
        <time>2011-03-04T10:41:37Z</time>
      </trkpt>
      <trkpt lat="44.59272" lon="4.08066">
        <ele>905</ele>
        <time>2011-03-04T10:41:50Z</time>
      </trkpt>
      <trkpt lat="44.59278" lon="4.0805">
        <ele>914</ele>
        <time>2011-03-04T10:42:02Z</time>
      </trkpt>
      <trkpt lat="44.5928" lon="4.08032">
        <ele>914</ele>
        <time>2011-03-04T10:42:10Z</time>
      </trkpt>
      <trkpt lat="44.59277" lon="4.08018">
        <ele>914</ele>
        <time>2011-03-04T10:42:18Z</time>
      </trkpt>
      <trkpt lat="44.59274" lon="4.08003">
        <ele>916</ele>
        <time>2011-03-04T10:42:28Z</time>
      </trkpt>
      <trkpt lat="44.59278" lon="4.07988">
        <ele>918</ele>
        <time>2011-03-04T10:42:36Z</time>
      </trkpt>
      <trkpt lat="44.59288" lon="4.07976">
        <ele>918</ele>
        <time>2011-03-04T10:42:46Z</time>
      </trkpt>
      <trkpt lat="44.59297" lon="4.07975">
        <ele>918</ele>
        <time>2011-03-04T10:42:52Z</time>
      </trkpt>
      <trkpt lat="44.59307" lon="4.07974">
        <ele>918</ele>
        <time>2011-03-04T10:43:15Z</time>
      </trkpt>
      <trkpt lat="44.59319" lon="4.07967">
        <ele>918</ele>
        <time>2011-03-04T10:43:30Z</time>
      </trkpt>
      <trkpt lat="44.59327" lon="4.07962">
        <ele>918</ele>
        <time>2011-03-04T10:43:39Z</time>
      </trkpt>
      <trkpt lat="44.59336" lon="4.07958">
        <ele>918</ele>
        <time>2011-03-04T10:43:50Z</time>
      </trkpt>
      <trkpt lat="44.59345" lon="4.07956">
        <ele>919</ele>
        <time>2011-03-04T10:44:04Z</time>
      </trkpt>
      <trkpt lat="44.59335" lon="4.07955">
        <ele>921</ele>
        <time>2011-03-04T10:44:25Z</time>
      </trkpt>
      <trkpt lat="44.59322" lon="4.07955">
        <ele>921</ele>
        <time>2011-03-04T10:44:37Z</time>
      </trkpt>
      <trkpt lat="44.59312" lon="4.07957">
        <ele>921</ele>
        <time>2011-03-04T10:44:47Z</time>
      </trkpt>
      <trkpt lat="44.59303" lon="4.0796">
        <ele>921</ele>
        <time>2011-03-04T10:44:55Z</time>
      </trkpt>
      <trkpt lat="44.59295" lon="4.07966">
        <ele>921</ele>
        <time>2011-03-04T10:45:02Z</time>
      </trkpt>
      <trkpt lat="44.59293" lon="4.07959">
        <ele>923</ele>
        <time>2011-03-04T10:45:17Z</time>
      </trkpt>
      <trkpt lat="44.59302" lon="4.07951">
        <ele>923</ele>
        <time>2011-03-04T10:45:30Z</time>
      </trkpt>
      <trkpt lat="44.59308" lon="4.07947">
        <ele>931</ele>
        <time>2011-03-04T10:45:48Z</time>
      </trkpt>
      <trkpt lat="44.59316" lon="4.07939">
        <ele>934</ele>
        <time>2011-03-04T10:45:55Z</time>
      </trkpt>
      <trkpt lat="44.59326" lon="4.07935">
        <ele>934</ele>
        <time>2011-03-04T10:46:03Z</time>
      </trkpt>
      <trkpt lat="44.59339" lon="4.07933">
        <ele>934</ele>
        <time>2011-03-04T10:46:14Z</time>
      </trkpt>
      <trkpt lat="44.59348" lon="4.07931">
        <ele>933</ele>
        <time>2011-03-04T10:46:28Z</time>
      </trkpt>
      <trkpt lat="44.59349" lon="4.07921">
        <ele>935</ele>
        <time>2011-03-04T10:47:04Z</time>
      </trkpt>
      <trkpt lat="44.59343" lon="4.0791">
        <ele>938</ele>
        <time>2011-03-04T10:47:20Z</time>
      </trkpt>
      <trkpt lat="44.59336" lon="4.07902">
        <ele>938</ele>
        <time>2011-03-04T10:47:27Z</time>
      </trkpt>
      <trkpt lat="44.59329" lon="4.07891">
        <ele>938</ele>
        <time>2011-03-04T10:47:35Z</time>
      </trkpt>
      <trkpt lat="44.59323" lon="4.07875">
        <ele>938</ele>
        <time>2011-03-04T10:47:47Z</time>
      </trkpt>
      <trkpt lat="44.59313" lon="4.07866">
        <ele>938</ele>
        <time>2011-03-04T10:47:57Z</time>
      </trkpt>
      <trkpt lat="44.59304" lon="4.07854">
        <ele>938</ele>
        <time>2011-03-04T10:48:07Z</time>
      </trkpt>
      <trkpt lat="44.59298" lon="4.07839">
        <ele>938</ele>
        <time>2011-03-04T10:48:17Z</time>
      </trkpt>
      <trkpt lat="44.59291" lon="4.07826">
        <ele>939</ele>
        <time>2011-03-04T10:48:28Z</time>
      </trkpt>
      <trkpt lat="44.59286" lon="4.07812">
        <ele>939</ele>
        <time>2011-03-04T10:48:42Z</time>
      </trkpt>
      <trkpt lat="44.59283" lon="4.07797">
        <ele>944</ele>
        <time>2011-03-04T10:48:53Z</time>
      </trkpt>
      <trkpt lat="44.59278" lon="4.07785">
        <ele>946</ele>
        <time>2011-03-04T10:49:02Z</time>
      </trkpt>
      <trkpt lat="44.59267" lon="4.07773">
        <ele>947</ele>
        <time>2011-03-04T10:49:12Z</time>
      </trkpt>
      <trkpt lat="44.59258" lon="4.0776">
        <ele>947</ele>
        <time>2011-03-04T10:49:23Z</time>
      </trkpt>
      <trkpt lat="44.59248" lon="4.07752">
        <ele>947</ele>
        <time>2011-03-04T10:49:33Z</time>
      </trkpt>
      <trkpt lat="44.5924" lon="4.07741">
        <ele>948</ele>
        <time>2011-03-04T10:49:44Z</time>
      </trkpt>
      <trkpt lat="44.59239" lon="4.07726">
        <ele>948</ele>
        <time>2011-03-04T10:49:53Z</time>
      </trkpt>
      <trkpt lat="44.59238" lon="4.07707">
        <ele>948</ele>
        <time>2011-03-04T10:50:04Z</time>
      </trkpt>
      <trkpt lat="44.59239" lon="4.07691">
        <ele>952</ele>
        <time>2011-03-04T10:50:15Z</time>
      </trkpt>
      <trkpt lat="44.59237" lon="4.07678">
        <ele>958</ele>
        <time>2011-03-04T10:50:31Z</time>
      </trkpt>
      <trkpt lat="44.59245" lon="4.07679">
        <ele>961</ele>
        <time>2011-03-04T10:50:41Z</time>
      </trkpt>
      <trkpt lat="44.59257" lon="4.07679">
        <ele>964</ele>
        <time>2011-03-04T10:50:47Z</time>
      </trkpt>
      <trkpt lat="44.59266" lon="4.0768">
        <ele>969</ele>
        <time>2011-03-04T10:51:00Z</time>
      </trkpt>
      <trkpt lat="44.59261" lon="4.07667">
        <ele>965</ele>
        <time>2011-03-04T10:51:10Z</time>
      </trkpt>
      <trkpt lat="44.59252" lon="4.07681">
        <ele>958</ele>
        <time>2011-03-04T10:51:19Z</time>
      </trkpt>
      <trkpt lat="44.59245" lon="4.07693">
        <ele>958</ele>
        <time>2011-03-04T10:51:26Z</time>
      </trkpt>
      <trkpt lat="44.59241" lon="4.07709">
        <ele>959</ele>
        <time>2011-03-04T10:51:32Z</time>
      </trkpt>
      <trkpt lat="44.59236" lon="4.07723">
        <ele>960</ele>
        <time>2011-03-04T10:51:42Z</time>
      </trkpt>
      <trkpt lat="44.59242" lon="4.0773">
        <ele>960</ele>
        <time>2011-03-04T10:51:52Z</time>
      </trkpt>
      <trkpt lat="44.59245" lon="4.07744">
        <ele>960</ele>
        <time>2011-03-04T10:52:03Z</time>
      </trkpt>
      <trkpt lat="44.59251" lon="4.07759">
        <ele>965</ele>
        <time>2011-03-04T10:52:12Z</time>
      </trkpt>
      <trkpt lat="44.59248" lon="4.07774">
        <ele>970</ele>
        <time>2011-03-04T10:52:23Z</time>
      </trkpt>
      <trkpt lat="44.59253" lon="4.07791">
        <ele>973</ele>
        <time>2011-03-04T10:52:33Z</time>
      </trkpt>
      <trkpt lat="44.59258" lon="4.07805">
        <ele>978</ele>
        <time>2011-03-04T10:52:43Z</time>
      </trkpt>
      <trkpt lat="44.59257" lon="4.07819">
        <ele>979</ele>
        <time>2011-03-04T10:52:50Z</time>
      </trkpt>
      <trkpt lat="44.59249" lon="4.07827">
        <ele>980</ele>
        <time>2011-03-04T10:52:58Z</time>
      </trkpt>
      <trkpt lat="44.59246" lon="4.07824">
        <ele>977</ele>
        <time>2011-03-04T10:53:12Z</time>
      </trkpt>
      <trkpt lat="44.59253" lon="4.07835">
        <ele>979</ele>
        <time>2011-03-04T10:53:19Z</time>
      </trkpt>
      <trkpt lat="44.59261" lon="4.07845">
        <ele>979</ele>
        <time>2011-03-04T10:53:28Z</time>
      </trkpt>
      <trkpt lat="44.5925" lon="4.07841">
        <ele>974</ele>
        <time>2011-03-04T10:53:39Z</time>
      </trkpt>
      <trkpt lat="44.59243" lon="4.07833">
        <ele>970</ele>
        <time>2011-03-04T10:53:52Z</time>
      </trkpt>
      <trkpt lat="44.59235" lon="4.07827">
        <ele>967</ele>
        <time>2011-03-04T10:54:00Z</time>
      </trkpt>
      <trkpt lat="44.59229" lon="4.07815">
        <ele>968</ele>
        <time>2011-03-04T10:54:11Z</time>
      </trkpt>
      <trkpt lat="44.59222" lon="4.07801">
        <ele>972</ele>
        <time>2011-03-04T10:54:23Z</time>
      </trkpt>
      <trkpt lat="44.59214" lon="4.07791">
        <ele>972</ele>
        <time>2011-03-04T10:54:34Z</time>
      </trkpt>
      <trkpt lat="44.59207" lon="4.07775">
        <ele>972</ele>
        <time>2011-03-04T10:54:45Z</time>
      </trkpt>
      <trkpt lat="44.59203" lon="4.07758">
        <ele>972</ele>
        <time>2011-03-04T10:54:56Z</time>
      </trkpt>
      <trkpt lat="44.59196" lon="4.07745">
        <ele>975</ele>
        <time>2011-03-04T10:55:06Z</time>
      </trkpt>
      <trkpt lat="44.59191" lon="4.07736">
        <ele>976</ele>
        <time>2011-03-04T10:55:15Z</time>
      </trkpt>
      <trkpt lat="44.59196" lon="4.07723">
        <ele>976</ele>
        <time>2011-03-04T10:55:27Z</time>
      </trkpt>
      <trkpt lat="44.59191" lon="4.0771">
        <ele>980</ele>
        <time>2011-03-04T10:55:42Z</time>
      </trkpt>
      <trkpt lat="44.59196" lon="4.07695">
        <ele>982</ele>
        <time>2011-03-04T10:55:54Z</time>
      </trkpt>
      <trkpt lat="44.59196" lon="4.07682">
        <ele>982</ele>
        <time>2011-03-04T10:56:04Z</time>
      </trkpt>
      <trkpt lat="44.59196" lon="4.07668">
        <ele>988</ele>
        <time>2011-03-04T10:56:13Z</time>
      </trkpt>
      <trkpt lat="44.59199" lon="4.07656">
        <ele>988</ele>
        <time>2011-03-04T10:56:21Z</time>
      </trkpt>
      <trkpt lat="44.592" lon="4.07643">
        <ele>992</ele>
        <time>2011-03-04T10:56:33Z</time>
      </trkpt>
      <trkpt lat="44.59203" lon="4.07629">
        <ele>997</ele>
        <time>2011-03-04T10:56:39Z</time>
      </trkpt>
      <trkpt lat="44.59203" lon="4.07627">
        <ele>999</ele>
        <time>2011-03-04T10:56:58Z</time>
      </trkpt>
      <trkpt lat="44.5921" lon="4.07621">
        <ele>1008</ele>
        <time>2011-03-04T10:57:14Z</time>
      </trkpt>
      <trkpt lat="44.59216" lon="4.07613">
        <ele>1009</ele>
        <time>2011-03-04T10:57:20Z</time>
      </trkpt>
      <trkpt lat="44.59223" lon="4.07601">
        <ele>1010</ele>
        <time>2011-03-04T10:57:35Z</time>
      </trkpt>
      <trkpt lat="44.59232" lon="4.07588">
        <ele>1009</ele>
        <time>2011-03-04T10:57:56Z</time>
      </trkpt>
      <trkpt lat="44.59238" lon="4.07578">
        <ele>1008</ele>
        <time>2011-03-04T10:58:04Z</time>
      </trkpt>
      <trkpt lat="44.59246" lon="4.07568">
        <ele>1008</ele>
        <time>2011-03-04T10:58:14Z</time>
      </trkpt>
      <trkpt lat="44.59253" lon="4.0756">
        <ele>1008</ele>
        <time>2011-03-04T10:58:25Z</time>
      </trkpt>
      <trkpt lat="44.59258" lon="4.07546">
        <ele>1008</ele>
        <time>2011-03-04T10:58:34Z</time>
      </trkpt>
      <trkpt lat="44.59267" lon="4.07535">
        <ele>1007</ele>
        <time>2011-03-04T10:58:47Z</time>
      </trkpt>
      <trkpt lat="44.59275" lon="4.07522">
        <ele>1007</ele>
        <time>2011-03-04T10:59:01Z</time>
      </trkpt>
      <trkpt lat="44.59283" lon="4.0751">
        <ele>1007</ele>
        <time>2011-03-04T10:59:12Z</time>
      </trkpt>
      <trkpt lat="44.59282" lon="4.07497">
        <ele>1007</ele>
        <time>2011-03-04T10:59:22Z</time>
      </trkpt>
      <trkpt lat="44.59272" lon="4.07488">
        <ele>1007</ele>
        <time>2011-03-04T10:59:37Z</time>
      </trkpt>
      <trkpt lat="44.59262" lon="4.07479">
        <ele>1006</ele>
        <time>2011-03-04T10:59:47Z</time>
      </trkpt>
      <trkpt lat="44.59252" lon="4.07467">
        <ele>1006</ele>
        <time>2011-03-04T10:59:58Z</time>
      </trkpt>
      <trkpt lat="44.59241" lon="4.07456">
        <ele>1006</ele>
        <time>2011-03-04T11:00:10Z</time>
      </trkpt>
      <trkpt lat="44.59232" lon="4.07448">
        <ele>1008</ele>
        <time>2011-03-04T11:00:20Z</time>
      </trkpt>
      <trkpt lat="44.59222" lon="4.07439">
        <ele>1008</ele>
        <time>2011-03-04T11:00:31Z</time>
      </trkpt>
      <trkpt lat="44.59213" lon="4.07429">
        <ele>1008</ele>
        <time>2011-03-04T11:00:41Z</time>
      </trkpt>
      <trkpt lat="44.59207" lon="4.07419">
        <ele>1009</ele>
        <time>2011-03-04T11:00:48Z</time>
      </trkpt>
      <trkpt lat="44.592" lon="4.07411">
        <ele>1011</ele>
        <time>2011-03-04T11:00:56Z</time>
      </trkpt>
      <trkpt lat="44.59192" lon="4.07402">
        <ele>1012</ele>
        <time>2011-03-04T11:01:07Z</time>
      </trkpt>
      <trkpt lat="44.59185" lon="4.0739">
        <ele>1012</ele>
        <time>2011-03-04T11:01:18Z</time>
      </trkpt>
      <trkpt lat="44.5919" lon="4.074">
        <ele>1015</ele>
        <time>2011-03-04T11:01:39Z</time>
      </trkpt>
      <trkpt lat="44.59188" lon="4.0741">
        <ele>1017</ele>
        <time>2011-03-04T11:02:06Z</time>
      </trkpt>
      <trkpt lat="44.59185" lon="4.07418">
        <ele>1020</ele>
        <time>2011-03-04T11:02:30Z</time>
      </trkpt>
      <trkpt lat="44.59184" lon="4.07427">
        <ele>1027</ele>
        <time>2011-03-04T11:02:48Z</time>
      </trkpt>
      <trkpt lat="44.5919" lon="4.07438">
        <ele>1031</ele>
        <time>2011-03-04T11:03:01Z</time>
      </trkpt>
      <trkpt lat="44.59179" lon="4.07433">
        <ele>1031</ele>
        <time>2011-03-04T11:03:24Z</time>
      </trkpt>
      <trkpt lat="44.59172" lon="4.0742">
        <ele>1031</ele>
        <time>2011-03-04T11:03:34Z</time>
      </trkpt>
      <trkpt lat="44.59164" lon="4.07406">
        <ele>1031</ele>
        <time>2011-03-04T11:03:46Z</time>
      </trkpt>
      <trkpt lat="44.59158" lon="4.0739">
        <ele>1031</ele>
        <time>2011-03-04T11:03:56Z</time>
      </trkpt>
      <trkpt lat="44.5915" lon="4.07376">
        <ele>1031</ele>
        <time>2011-03-04T11:04:07Z</time>
      </trkpt>
      <trkpt lat="44.59147" lon="4.07365">
        <ele>1032</ele>
        <time>2011-03-04T11:05:03Z</time>
      </trkpt>
      <trkpt lat="44.59151" lon="4.0735">
        <ele>1034</ele>
        <time>2011-03-04T11:05:14Z</time>
      </trkpt>
      <trkpt lat="44.59153" lon="4.07337">
        <ele>1034</ele>
        <time>2011-03-04T11:05:26Z</time>
      </trkpt>
      <trkpt lat="44.59159" lon="4.07322">
        <ele>1034</ele>
        <time>2011-03-04T11:05:35Z</time>
      </trkpt>
      <trkpt lat="44.59166" lon="4.07309">
        <ele>1034</ele>
        <time>2011-03-04T11:05:44Z</time>
      </trkpt>
      <trkpt lat="44.59171" lon="4.07295">
        <ele>1035</ele>
        <time>2011-03-04T11:05:53Z</time>
      </trkpt>
      <trkpt lat="44.59171" lon="4.07279">
        <ele>1036</ele>
        <time>2011-03-04T11:06:02Z</time>
      </trkpt>
      <trkpt lat="44.59168" lon="4.07266">
        <ele>1036</ele>
        <time>2011-03-04T11:06:14Z</time>
      </trkpt>
      <trkpt lat="44.59167" lon="4.07253">
        <ele>1038</ele>
        <time>2011-03-04T11:06:23Z</time>
      </trkpt>
      <trkpt lat="44.59166" lon="4.07238">
        <ele>1042</ele>
        <time>2011-03-04T11:06:34Z</time>
      </trkpt>
      <trkpt lat="44.59163" lon="4.07224">
        <ele>1044</ele>
        <time>2011-03-04T11:06:44Z</time>
      </trkpt>
      <trkpt lat="44.59157" lon="4.07208">
        <ele>1044</ele>
        <time>2011-03-04T11:06:55Z</time>
      </trkpt>
      <trkpt lat="44.5915" lon="4.07194">
        <ele>1044</ele>
        <time>2011-03-04T11:07:05Z</time>
      </trkpt>
      <trkpt lat="44.59143" lon="4.07185">
        <ele>1044</ele>
        <time>2011-03-04T11:07:13Z</time>
      </trkpt>
      <trkpt lat="44.59136" lon="4.07177">
        <ele>1044</ele>
        <time>2011-03-04T11:07:21Z</time>
      </trkpt>
      <trkpt lat="44.59127" lon="4.07165">
        <ele>1044</ele>
        <time>2011-03-04T11:07:31Z</time>
      </trkpt>
      <trkpt lat="44.59125" lon="4.0715">
        <ele>1044</ele>
        <time>2011-03-04T11:07:43Z</time>
      </trkpt>
      <trkpt lat="44.59132" lon="4.07138">
        <ele>1051</ele>
        <time>2011-03-04T11:08:02Z</time>
      </trkpt>
      <trkpt lat="44.59143" lon="4.07132">
        <ele>1053</ele>
        <time>2011-03-04T11:08:11Z</time>
      </trkpt>
      <trkpt lat="44.59154" lon="4.07124">
        <ele>1053</ele>
        <time>2011-03-04T11:08:20Z</time>
      </trkpt>
      <trkpt lat="44.59163" lon="4.0711">
        <ele>1053</ele>
        <time>2011-03-04T11:08:32Z</time>
      </trkpt>
      <trkpt lat="44.5917" lon="4.07099">
        <ele>1053</ele>
        <time>2011-03-04T11:08:40Z</time>
      </trkpt>
      <trkpt lat="44.59176" lon="4.07086">
        <ele>1053</ele>
        <time>2011-03-04T11:08:50Z</time>
      </trkpt>
      <trkpt lat="44.59179" lon="4.07072">
        <ele>1053</ele>
        <time>2011-03-04T11:09:00Z</time>
      </trkpt>
      <trkpt lat="44.5918" lon="4.07058">
        <ele>1053</ele>
        <time>2011-03-04T11:09:10Z</time>
      </trkpt>
      <trkpt lat="44.5918" lon="4.07044">
        <ele>1053</ele>
        <time>2011-03-04T11:09:19Z</time>
      </trkpt>
      <trkpt lat="44.59189" lon="4.07037">
        <ele>1053</ele>
        <time>2011-03-04T11:09:37Z</time>
      </trkpt>
      <trkpt lat="44.59192" lon="4.07025">
        <ele>1053</ele>
        <time>2011-03-04T11:09:45Z</time>
      </trkpt>
      <trkpt lat="44.59199" lon="4.07013">
        <ele>1053</ele>
        <time>2011-03-04T11:09:56Z</time>
      </trkpt>
      <trkpt lat="44.59203" lon="4.06999">
        <ele>1053</ele>
        <time>2011-03-04T11:10:06Z</time>
      </trkpt>
      <trkpt lat="44.59208" lon="4.06987">
        <ele>1054</ele>
        <time>2011-03-04T11:10:17Z</time>
      </trkpt>
      <trkpt lat="44.59211" lon="4.06972">
        <ele>1059</ele>
        <time>2011-03-04T11:10:27Z</time>
      </trkpt>
      <trkpt lat="44.59213" lon="4.06956">
        <ele>1060</ele>
        <time>2011-03-04T11:10:36Z</time>
      </trkpt>
      <trkpt lat="44.59215" lon="4.06942">
        <ele>1060</ele>
        <time>2011-03-04T11:10:46Z</time>
      </trkpt>
      <trkpt lat="44.59217" lon="4.06927">
        <ele>1062</ele>
        <time>2011-03-04T11:10:57Z</time>
      </trkpt>
      <trkpt lat="44.59213" lon="4.06914">
        <ele>1060</ele>
        <time>2011-03-04T11:11:08Z</time>
      </trkpt>
      <trkpt lat="44.59214" lon="4.06899">
        <ele>1060</ele>
        <time>2011-03-04T11:11:18Z</time>
      </trkpt>
      <trkpt lat="44.5921" lon="4.06886">
        <ele>1065</ele>
        <time>2011-03-04T11:11:29Z</time>
      </trkpt>
      <trkpt lat="44.59212" lon="4.06871">
        <ele>1067</ele>
        <time>2011-03-04T11:11:38Z</time>
      </trkpt>
      <trkpt lat="44.59218" lon="4.06861">
        <ele>1064</ele>
        <time>2011-03-04T11:11:48Z</time>
      </trkpt>
      <trkpt lat="44.59227" lon="4.0686">
        <ele>1062</ele>
        <time>2011-03-04T11:11:55Z</time>
      </trkpt>
      <trkpt lat="44.59237" lon="4.06862">
        <ele>1062</ele>
        <time>2011-03-04T11:12:05Z</time>
      </trkpt>
      <trkpt lat="44.59246" lon="4.06857">
        <ele>1062</ele>
        <time>2011-03-04T11:12:31Z</time>
      </trkpt>
      <trkpt lat="44.59252" lon="4.06848">
        <ele>1064</ele>
        <time>2011-03-04T11:12:43Z</time>
      </trkpt>
      <trkpt lat="44.59259" lon="4.06837">
        <ele>1064</ele>
        <time>2011-03-04T11:12:54Z</time>
      </trkpt>
      <trkpt lat="44.59271" lon="4.06831">
        <ele>1065</ele>
        <time>2011-03-04T11:13:05Z</time>
      </trkpt>
      <trkpt lat="44.5928" lon="4.0682">
        <ele>1065</ele>
        <time>2011-03-04T11:13:16Z</time>
      </trkpt>
      <trkpt lat="44.59287" lon="4.06806">
        <ele>1067</ele>
        <time>2011-03-04T11:13:46Z</time>
      </trkpt>
      <trkpt lat="44.59291" lon="4.06791">
        <ele>1067</ele>
        <time>2011-03-04T11:13:56Z</time>
      </trkpt>
      <trkpt lat="44.59296" lon="4.06777">
        <ele>1067</ele>
        <time>2011-03-04T11:14:06Z</time>
      </trkpt>
      <trkpt lat="44.59307" lon="4.06773">
        <ele>1069</ele>
        <time>2011-03-04T11:14:16Z</time>
      </trkpt>
      <trkpt lat="44.59315" lon="4.06776">
        <ele>1069</ele>
        <time>2011-03-04T11:14:24Z</time>
      </trkpt>
      <trkpt lat="44.59326" lon="4.06772">
        <ele>1073</ele>
        <time>2011-03-04T11:14:39Z</time>
      </trkpt>
      <trkpt lat="44.59335" lon="4.06769">
        <ele>1078</ele>
        <time>2011-03-04T11:15:00Z</time>
      </trkpt>
      <trkpt lat="44.5934" lon="4.06756">
        <ele>1080</ele>
        <time>2011-03-04T11:15:25Z</time>
      </trkpt>
      <trkpt lat="44.59351" lon="4.06748">
        <ele>1079</ele>
        <time>2011-03-04T11:15:36Z</time>
      </trkpt>
      <trkpt lat="44.5936" lon="4.06746">
        <ele>1076</ele>
        <time>2011-03-04T11:15:42Z</time>
      </trkpt>
      <trkpt lat="44.59372" lon="4.0674">
        <ele>1075</ele>
        <time>2011-03-04T11:15:52Z</time>
      </trkpt>
      <trkpt lat="44.59383" lon="4.06733">
        <ele>1076</ele>
        <time>2011-03-04T11:16:01Z</time>
      </trkpt>
      <trkpt lat="44.59391" lon="4.06724">
        <ele>1077</ele>
        <time>2011-03-04T11:16:09Z</time>
      </trkpt>
      <trkpt lat="44.59397" lon="4.06711">
        <ele>1077</ele>
        <time>2011-03-04T11:16:19Z</time>
      </trkpt>
      <trkpt lat="44.59396" lon="4.06694">
        <ele>1077</ele>
        <time>2011-03-04T11:16:31Z</time>
      </trkpt>
      <trkpt lat="44.59396" lon="4.06678">
        <ele>1078</ele>
        <time>2011-03-04T11:16:40Z</time>
      </trkpt>
      <trkpt lat="44.59396" lon="4.06663">
        <ele>1080</ele>
        <time>2011-03-04T11:16:49Z</time>
      </trkpt>
      <trkpt lat="44.59392" lon="4.06661">
        <ele>1084</ele>
        <time>2011-03-04T11:17:50Z</time>
      </trkpt>
      <trkpt lat="44.5939" lon="4.06645">
        <ele>1084</ele>
        <time>2011-03-04T11:18:01Z</time>
      </trkpt>
      <trkpt lat="44.5939" lon="4.06632">
        <ele>1086</ele>
        <time>2011-03-04T11:18:11Z</time>
      </trkpt>
      <trkpt lat="44.59389" lon="4.06618">
        <ele>1088</ele>
        <time>2011-03-04T11:18:20Z</time>
      </trkpt>
      <trkpt lat="44.59387" lon="4.06604">
        <ele>1089</ele>
        <time>2011-03-04T11:18:29Z</time>
      </trkpt>
      <trkpt lat="44.59385" lon="4.06589">
        <ele>1089</ele>
        <time>2011-03-04T11:18:39Z</time>
      </trkpt>
      <trkpt lat="44.59383" lon="4.06573">
        <ele>1089</ele>
        <time>2011-03-04T11:18:49Z</time>
      </trkpt>
      <trkpt lat="44.5938" lon="4.06559">
        <ele>1089</ele>
        <time>2011-03-04T11:18:58Z</time>
      </trkpt>
      <trkpt lat="44.59383" lon="4.0654">
        <ele>1093</ele>
        <time>2011-03-04T11:19:08Z</time>
      </trkpt>
      <trkpt lat="44.59383" lon="4.06525">
        <ele>1094</ele>
        <time>2011-03-04T11:19:18Z</time>
      </trkpt>
      <trkpt lat="44.5938" lon="4.06512">
        <ele>1094</ele>
        <time>2011-03-04T11:19:29Z</time>
      </trkpt>
      <trkpt lat="44.59373" lon="4.06503">
        <ele>1096</ele>
        <time>2011-03-04T11:19:41Z</time>
      </trkpt>
      <trkpt lat="44.59371" lon="4.06488">
        <ele>1099</ele>
        <time>2011-03-04T11:19:51Z</time>
      </trkpt>
      <trkpt lat="44.59378" lon="4.06475">
        <ele>1101</ele>
        <time>2011-03-04T11:20:02Z</time>
      </trkpt>
      <trkpt lat="44.59385" lon="4.06462">
        <ele>1101</ele>
        <time>2011-03-04T11:20:12Z</time>
      </trkpt>
      <trkpt lat="44.59391" lon="4.06448">
        <ele>1101</ele>
        <time>2011-03-04T11:20:23Z</time>
      </trkpt>
      <trkpt lat="44.59398" lon="4.06434">
        <ele>1101</ele>
        <time>2011-03-04T11:20:34Z</time>
      </trkpt>
      <trkpt lat="44.59404" lon="4.06421">
        <ele>1101</ele>
        <time>2011-03-04T11:20:45Z</time>
      </trkpt>
      <trkpt lat="44.59404" lon="4.0641">
        <ele>1102</ele>
        <time>2011-03-04T11:21:13Z</time>
      </trkpt>
      <trkpt lat="44.59404" lon="4.06421">
        <ele>1105</ele>
        <time>2011-03-04T11:21:35Z</time>
      </trkpt>
      <trkpt lat="44.59409" lon="4.06406">
        <ele>1102</ele>
        <time>2011-03-04T11:21:56Z</time>
      </trkpt>
      <trkpt lat="44.59414" lon="4.06391">
        <ele>1101</ele>
        <time>2011-03-04T11:22:05Z</time>
      </trkpt>
      <trkpt lat="44.5942" lon="4.06377">
        <ele>1101</ele>
        <time>2011-03-04T11:22:14Z</time>
      </trkpt>
      <trkpt lat="44.59428" lon="4.06364">
        <ele>1101</ele>
        <time>2011-03-04T11:22:24Z</time>
      </trkpt>
      <trkpt lat="44.59432" lon="4.06349">
        <ele>1104</ele>
        <time>2011-03-04T11:22:35Z</time>
      </trkpt>
      <trkpt lat="44.59445" lon="4.06341">
        <ele>1111</ele>
        <time>2011-03-04T11:22:44Z</time>
      </trkpt>
      <trkpt lat="44.59452" lon="4.06333">
        <ele>1112</ele>
        <time>2011-03-04T11:22:50Z</time>
      </trkpt>
      <trkpt lat="44.59463" lon="4.06324">
        <ele>1112</ele>
        <time>2011-03-04T11:23:00Z</time>
      </trkpt>
      <trkpt lat="44.59472" lon="4.06313">
        <ele>1111</ele>
        <time>2011-03-04T11:23:10Z</time>
      </trkpt>
      <trkpt lat="44.59478" lon="4.06299">
        <ele>1110</ele>
        <time>2011-03-04T11:23:20Z</time>
      </trkpt>
      <trkpt lat="44.59486" lon="4.06296">
        <ele>1110</ele>
        <time>2011-03-04T11:23:49Z</time>
      </trkpt>
      <trkpt lat="44.59483" lon="4.06283">
        <ele>1110</ele>
        <time>2011-03-04T11:24:11Z</time>
      </trkpt>
      <trkpt lat="44.59483" lon="4.06268">
        <ele>1111</ele>
        <time>2011-03-04T11:24:21Z</time>
      </trkpt>
      <trkpt lat="44.59483" lon="4.06253">
        <ele>1111</ele>
        <time>2011-03-04T11:24:31Z</time>
      </trkpt>
      <trkpt lat="44.59484" lon="4.06238">
        <ele>1111</ele>
        <time>2011-03-04T11:24:43Z</time>
      </trkpt>
      <trkpt lat="44.5948" lon="4.06221">
        <ele>1111</ele>
        <time>2011-03-04T11:24:52Z</time>
      </trkpt>
      <trkpt lat="44.59479" lon="4.06207">
        <ele>1111</ele>
        <time>2011-03-04T11:25:01Z</time>
      </trkpt>
      <trkpt lat="44.5948" lon="4.0619">
        <ele>1109</ele>
        <time>2011-03-04T11:25:11Z</time>
      </trkpt>
      <trkpt lat="44.59485" lon="4.06179">
        <ele>1109</ele>
        <time>2011-03-04T11:25:18Z</time>
      </trkpt>
      <trkpt lat="44.59492" lon="4.06169">
        <ele>1109</ele>
        <time>2011-03-04T11:25:24Z</time>
      </trkpt>
      <trkpt lat="44.59497" lon="4.06155">
        <ele>1109</ele>
        <time>2011-03-04T11:25:33Z</time>
      </trkpt>
      <trkpt lat="44.59499" lon="4.06138">
        <ele>1109</ele>
        <time>2011-03-04T11:25:42Z</time>
      </trkpt>
      <trkpt lat="44.59497" lon="4.06125">
        <ele>1109</ele>
        <time>2011-03-04T11:25:48Z</time>
      </trkpt>
      <trkpt lat="44.59497" lon="4.0611">
        <ele>1109</ele>
        <time>2011-03-04T11:25:57Z</time>
      </trkpt>
      <trkpt lat="44.59493" lon="4.06097">
        <ele>1109</ele>
        <time>2011-03-04T11:26:03Z</time>
      </trkpt>
      <trkpt lat="44.59488" lon="4.06084">
        <ele>1109</ele>
        <time>2011-03-04T11:26:12Z</time>
      </trkpt>
      <trkpt lat="44.5948" lon="4.06076">
        <ele>1109</ele>
        <time>2011-03-04T11:26:19Z</time>
      </trkpt>
      <trkpt lat="44.59476" lon="4.06063">
        <ele>1108</ele>
        <time>2011-03-04T11:26:28Z</time>
      </trkpt>
      <trkpt lat="44.59481" lon="4.0605">
        <ele>1108</ele>
        <time>2011-03-04T11:26:34Z</time>
      </trkpt>
      <trkpt lat="44.59489" lon="4.06039">
        <ele>1112</ele>
        <time>2011-03-04T11:26:40Z</time>
      </trkpt>
      <trkpt lat="44.59495" lon="4.06023">
        <ele>1112</ele>
        <time>2011-03-04T11:26:49Z</time>
      </trkpt>
      <trkpt lat="44.59495" lon="4.06011">
        <ele>1109</ele>
        <time>2011-03-04T11:26:55Z</time>
      </trkpt>
      <trkpt lat="44.59499" lon="4.05998">
        <ele>1109</ele>
        <time>2011-03-04T11:27:02Z</time>
      </trkpt>
      <trkpt lat="44.59502" lon="4.05984">
        <ele>1107</ele>
        <time>2011-03-04T11:27:12Z</time>
      </trkpt>
      <trkpt lat="44.59508" lon="4.05973">
        <ele>1107</ele>
        <time>2011-03-04T11:27:18Z</time>
      </trkpt>
      <trkpt lat="44.59517" lon="4.05964">
        <ele>1117</ele>
        <time>2011-03-04T11:27:32Z</time>
      </trkpt>
      <trkpt lat="44.59525" lon="4.05955">
        <ele>1117</ele>
        <time>2011-03-04T11:27:42Z</time>
      </trkpt>
      <trkpt lat="44.59534" lon="4.05947">
        <ele>1117</ele>
        <time>2011-03-04T11:27:54Z</time>
      </trkpt>
      <trkpt lat="44.59541" lon="4.05935">
        <ele>1117</ele>
        <time>2011-03-04T11:28:05Z</time>
      </trkpt>
      <trkpt lat="44.59546" lon="4.05919">
        <ele>1117</ele>
        <time>2011-03-04T11:28:16Z</time>
      </trkpt>
      <trkpt lat="44.59549" lon="4.05905">
        <ele>1118</ele>
        <time>2011-03-04T11:28:26Z</time>
      </trkpt>
      <trkpt lat="44.59554" lon="4.05891">
        <ele>1119</ele>
        <time>2011-03-04T11:28:35Z</time>
      </trkpt>
      <trkpt lat="44.59555" lon="4.05876">
        <ele>1120</ele>
        <time>2011-03-04T11:28:42Z</time>
      </trkpt>
      <trkpt lat="44.59553" lon="4.05861">
        <ele>1116</ele>
        <time>2011-03-04T11:28:52Z</time>
      </trkpt>
      <trkpt lat="44.59557" lon="4.05849">
        <ele>1116</ele>
        <time>2011-03-04T11:28:58Z</time>
      </trkpt>
      <trkpt lat="44.59561" lon="4.05833">
        <ele>1118</ele>
        <time>2011-03-04T11:29:08Z</time>
      </trkpt>
      <trkpt lat="44.59563" lon="4.05819">
        <ele>1119</ele>
        <time>2011-03-04T11:29:19Z</time>
      </trkpt>
      <trkpt lat="44.59569" lon="4.058">
        <ele>1121</ele>
        <time>2011-03-04T11:29:28Z</time>
      </trkpt>
      <trkpt lat="44.59571" lon="4.05787">
        <ele>1121</ele>
        <time>2011-03-04T11:29:35Z</time>
      </trkpt>
      <trkpt lat="44.59573" lon="4.0577">
        <ele>1121</ele>
        <time>2011-03-04T11:29:44Z</time>
      </trkpt>
      <trkpt lat="44.59579" lon="4.05757">
        <ele>1121</ele>
        <time>2011-03-04T11:29:53Z</time>
      </trkpt>
      <trkpt lat="44.59584" lon="4.05742">
        <ele>1121</ele>
        <time>2011-03-04T11:30:03Z</time>
      </trkpt>
      <trkpt lat="44.59592" lon="4.05729">
        <ele>1121</ele>
        <time>2011-03-04T11:30:15Z</time>
      </trkpt>
      <trkpt lat="44.59597" lon="4.05715">
        <ele>1123</ele>
        <time>2011-03-04T11:30:25Z</time>
      </trkpt>
      <trkpt lat="44.59606" lon="4.05704">
        <ele>1126</ele>
        <time>2011-03-04T11:30:32Z</time>
      </trkpt>
      <trkpt lat="44.59612" lon="4.0569">
        <ele>1127</ele>
        <time>2011-03-04T11:30:41Z</time>
      </trkpt>
      <trkpt lat="44.59619" lon="4.05681">
        <ele>1127</ele>
        <time>2011-03-04T11:30:48Z</time>
      </trkpt>
      <trkpt lat="44.59626" lon="4.05673">
        <ele>1127</ele>
        <time>2011-03-04T11:30:55Z</time>
      </trkpt>
      <trkpt lat="44.59632" lon="4.05662">
        <ele>1127</ele>
        <time>2011-03-04T11:31:03Z</time>
      </trkpt>
      <trkpt lat="44.59637" lon="4.05648">
        <ele>1127</ele>
        <time>2011-03-04T11:31:13Z</time>
      </trkpt>
      <trkpt lat="44.5964" lon="4.05633">
        <ele>1124</ele>
        <time>2011-03-04T11:31:22Z</time>
      </trkpt>
      <trkpt lat="44.59643" lon="4.05619">
        <ele>1123</ele>
        <time>2011-03-04T11:31:31Z</time>
      </trkpt>
      <trkpt lat="44.59644" lon="4.05604">
        <ele>1123</ele>
        <time>2011-03-04T11:31:41Z</time>
      </trkpt>
      <trkpt lat="44.59644" lon="4.05587">
        <ele>1123</ele>
        <time>2011-03-04T11:31:52Z</time>
      </trkpt>
      <trkpt lat="44.59648" lon="4.05573">
        <ele>1123</ele>
        <time>2011-03-04T11:32:02Z</time>
      </trkpt>
      <trkpt lat="44.59649" lon="4.05558">
        <ele>1123</ele>
        <time>2011-03-04T11:32:11Z</time>
      </trkpt>
      <trkpt lat="44.59652" lon="4.05542">
        <ele>1124</ele>
        <time>2011-03-04T11:32:21Z</time>
      </trkpt>
      <trkpt lat="44.59654" lon="4.05525">
        <ele>1125</ele>
        <time>2011-03-04T11:32:32Z</time>
      </trkpt>
      <trkpt lat="44.59656" lon="4.05511">
        <ele>1126</ele>
        <time>2011-03-04T11:32:41Z</time>
      </trkpt>
      <trkpt lat="44.59658" lon="4.05495">
        <ele>1130</ele>
        <time>2011-03-04T11:32:51Z</time>
      </trkpt>
      <trkpt lat="44.59661" lon="4.0548">
        <ele>1131</ele>
        <time>2011-03-04T11:33:09Z</time>
      </trkpt>
      <trkpt lat="44.59662" lon="4.05471">
        <ele>1134</ele>
        <time>2011-03-04T11:33:44Z</time>
      </trkpt>
      <trkpt lat="44.59657" lon="4.05482">
        <ele>1134</ele>
        <time>2011-03-04T11:33:54Z</time>
      </trkpt>
      <trkpt lat="44.5965" lon="4.05497">
        <ele>1134</ele>
        <time>2011-03-04T11:34:04Z</time>
      </trkpt>
      <trkpt lat="44.59644" lon="4.05508">
        <ele>1134</ele>
        <time>2011-03-04T11:34:12Z</time>
      </trkpt>
      <trkpt lat="44.59634" lon="4.05511">
        <ele>1136</ele>
        <time>2011-03-04T11:34:22Z</time>
      </trkpt>
      <trkpt lat="44.59624" lon="4.05508">
        <ele>1136</ele>
        <time>2011-03-04T11:34:34Z</time>
      </trkpt>
      <trkpt lat="44.59615" lon="4.05499">
        <ele>1136</ele>
        <time>2011-03-04T11:34:49Z</time>
      </trkpt>
      <trkpt lat="44.59602" lon="4.05505">
        <ele>1136</ele>
        <time>2011-03-04T11:35:06Z</time>
      </trkpt>
      <trkpt lat="44.59595" lon="4.0552">
        <ele>1136</ele>
        <time>2011-03-04T11:35:17Z</time>
      </trkpt>
      <trkpt lat="44.5959" lon="4.05533">
        <ele>1136</ele>
        <time>2011-03-04T11:35:26Z</time>
      </trkpt>
      <trkpt lat="44.59584" lon="4.05544">
        <ele>1136</ele>
        <time>2011-03-04T11:35:34Z</time>
      </trkpt>
      <trkpt lat="44.59586" lon="4.05553">
        <ele>1136</ele>
        <time>2011-03-04T11:35:50Z</time>
      </trkpt>
      <trkpt lat="44.5958" lon="4.05562">
        <ele>1136</ele>
        <time>2011-03-04T11:36:15Z</time>
      </trkpt>
      <trkpt lat="44.59578" lon="4.05579">
        <ele>1136</ele>
        <time>2011-03-04T11:36:25Z</time>
      </trkpt>
      <trkpt lat="44.59578" lon="4.05588">
        <ele>1136</ele>
        <time>2011-03-04T11:37:45Z</time>
      </trkpt>
      <trkpt lat="44.59577" lon="4.05589">
        <ele>1135</ele>
        <time>2011-03-04T11:44:58Z</time>
      </trkpt>
      <trkpt lat="44.59575" lon="4.05589">
        <ele>1135</ele>
        <time>2011-03-04T11:56:36Z</time>
      </trkpt>
      <trkpt lat="44.59574" lon="4.05591">
        <ele>1135</ele>
        <time>2011-03-04T12:01:47Z</time>
      </trkpt>
      <trkpt lat="44.59574" lon="4.0559">
        <ele>1136</ele>
        <time>2011-03-04T12:08:49Z</time>
      </trkpt>
      <trkpt lat="44.59576" lon="4.05588">
        <ele>1136</ele>
        <time>2011-03-04T12:12:42Z</time>
      </trkpt>
      <trkpt lat="44.59575" lon="4.05597">
        <ele>1137</ele>
        <time>2011-03-04T12:15:13Z</time>
      </trkpt>
      <trkpt lat="44.59575" lon="4.05588">
        <ele>1137</ele>
        <time>2011-03-04T12:16:19Z</time>
      </trkpt>
      <trkpt lat="44.59576" lon="4.05574">
        <ele>1138</ele>
        <time>2011-03-04T12:17:12Z</time>
      </trkpt>
      <trkpt lat="44.59578" lon="4.05556">
        <ele>1138</ele>
        <time>2011-03-04T12:17:32Z</time>
      </trkpt>
      <trkpt lat="44.59583" lon="4.05542">
        <ele>1138</ele>
        <time>2011-03-04T12:17:44Z</time>
      </trkpt>
      <trkpt lat="44.59589" lon="4.05526">
        <ele>1138</ele>
        <time>2011-03-04T12:17:56Z</time>
      </trkpt>
      <trkpt lat="44.59594" lon="4.05515">
        <ele>1138</ele>
        <time>2011-03-04T12:18:04Z</time>
      </trkpt>
      <trkpt lat="44.59596" lon="4.05502">
        <ele>1138</ele>
        <time>2011-03-04T12:18:14Z</time>
      </trkpt>
      <trkpt lat="44.596" lon="4.0549">
        <ele>1139</ele>
        <time>2011-03-04T12:18:24Z</time>
      </trkpt>
      <trkpt lat="44.59604" lon="4.05476">
        <ele>1139</ele>
        <time>2011-03-04T12:18:34Z</time>
      </trkpt>
      <trkpt lat="44.59608" lon="4.05461">
        <ele>1140</ele>
        <time>2011-03-04T12:18:44Z</time>
      </trkpt>
      <trkpt lat="44.5961" lon="4.05448">
        <ele>1140</ele>
        <time>2011-03-04T12:18:53Z</time>
      </trkpt>
      <trkpt lat="44.59613" lon="4.05434">
        <ele>1140</ele>
        <time>2011-03-04T12:19:03Z</time>
      </trkpt>
      <trkpt lat="44.59617" lon="4.05421">
        <ele>1140</ele>
        <time>2011-03-04T12:19:13Z</time>
      </trkpt>
      <trkpt lat="44.5962" lon="4.05407">
        <ele>1141</ele>
        <time>2011-03-04T12:19:22Z</time>
      </trkpt>
      <trkpt lat="44.59623" lon="4.05393">
        <ele>1141</ele>
        <time>2011-03-04T12:19:32Z</time>
      </trkpt>
      <trkpt lat="44.59628" lon="4.0538">
        <ele>1142</ele>
        <time>2011-03-04T12:19:42Z</time>
      </trkpt>
      <trkpt lat="44.59634" lon="4.05367">
        <ele>1142</ele>
        <time>2011-03-04T12:19:54Z</time>
      </trkpt>
      <trkpt lat="44.59642" lon="4.05354">
        <ele>1143</ele>
        <time>2011-03-04T12:20:06Z</time>
      </trkpt>
      <trkpt lat="44.59648" lon="4.05345">
        <ele>1144</ele>
        <time>2011-03-04T12:20:14Z</time>
      </trkpt>
      <trkpt lat="44.59654" lon="4.05333">
        <ele>1146</ele>
        <time>2011-03-04T12:20:25Z</time>
      </trkpt>
      <trkpt lat="44.59661" lon="4.0532">
        <ele>1148</ele>
        <time>2011-03-04T12:20:37Z</time>
      </trkpt>
      <trkpt lat="44.59667" lon="4.05304">
        <ele>1151</ele>
        <time>2011-03-04T12:20:49Z</time>
      </trkpt>
      <trkpt lat="44.59672" lon="4.05291">
        <ele>1152</ele>
        <time>2011-03-04T12:21:00Z</time>
      </trkpt>
      <trkpt lat="44.59678" lon="4.05276">
        <ele>1153</ele>
        <time>2011-03-04T12:21:11Z</time>
      </trkpt>
      <trkpt lat="44.59685" lon="4.0526">
        <ele>1156</ele>
        <time>2011-03-04T12:21:23Z</time>
      </trkpt>
      <trkpt lat="44.59691" lon="4.05246">
        <ele>1158</ele>
        <time>2011-03-04T12:21:34Z</time>
      </trkpt>
      <trkpt lat="44.59697" lon="4.05237">
        <ele>1160</ele>
        <time>2011-03-04T12:22:13Z</time>
      </trkpt>
      <trkpt lat="44.59705" lon="4.05228">
        <ele>1160</ele>
        <time>2011-03-04T12:22:27Z</time>
      </trkpt>
      <trkpt lat="44.59716" lon="4.05216">
        <ele>1160</ele>
        <time>2011-03-04T12:22:39Z</time>
      </trkpt>
      <trkpt lat="44.59724" lon="4.05203">
        <ele>1160</ele>
        <time>2011-03-04T12:22:50Z</time>
      </trkpt>
      <trkpt lat="44.59731" lon="4.05189">
        <ele>1160</ele>
        <time>2011-03-04T12:23:00Z</time>
      </trkpt>
      <trkpt lat="44.59735" lon="4.05174">
        <ele>1160</ele>
        <time>2011-03-04T12:23:12Z</time>
      </trkpt>
      <trkpt lat="44.59746" lon="4.05174">
        <ele>1160</ele>
        <time>2011-03-04T12:23:26Z</time>
      </trkpt>
      <trkpt lat="44.59757" lon="4.05178">
        <ele>1160</ele>
        <time>2011-03-04T12:23:37Z</time>
      </trkpt>
      <trkpt lat="44.59768" lon="4.0518">
        <ele>1160</ele>
        <time>2011-03-04T12:23:48Z</time>
      </trkpt>
      <trkpt lat="44.59778" lon="4.05185">
        <ele>1160</ele>
        <time>2011-03-04T12:24:04Z</time>
      </trkpt>
      <trkpt lat="44.59785" lon="4.05191">
        <ele>1157</ele>
        <time>2011-03-04T12:24:46Z</time>
      </trkpt>
      <trkpt lat="44.59786" lon="4.05187">
        <ele>1157</ele>
        <time>2011-03-04T12:24:57Z</time>
      </trkpt>
      <trkpt lat="44.59799" lon="4.05193">
        <ele>1156</ele>
        <time>2011-03-04T12:25:06Z</time>
      </trkpt>
      <trkpt lat="44.59808" lon="4.05196">
        <ele>1153</ele>
        <time>2011-03-04T12:25:13Z</time>
      </trkpt>
      <trkpt lat="44.59819" lon="4.052">
        <ele>1152</ele>
        <time>2011-03-04T12:25:22Z</time>
      </trkpt>
      <trkpt lat="44.59831" lon="4.05205">
        <ele>1151</ele>
        <time>2011-03-04T12:25:31Z</time>
      </trkpt>
      <trkpt lat="44.5984" lon="4.05208">
        <ele>1151</ele>
        <time>2011-03-04T12:25:38Z</time>
      </trkpt>
      <trkpt lat="44.59851" lon="4.05204">
        <ele>1150</ele>
        <time>2011-03-04T12:25:48Z</time>
      </trkpt>
      <trkpt lat="44.59863" lon="4.05211">
        <ele>1147</ele>
        <time>2011-03-04T12:25:59Z</time>
      </trkpt>
      <trkpt lat="44.59871" lon="4.05217">
        <ele>1146</ele>
        <time>2011-03-04T12:26:06Z</time>
      </trkpt>
      <trkpt lat="44.59881" lon="4.05229">
        <ele>1143</ele>
        <time>2011-03-04T12:26:18Z</time>
      </trkpt>
      <trkpt lat="44.59887" lon="4.0524">
        <ele>1142</ele>
        <time>2011-03-04T12:26:26Z</time>
      </trkpt>
      <trkpt lat="44.59888" lon="4.05254">
        <ele>1141</ele>
        <time>2011-03-04T12:26:37Z</time>
      </trkpt>
      <trkpt lat="44.5989" lon="4.05267">
        <ele>1140</ele>
        <time>2011-03-04T12:27:07Z</time>
      </trkpt>
      <trkpt lat="44.59892" lon="4.0528">
        <ele>1138</ele>
        <time>2011-03-04T12:27:19Z</time>
      </trkpt>
      <trkpt lat="44.59895" lon="4.05292">
        <ele>1136</ele>
        <time>2011-03-04T12:27:30Z</time>
      </trkpt>
      <trkpt lat="44.59899" lon="4.05305">
        <ele>1135</ele>
        <time>2011-03-04T12:27:39Z</time>
      </trkpt>
      <trkpt lat="44.59903" lon="4.05318">
        <ele>1134</ele>
        <time>2011-03-04T12:27:48Z</time>
      </trkpt>
      <trkpt lat="44.59906" lon="4.05333">
        <ele>1132</ele>
        <time>2011-03-04T12:28:05Z</time>
      </trkpt>
      <trkpt lat="44.59911" lon="4.05347">
        <ele>1130</ele>
        <time>2011-03-04T12:28:15Z</time>
      </trkpt>
      <trkpt lat="44.5992" lon="4.0536">
        <ele>1127</ele>
        <time>2011-03-04T12:28:26Z</time>
      </trkpt>
      <trkpt lat="44.59925" lon="4.05372">
        <ele>1124</ele>
        <time>2011-03-04T12:28:42Z</time>
      </trkpt>
      <trkpt lat="44.59915" lon="4.05367">
        <ele>1121</ele>
        <time>2011-03-04T12:28:57Z</time>
      </trkpt>
      <trkpt lat="44.59905" lon="4.05365">
        <ele>1120</ele>
        <time>2011-03-04T12:29:12Z</time>
      </trkpt>
      <trkpt lat="44.59898" lon="4.05352">
        <ele>1120</ele>
        <time>2011-03-04T12:29:24Z</time>
      </trkpt>
      <trkpt lat="44.59892" lon="4.05339">
        <ele>1120</ele>
        <time>2011-03-04T12:29:33Z</time>
      </trkpt>
      <trkpt lat="44.59887" lon="4.05324">
        <ele>1120</ele>
        <time>2011-03-04T12:29:44Z</time>
      </trkpt>
      <trkpt lat="44.59879" lon="4.05317">
        <ele>1120</ele>
        <time>2011-03-04T12:29:58Z</time>
      </trkpt>
      <trkpt lat="44.59884" lon="4.05331">
        <ele>1120</ele>
        <time>2011-03-04T12:30:09Z</time>
      </trkpt>
      <trkpt lat="44.59887" lon="4.05345">
        <ele>1119</ele>
        <time>2011-03-04T12:30:18Z</time>
      </trkpt>
      <trkpt lat="44.59887" lon="4.05363">
        <ele>1116</ele>
        <time>2011-03-04T12:30:29Z</time>
      </trkpt>
      <trkpt lat="44.5989" lon="4.0538">
        <ele>1114</ele>
        <time>2011-03-04T12:30:40Z</time>
      </trkpt>
      <trkpt lat="44.59893" lon="4.05394">
        <ele>1111</ele>
        <time>2011-03-04T12:30:50Z</time>
      </trkpt>
      <trkpt lat="44.59897" lon="4.05409">
        <ele>1109</ele>
        <time>2011-03-04T12:31:01Z</time>
      </trkpt>
      <trkpt lat="44.59906" lon="4.05415">
        <ele>1107</ele>
        <time>2011-03-04T12:31:11Z</time>
      </trkpt>
      <trkpt lat="44.59915" lon="4.05421">
        <ele>1104</ele>
        <time>2011-03-04T12:31:24Z</time>
      </trkpt>
      <trkpt lat="44.59916" lon="4.05437">
        <ele>1100</ele>
        <time>2011-03-04T12:31:36Z</time>
      </trkpt>
      <trkpt lat="44.59915" lon="4.05453">
        <ele>1095</ele>
        <time>2011-03-04T12:31:48Z</time>
      </trkpt>
      <trkpt lat="44.59914" lon="4.0547">
        <ele>1094</ele>
        <time>2011-03-04T12:31:59Z</time>
      </trkpt>
      <trkpt lat="44.59914" lon="4.05485">
        <ele>1091</ele>
        <time>2011-03-04T12:32:09Z</time>
      </trkpt>
      <trkpt lat="44.59919" lon="4.05497">
        <ele>1091</ele>
        <time>2011-03-04T12:32:19Z</time>
      </trkpt>
      <trkpt lat="44.59927" lon="4.05508">
        <ele>1089</ele>
        <time>2011-03-04T12:32:31Z</time>
      </trkpt>
      <trkpt lat="44.59938" lon="4.05513">
        <ele>1089</ele>
        <time>2011-03-04T12:32:42Z</time>
      </trkpt>
      <trkpt lat="44.59948" lon="4.05515">
        <ele>1089</ele>
        <time>2011-03-04T12:32:54Z</time>
      </trkpt>
      <trkpt lat="44.59952" lon="4.05526">
        <ele>1089</ele>
        <time>2011-03-04T12:33:05Z</time>
      </trkpt>
      <trkpt lat="44.59949" lon="4.0554">
        <ele>1085</ele>
        <time>2011-03-04T12:33:17Z</time>
      </trkpt>
      <trkpt lat="44.59941" lon="4.0555">
        <ele>1079</ele>
        <time>2011-03-04T12:33:29Z</time>
      </trkpt>
      <trkpt lat="44.59932" lon="4.05558">
        <ele>1078</ele>
        <time>2011-03-04T12:33:39Z</time>
      </trkpt>
      <trkpt lat="44.59925" lon="4.05569">
        <ele>1078</ele>
        <time>2011-03-04T12:33:47Z</time>
      </trkpt>
      <trkpt lat="44.59917" lon="4.05586">
        <ele>1078</ele>
        <time>2011-03-04T12:34:00Z</time>
      </trkpt>
      <trkpt lat="44.59912" lon="4.05599">
        <ele>1078</ele>
        <time>2011-03-04T12:34:09Z</time>
      </trkpt>
      <trkpt lat="44.59909" lon="4.05599">
        <ele>1077</ele>
        <time>2011-03-04T12:34:27Z</time>
      </trkpt>
      <trkpt lat="44.59907" lon="4.05612">
        <ele>1077</ele>
        <time>2011-03-04T12:34:45Z</time>
      </trkpt>
      <trkpt lat="44.59903" lon="4.05625">
        <ele>1075</ele>
        <time>2011-03-04T12:34:56Z</time>
      </trkpt>
      <trkpt lat="44.59905" lon="4.05639">
        <ele>1073</ele>
        <time>2011-03-04T12:35:05Z</time>
      </trkpt>
      <trkpt lat="44.599" lon="4.05653">
        <ele>1072</ele>
        <time>2011-03-04T12:35:14Z</time>
      </trkpt>
      <trkpt lat="44.59903" lon="4.05665">
        <ele>1071</ele>
        <time>2011-03-04T12:35:21Z</time>
      </trkpt>
      <trkpt lat="44.59901" lon="4.0568">
        <ele>1067</ele>
        <time>2011-03-04T12:35:35Z</time>
      </trkpt>
      <trkpt lat="44.59901" lon="4.05696">
        <ele>1064</ele>
        <time>2011-03-04T12:35:46Z</time>
      </trkpt>
      <trkpt lat="44.59904" lon="4.05709">
        <ele>1063</ele>
        <time>2011-03-04T12:35:56Z</time>
      </trkpt>
      <trkpt lat="44.59913" lon="4.0572">
        <ele>1063</ele>
        <time>2011-03-04T12:36:06Z</time>
      </trkpt>
      <trkpt lat="44.59919" lon="4.0573">
        <ele>1063</ele>
        <time>2011-03-04T12:36:15Z</time>
      </trkpt>
      <trkpt lat="44.59928" lon="4.05741">
        <ele>1063</ele>
        <time>2011-03-04T12:36:24Z</time>
      </trkpt>
      <trkpt lat="44.59933" lon="4.05752">
        <ele>1063</ele>
        <time>2011-03-04T12:36:35Z</time>
      </trkpt>
      <trkpt lat="44.59939" lon="4.05763">
        <ele>1063</ele>
        <time>2011-03-04T12:36:41Z</time>
      </trkpt>
      <trkpt lat="44.59947" lon="4.05774">
        <ele>1059</ele>
        <time>2011-03-04T12:36:52Z</time>
      </trkpt>
      <trkpt lat="44.59955" lon="4.05786">
        <ele>1055</ele>
        <time>2011-03-04T12:37:01Z</time>
      </trkpt>
      <trkpt lat="44.59954" lon="4.05796">
        <ele>1051</ele>
        <time>2011-03-04T12:37:15Z</time>
      </trkpt>
      <trkpt lat="44.5995" lon="4.05802">
        <ele>1053</ele>
        <time>2011-03-04T12:37:33Z</time>
      </trkpt>
      <trkpt lat="44.59941" lon="4.05807">
        <ele>1059</ele>
        <time>2011-03-04T12:37:45Z</time>
      </trkpt>
      <trkpt lat="44.59941" lon="4.05818">
        <ele>1063</ele>
        <time>2011-03-04T12:38:04Z</time>
      </trkpt>
      <trkpt lat="44.59939" lon="4.05821">
        <ele>1074</ele>
        <time>2011-03-04T12:38:20Z</time>
      </trkpt>
      <trkpt lat="44.59941" lon="4.05818">
        <ele>1074</ele>
        <time>2011-03-04T12:38:35Z</time>
      </trkpt>
      <trkpt lat="44.59943" lon="4.05812">
        <ele>1062</ele>
        <time>2011-03-04T12:38:57Z</time>
      </trkpt>
      <trkpt lat="44.59944" lon="4.05815">
        <ele>1060</ele>
        <time>2011-03-04T12:39:17Z</time>
      </trkpt>
      <trkpt lat="44.59936" lon="4.05812">
        <ele>1057</ele>
        <time>2011-03-04T12:39:35Z</time>
      </trkpt>
      <trkpt lat="44.59936" lon="4.05815">
        <ele>1065</ele>
        <time>2011-03-04T12:39:58Z</time>
      </trkpt>
      <trkpt lat="44.59932" lon="4.05804">
        <ele>1072</ele>
        <time>2011-03-04T12:40:07Z</time>
      </trkpt>
      <trkpt lat="44.59924" lon="4.05798">
        <ele>1079</ele>
        <time>2011-03-04T12:40:14Z</time>
      </trkpt>
      <trkpt lat="44.59932" lon="4.05809">
        <ele>1077</ele>
        <time>2011-03-04T12:40:24Z</time>
      </trkpt>
      <trkpt lat="44.59937" lon="4.05818">
        <ele>1059</ele>
        <time>2011-03-04T12:40:42Z</time>
      </trkpt>
      <trkpt lat="44.59946" lon="4.05818">
        <ele>1054</ele>
        <time>2011-03-04T12:40:56Z</time>
      </trkpt>
      <trkpt lat="44.59949" lon="4.0583">
        <ele>1051</ele>
        <time>2011-03-04T12:41:10Z</time>
      </trkpt>
      <trkpt lat="44.59951" lon="4.05842">
        <ele>1048</ele>
        <time>2011-03-04T12:41:28Z</time>
      </trkpt>
      <trkpt lat="44.59947" lon="4.05858">
        <ele>1040</ele>
        <time>2011-03-04T12:41:41Z</time>
      </trkpt>
      <trkpt lat="44.59939" lon="4.05862">
        <ele>1040</ele>
        <time>2011-03-04T12:41:57Z</time>
      </trkpt>
      <trkpt lat="44.59932" lon="4.05854">
        <ele>1047</ele>
        <time>2011-03-04T12:42:21Z</time>
      </trkpt>
      <trkpt lat="44.59937" lon="4.05862">
        <ele>1048</ele>
        <time>2011-03-04T12:42:58Z</time>
      </trkpt>
      <trkpt lat="44.59931" lon="4.05873">
        <ele>1038</ele>
        <time>2011-03-04T12:43:16Z</time>
      </trkpt>
      <trkpt lat="44.59925" lon="4.05882">
        <ele>1036</ele>
        <time>2011-03-04T12:43:24Z</time>
      </trkpt>
      <trkpt lat="44.59917" lon="4.05897">
        <ele>1036</ele>
        <time>2011-03-04T12:43:33Z</time>
      </trkpt>
      <trkpt lat="44.59908" lon="4.05903">
        <ele>1036</ele>
        <time>2011-03-04T12:43:44Z</time>
      </trkpt>
      <trkpt lat="44.59901" lon="4.0591">
        <ele>1034</ele>
        <time>2011-03-04T12:43:55Z</time>
      </trkpt>
      <trkpt lat="44.59894" lon="4.05923">
        <ele>1032</ele>
        <time>2011-03-04T12:44:05Z</time>
      </trkpt>
      <trkpt lat="44.59892" lon="4.05938">
        <ele>1028</ele>
        <time>2011-03-04T12:44:16Z</time>
      </trkpt>
      <trkpt lat="44.59885" lon="4.05952">
        <ele>1027</ele>
        <time>2011-03-04T12:44:27Z</time>
      </trkpt>
      <trkpt lat="44.59877" lon="4.05963">
        <ele>1026</ele>
        <time>2011-03-04T12:44:41Z</time>
      </trkpt>
      <trkpt lat="44.5987" lon="4.05976">
        <ele>1026</ele>
        <time>2011-03-04T12:44:53Z</time>
      </trkpt>
      <trkpt lat="44.59863" lon="4.05988">
        <ele>1023</ele>
        <time>2011-03-04T12:45:03Z</time>
      </trkpt>
      <trkpt lat="44.59855" lon="4.05994">
        <ele>1023</ele>
        <time>2011-03-04T12:45:09Z</time>
      </trkpt>
      <trkpt lat="44.59846" lon="4.06002">
        <ele>1025</ele>
        <time>2011-03-04T12:45:15Z</time>
      </trkpt>
      <trkpt lat="44.59848" lon="4.06015">
        <ele>1026</ele>
        <time>2011-03-04T12:45:25Z</time>
      </trkpt>
      <trkpt lat="44.59839" lon="4.06029">
        <ele>1025</ele>
        <time>2011-03-04T12:45:34Z</time>
      </trkpt>
      <trkpt lat="44.59832" lon="4.06041">
        <ele>1025</ele>
        <time>2011-03-04T12:45:43Z</time>
      </trkpt>
      <trkpt lat="44.59829" lon="4.06056">
        <ele>1025</ele>
        <time>2011-03-04T12:45:53Z</time>
      </trkpt>
      <trkpt lat="44.59824" lon="4.06071">
        <ele>1025</ele>
        <time>2011-03-04T12:46:02Z</time>
      </trkpt>
      <trkpt lat="44.59825" lon="4.06084">
        <ele>1022</ele>
        <time>2011-03-04T12:46:11Z</time>
      </trkpt>
      <trkpt lat="44.59823" lon="4.061">
        <ele>1018</ele>
        <time>2011-03-04T12:46:20Z</time>
      </trkpt>
      <trkpt lat="44.59821" lon="4.06117">
        <ele>1018</ele>
        <time>2011-03-04T12:46:29Z</time>
      </trkpt>
      <trkpt lat="44.59822" lon="4.06134">
        <ele>1018</ele>
        <time>2011-03-04T12:46:38Z</time>
      </trkpt>
      <trkpt lat="44.5982" lon="4.0615">
        <ele>1018</ele>
        <time>2011-03-04T12:46:47Z</time>
      </trkpt>
      <trkpt lat="44.59818" lon="4.06165">
        <ele>1018</ele>
        <time>2011-03-04T12:46:56Z</time>
      </trkpt>
      <trkpt lat="44.59817" lon="4.06182">
        <ele>1018</ele>
        <time>2011-03-04T12:47:05Z</time>
      </trkpt>
      <trkpt lat="44.59816" lon="4.06198">
        <ele>1018</ele>
        <time>2011-03-04T12:47:14Z</time>
      </trkpt>
      <trkpt lat="44.59816" lon="4.06213">
        <ele>1018</ele>
        <time>2011-03-04T12:47:23Z</time>
      </trkpt>
      <trkpt lat="44.59817" lon="4.06229">
        <ele>1018</ele>
        <time>2011-03-04T12:47:32Z</time>
      </trkpt>
      <trkpt lat="44.59821" lon="4.06245">
        <ele>1018</ele>
        <time>2011-03-04T12:47:41Z</time>
      </trkpt>
      <trkpt lat="44.59823" lon="4.0626">
        <ele>1018</ele>
        <time>2011-03-04T12:47:50Z</time>
      </trkpt>
      <trkpt lat="44.59824" lon="4.06275">
        <ele>1017</ele>
        <time>2011-03-04T12:47:59Z</time>
      </trkpt>
      <trkpt lat="44.59826" lon="4.06289">
        <ele>1015</ele>
        <time>2011-03-04T12:48:08Z</time>
      </trkpt>
      <trkpt lat="44.59829" lon="4.06303">
        <ele>1013</ele>
        <time>2011-03-04T12:48:17Z</time>
      </trkpt>
      <trkpt lat="44.5983" lon="4.06319">
        <ele>1012</ele>
        <time>2011-03-04T12:48:26Z</time>
      </trkpt>
      <trkpt lat="44.59833" lon="4.06334">
        <ele>1011</ele>
        <time>2011-03-04T12:48:35Z</time>
      </trkpt>
      <trkpt lat="44.59835" lon="4.06349">
        <ele>1010</ele>
        <time>2011-03-04T12:48:44Z</time>
      </trkpt>
      <trkpt lat="44.59839" lon="4.06365">
        <ele>1009</ele>
        <time>2011-03-04T12:48:53Z</time>
      </trkpt>
      <trkpt lat="44.59841" lon="4.0638">
        <ele>1009</ele>
        <time>2011-03-04T12:49:02Z</time>
      </trkpt>
      <trkpt lat="44.59843" lon="4.06395">
        <ele>1009</ele>
        <time>2011-03-04T12:49:11Z</time>
      </trkpt>
      <trkpt lat="44.59847" lon="4.06409">
        <ele>1008</ele>
        <time>2011-03-04T12:49:20Z</time>
      </trkpt>
      <trkpt lat="44.5985" lon="4.06425">
        <ele>1008</ele>
        <time>2011-03-04T12:49:31Z</time>
      </trkpt>
      <trkpt lat="44.59853" lon="4.06439">
        <ele>1008</ele>
        <time>2011-03-04T12:49:40Z</time>
      </trkpt>
      <trkpt lat="44.59856" lon="4.06451">
        <ele>1008</ele>
        <time>2011-03-04T12:49:47Z</time>
      </trkpt>
      <trkpt lat="44.59859" lon="4.06467">
        <ele>1008</ele>
        <time>2011-03-04T12:49:57Z</time>
      </trkpt>
      <trkpt lat="44.59862" lon="4.06484">
        <ele>1008</ele>
        <time>2011-03-04T12:50:07Z</time>
      </trkpt>
      <trkpt lat="44.59872" lon="4.06489">
        <ele>1005</ele>
        <time>2011-03-04T12:50:18Z</time>
      </trkpt>
      <trkpt lat="44.59883" lon="4.06491">
        <ele>1004</ele>
        <time>2011-03-04T12:50:29Z</time>
      </trkpt>
      <trkpt lat="44.59886" lon="4.06505">
        <ele>1003</ele>
        <time>2011-03-04T12:50:39Z</time>
      </trkpt>
      <trkpt lat="44.59883" lon="4.06518">
        <ele>1003</ele>
        <time>2011-03-04T12:50:48Z</time>
      </trkpt>
      <trkpt lat="44.59878" lon="4.0653">
        <ele>1003</ele>
        <time>2011-03-04T12:51:08Z</time>
      </trkpt>
      <trkpt lat="44.59872" lon="4.06543">
        <ele>1003</ele>
        <time>2011-03-04T12:51:17Z</time>
      </trkpt>
      <trkpt lat="44.59868" lon="4.06558">
        <ele>1002</ele>
        <time>2011-03-04T12:51:26Z</time>
      </trkpt>
      <trkpt lat="44.59868" lon="4.06574">
        <ele>999</ele>
        <time>2011-03-04T12:51:35Z</time>
      </trkpt>
      <trkpt lat="44.59871" lon="4.06591">
        <ele>997</ele>
        <time>2011-03-04T12:51:44Z</time>
      </trkpt>
      <trkpt lat="44.59871" lon="4.06608">
        <ele>997</ele>
        <time>2011-03-04T12:51:53Z</time>
      </trkpt>
      <trkpt lat="44.59871" lon="4.06624">
        <ele>995</ele>
        <time>2011-03-04T12:52:02Z</time>
      </trkpt>
      <trkpt lat="44.59872" lon="4.06641">
        <ele>994</ele>
        <time>2011-03-04T12:52:11Z</time>
      </trkpt>
      <trkpt lat="44.59872" lon="4.06658">
        <ele>993</ele>
        <time>2011-03-04T12:52:20Z</time>
      </trkpt>
      <trkpt lat="44.59872" lon="4.06675">
        <ele>992</ele>
        <time>2011-03-04T12:52:29Z</time>
      </trkpt>
      <trkpt lat="44.59874" lon="4.06691">
        <ele>992</ele>
        <time>2011-03-04T12:52:38Z</time>
      </trkpt>
      <trkpt lat="44.59879" lon="4.06706">
        <ele>992</ele>
        <time>2011-03-04T12:52:47Z</time>
      </trkpt>
      <trkpt lat="44.59883" lon="4.06721">
        <ele>991</ele>
        <time>2011-03-04T12:52:56Z</time>
      </trkpt>
      <trkpt lat="44.59889" lon="4.06735">
        <ele>990</ele>
        <time>2011-03-04T12:53:05Z</time>
      </trkpt>
      <trkpt lat="44.59897" lon="4.06749">
        <ele>990</ele>
        <time>2011-03-04T12:53:16Z</time>
      </trkpt>
      <trkpt lat="44.59904" lon="4.06764">
        <ele>989</ele>
        <time>2011-03-04T12:53:26Z</time>
      </trkpt>
      <trkpt lat="44.59909" lon="4.06779">
        <ele>988</ele>
        <time>2011-03-04T12:53:35Z</time>
      </trkpt>
      <trkpt lat="44.59914" lon="4.06792">
        <ele>987</ele>
        <time>2011-03-04T12:53:44Z</time>
      </trkpt>
      <trkpt lat="44.59923" lon="4.06807">
        <ele>987</ele>
        <time>2011-03-04T12:53:54Z</time>
      </trkpt>
      <trkpt lat="44.59933" lon="4.06816">
        <ele>985</ele>
        <time>2011-03-04T12:54:06Z</time>
      </trkpt>
      <trkpt lat="44.59939" lon="4.06823">
        <ele>984</ele>
        <time>2011-03-04T12:54:19Z</time>
      </trkpt>
      <trkpt lat="44.59941" lon="4.06836">
        <ele>981</ele>
        <time>2011-03-04T12:54:45Z</time>
      </trkpt>
      <trkpt lat="44.59936" lon="4.06849">
        <ele>978</ele>
        <time>2011-03-04T12:54:55Z</time>
      </trkpt>
      <trkpt lat="44.59933" lon="4.06865">
        <ele>978</ele>
        <time>2011-03-04T12:55:04Z</time>
      </trkpt>
      <trkpt lat="44.59932" lon="4.06879">
        <ele>978</ele>
        <time>2011-03-04T12:55:13Z</time>
      </trkpt>
      <trkpt lat="44.5993" lon="4.06894">
        <ele>977</ele>
        <time>2011-03-04T12:55:22Z</time>
      </trkpt>
      <trkpt lat="44.59927" lon="4.0691">
        <ele>976</ele>
        <time>2011-03-04T12:55:31Z</time>
      </trkpt>
      <trkpt lat="44.59924" lon="4.06926">
        <ele>974</ele>
        <time>2011-03-04T12:55:40Z</time>
      </trkpt>
      <trkpt lat="44.59923" lon="4.06939">
        <ele>973</ele>
        <time>2011-03-04T12:55:47Z</time>
      </trkpt>
      <trkpt lat="44.59922" lon="4.06954">
        <ele>972</ele>
        <time>2011-03-04T12:55:56Z</time>
      </trkpt>
      <trkpt lat="44.5992" lon="4.06968">
        <ele>972</ele>
        <time>2011-03-04T12:56:05Z</time>
      </trkpt>
      <trkpt lat="44.59915" lon="4.06984">
        <ele>972</ele>
        <time>2011-03-04T12:56:15Z</time>
      </trkpt>
      <trkpt lat="44.59912" lon="4.07">
        <ele>969</ele>
        <time>2011-03-04T12:56:25Z</time>
      </trkpt>
      <trkpt lat="44.5991" lon="4.07016">
        <ele>968</ele>
        <time>2011-03-04T12:56:34Z</time>
      </trkpt>
      <trkpt lat="44.59911" lon="4.07033">
        <ele>968</ele>
        <time>2011-03-04T12:56:43Z</time>
      </trkpt>
      <trkpt lat="44.59911" lon="4.07048">
        <ele>968</ele>
        <time>2011-03-04T12:56:52Z</time>
      </trkpt>
      <trkpt lat="44.59916" lon="4.07062">
        <ele>968</ele>
        <time>2011-03-04T12:57:01Z</time>
      </trkpt>
      <trkpt lat="44.59923" lon="4.07073">
        <ele>968</ele>
        <time>2011-03-04T12:57:09Z</time>
      </trkpt>
      <trkpt lat="44.59931" lon="4.07083">
        <ele>967</ele>
        <time>2011-03-04T12:57:19Z</time>
      </trkpt>
      <trkpt lat="44.59931" lon="4.07095">
        <ele>967</ele>
        <time>2011-03-04T12:57:31Z</time>
      </trkpt>
      <trkpt lat="44.59925" lon="4.07109">
        <ele>967</ele>
        <time>2011-03-04T12:57:45Z</time>
      </trkpt>
      <trkpt lat="44.59919" lon="4.07125">
        <ele>966</ele>
        <time>2011-03-04T12:57:55Z</time>
      </trkpt>
      <trkpt lat="44.59917" lon="4.0714">
        <ele>963</ele>
        <time>2011-03-04T12:58:04Z</time>
      </trkpt>
      <trkpt lat="44.59914" lon="4.07156">
        <ele>960</ele>
        <time>2011-03-04T12:58:14Z</time>
      </trkpt>
      <trkpt lat="44.59911" lon="4.07171">
        <ele>960</ele>
        <time>2011-03-04T12:58:23Z</time>
      </trkpt>
      <trkpt lat="44.59906" lon="4.07187">
        <ele>960</ele>
        <time>2011-03-04T12:58:32Z</time>
      </trkpt>
      <trkpt lat="44.59903" lon="4.07203">
        <ele>960</ele>
        <time>2011-03-04T12:58:41Z</time>
      </trkpt>
      <trkpt lat="44.599" lon="4.07218">
        <ele>960</ele>
        <time>2011-03-04T12:58:50Z</time>
      </trkpt>
      <trkpt lat="44.59896" lon="4.0723">
        <ele>960</ele>
        <time>2011-03-04T12:58:56Z</time>
      </trkpt>
      <trkpt lat="44.5989" lon="4.07246">
        <ele>958</ele>
        <time>2011-03-04T12:59:05Z</time>
      </trkpt>
      <trkpt lat="44.59884" lon="4.07262">
        <ele>958</ele>
        <time>2011-03-04T12:59:14Z</time>
      </trkpt>
      <trkpt lat="44.5988" lon="4.07278">
        <ele>955</ele>
        <time>2011-03-04T12:59:24Z</time>
      </trkpt>
      <trkpt lat="44.59876" lon="4.07293">
        <ele>953</ele>
        <time>2011-03-04T12:59:34Z</time>
      </trkpt>
      <trkpt lat="44.59871" lon="4.07309">
        <ele>953</ele>
        <time>2011-03-04T12:59:43Z</time>
      </trkpt>
      <trkpt lat="44.59868" lon="4.07323">
        <ele>951</ele>
        <time>2011-03-04T12:59:53Z</time>
      </trkpt>
      <trkpt lat="44.59867" lon="4.07338">
        <ele>948</ele>
        <time>2011-03-04T13:00:04Z</time>
      </trkpt>
      <trkpt lat="44.59865" lon="4.07356">
        <ele>944</ele>
        <time>2011-03-04T13:00:13Z</time>
      </trkpt>
      <trkpt lat="44.59863" lon="4.07373">
        <ele>941</ele>
        <time>2011-03-04T13:00:22Z</time>
      </trkpt>
      <trkpt lat="44.5986" lon="4.07387">
        <ele>938</ele>
        <time>2011-03-04T13:00:31Z</time>
      </trkpt>
      <trkpt lat="44.59858" lon="4.07401">
        <ele>934</ele>
        <time>2011-03-04T13:00:41Z</time>
      </trkpt>
      <trkpt lat="44.59859" lon="4.07414">
        <ele>934</ele>
        <time>2011-03-04T13:00:50Z</time>
      </trkpt>
      <trkpt lat="44.59855" lon="4.07421">
        <ele>928</ele>
        <time>2011-03-04T13:01:09Z</time>
      </trkpt>
      <trkpt lat="44.59847" lon="4.07415">
        <ele>926</ele>
        <time>2011-03-04T13:01:20Z</time>
      </trkpt>
      <trkpt lat="44.59849" lon="4.07431">
        <ele>926</ele>
        <time>2011-03-04T13:01:34Z</time>
      </trkpt>
      <trkpt lat="44.5985" lon="4.07446">
        <ele>923</ele>
        <time>2011-03-04T13:02:05Z</time>
      </trkpt>
      <trkpt lat="44.59852" lon="4.07461">
        <ele>921</ele>
        <time>2011-03-04T13:02:26Z</time>
      </trkpt>
      <trkpt lat="44.59857" lon="4.07475">
        <ele>919</ele>
        <time>2011-03-04T13:02:38Z</time>
      </trkpt>
      <trkpt lat="44.59864" lon="4.07491">
        <ele>917</ele>
        <time>2011-03-04T13:02:47Z</time>
      </trkpt>
      <trkpt lat="44.59869" lon="4.07506">
        <ele>916</ele>
        <time>2011-03-04T13:02:56Z</time>
      </trkpt>
      <trkpt lat="44.59874" lon="4.07523">
        <ele>915</ele>
        <time>2011-03-04T13:03:05Z</time>
      </trkpt>
      <trkpt lat="44.5988" lon="4.07539">
        <ele>912</ele>
        <time>2011-03-04T13:03:14Z</time>
      </trkpt>
      <trkpt lat="44.59885" lon="4.07555">
        <ele>910</ele>
        <time>2011-03-04T13:03:23Z</time>
      </trkpt>
      <trkpt lat="44.59889" lon="4.07572">
        <ele>909</ele>
        <time>2011-03-04T13:03:32Z</time>
      </trkpt>
      <trkpt lat="44.59892" lon="4.07584">
        <ele>909</ele>
        <time>2011-03-04T13:03:38Z</time>
      </trkpt>
      <trkpt lat="44.59893" lon="4.07602">
        <ele>908</ele>
        <time>2011-03-04T13:03:47Z</time>
      </trkpt>
      <trkpt lat="44.59894" lon="4.07619">
        <ele>907</ele>
        <time>2011-03-04T13:03:56Z</time>
      </trkpt>
      <trkpt lat="44.59895" lon="4.07636">
        <ele>904</ele>
        <time>2011-03-04T13:04:05Z</time>
      </trkpt>
      <trkpt lat="44.59896" lon="4.07653">
        <ele>902</ele>
        <time>2011-03-04T13:04:14Z</time>
      </trkpt>
      <trkpt lat="44.59899" lon="4.07665">
        <ele>902</ele>
        <time>2011-03-04T13:04:20Z</time>
      </trkpt>
      <trkpt lat="44.59905" lon="4.0768">
        <ele>902</ele>
        <time>2011-03-04T13:04:29Z</time>
      </trkpt>
      <trkpt lat="44.59911" lon="4.07696">
        <ele>902</ele>
        <time>2011-03-04T13:04:38Z</time>
      </trkpt>
      <trkpt lat="44.59909" lon="4.07712">
        <ele>900</ele>
        <time>2011-03-04T13:04:47Z</time>
      </trkpt>
      <trkpt lat="44.59906" lon="4.07728">
        <ele>900</ele>
        <time>2011-03-04T13:04:56Z</time>
      </trkpt>
      <trkpt lat="44.59901" lon="4.0774">
        <ele>897</ele>
        <time>2011-03-04T13:05:10Z</time>
      </trkpt>
      <trkpt lat="44.59903" lon="4.07755">
        <ele>894</ele>
        <time>2011-03-04T13:05:19Z</time>
      </trkpt>
      <trkpt lat="44.59902" lon="4.07769">
        <ele>892</ele>
        <time>2011-03-04T13:05:28Z</time>
      </trkpt>
      <trkpt lat="44.59902" lon="4.07782">
        <ele>892</ele>
        <time>2011-03-04T13:05:34Z</time>
      </trkpt>
      <trkpt lat="44.59903" lon="4.07799">
        <ele>891</ele>
        <time>2011-03-04T13:05:48Z</time>
      </trkpt>
      <trkpt lat="44.59903" lon="4.07815">
        <ele>890</ele>
        <time>2011-03-04T13:05:57Z</time>
      </trkpt>
      <trkpt lat="44.59903" lon="4.07833">
        <ele>888</ele>
        <time>2011-03-04T13:06:06Z</time>
      </trkpt>
      <trkpt lat="44.59896" lon="4.07843">
        <ele>888</ele>
        <time>2011-03-04T13:06:28Z</time>
      </trkpt>
      <trkpt lat="44.59892" lon="4.07856">
        <ele>888</ele>
        <time>2011-03-04T13:06:41Z</time>
      </trkpt>
      <trkpt lat="44.59893" lon="4.07869">
        <ele>888</ele>
        <time>2011-03-04T13:07:01Z</time>
      </trkpt>
      <trkpt lat="44.59895" lon="4.07882">
        <ele>888</ele>
        <time>2011-03-04T13:07:10Z</time>
      </trkpt>
      <trkpt lat="44.59896" lon="4.07898">
        <ele>884</ele>
        <time>2011-03-04T13:07:21Z</time>
      </trkpt>
      <trkpt lat="44.59901" lon="4.07912">
        <ele>881</ele>
        <time>2011-03-04T13:07:37Z</time>
      </trkpt>
      <trkpt lat="44.59904" lon="4.07926">
        <ele>880</ele>
        <time>2011-03-04T13:07:46Z</time>
      </trkpt>
      <trkpt lat="44.59898" lon="4.07937">
        <ele>880</ele>
        <time>2011-03-04T13:07:55Z</time>
      </trkpt>
      <trkpt lat="44.59891" lon="4.07947">
        <ele>883</ele>
        <time>2011-03-04T13:08:14Z</time>
      </trkpt>
      <trkpt lat="44.59885" lon="4.07958">
        <ele>883</ele>
        <time>2011-03-04T13:08:25Z</time>
      </trkpt>
      <trkpt lat="44.5988" lon="4.07975">
        <ele>882</ele>
        <time>2011-03-04T13:08:35Z</time>
      </trkpt>
      <trkpt lat="44.59875" lon="4.07989">
        <ele>876</ele>
        <time>2011-03-04T13:08:45Z</time>
      </trkpt>
      <trkpt lat="44.59876" lon="4.08001">
        <ele>870</ele>
        <time>2011-03-04T13:09:02Z</time>
      </trkpt>
      <trkpt lat="44.59874" lon="4.08017">
        <ele>870</ele>
        <time>2011-03-04T13:09:11Z</time>
      </trkpt>
      <trkpt lat="44.59875" lon="4.08034">
        <ele>867</ele>
        <time>2011-03-04T13:09:20Z</time>
      </trkpt>
      <trkpt lat="44.5987" lon="4.08045">
        <ele>867</ele>
        <time>2011-03-04T13:09:26Z</time>
      </trkpt>
      <trkpt lat="44.59866" lon="4.08058">
        <ele>867</ele>
        <time>2011-03-04T13:09:32Z</time>
      </trkpt>
      <trkpt lat="44.5986" lon="4.08072">
        <ele>867</ele>
        <time>2011-03-04T13:09:41Z</time>
      </trkpt>
      <trkpt lat="44.59854" lon="4.08081">
        <ele>863</ele>
        <time>2011-03-04T13:10:08Z</time>
      </trkpt>
      <trkpt lat="44.59848" lon="4.08091">
        <ele>863</ele>
        <time>2011-03-04T13:10:32Z</time>
      </trkpt>
      <trkpt lat="44.59837" lon="4.08104">
        <ele>863</ele>
        <time>2011-03-04T13:10:42Z</time>
      </trkpt>
      <trkpt lat="44.59829" lon="4.08118">
        <ele>863</ele>
        <time>2011-03-04T13:10:51Z</time>
      </trkpt>
      <trkpt lat="44.59819" lon="4.08127">
        <ele>862</ele>
        <time>2011-03-04T13:11:01Z</time>
      </trkpt>
      <trkpt lat="44.59811" lon="4.08136">
        <ele>856</ele>
        <time>2011-03-04T13:11:11Z</time>
      </trkpt>
      <trkpt lat="44.59801" lon="4.08148">
        <ele>854</ele>
        <time>2011-03-04T13:11:21Z</time>
      </trkpt>
      <trkpt lat="44.59792" lon="4.08156">
        <ele>851</ele>
        <time>2011-03-04T13:11:31Z</time>
      </trkpt>
      <trkpt lat="44.59782" lon="4.08168">
        <ele>848</ele>
        <time>2011-03-04T13:11:42Z</time>
      </trkpt>
      <trkpt lat="44.59779" lon="4.08182">
        <ele>847</ele>
        <time>2011-03-04T13:11:51Z</time>
      </trkpt>
      <trkpt lat="44.59776" lon="4.08197">
        <ele>844</ele>
        <time>2011-03-04T13:12:17Z</time>
      </trkpt>
      <trkpt lat="44.59774" lon="4.08212">
        <ele>843</ele>
        <time>2011-03-04T13:12:27Z</time>
      </trkpt>
      <trkpt lat="44.59774" lon="4.08225">
        <ele>841</ele>
        <time>2011-03-04T13:12:36Z</time>
      </trkpt>
      <trkpt lat="44.59763" lon="4.0823">
        <ele>837</ele>
        <time>2011-03-04T13:12:54Z</time>
      </trkpt>
      <trkpt lat="44.59755" lon="4.08236">
        <ele>836</ele>
        <time>2011-03-04T13:13:01Z</time>
      </trkpt>
      <trkpt lat="44.59746" lon="4.08246">
        <ele>836</ele>
        <time>2011-03-04T13:13:10Z</time>
      </trkpt>
      <trkpt lat="44.59735" lon="4.08255">
        <ele>834</ele>
        <time>2011-03-04T13:13:20Z</time>
      </trkpt>
      <trkpt lat="44.59724" lon="4.08267">
        <ele>833</ele>
        <time>2011-03-04T13:13:31Z</time>
      </trkpt>
      <trkpt lat="44.59717" lon="4.08275">
        <ele>833</ele>
        <time>2011-03-04T13:13:39Z</time>
      </trkpt>
      <trkpt lat="44.59705" lon="4.08288">
        <ele>831</ele>
        <time>2011-03-04T13:13:50Z</time>
      </trkpt>
      <trkpt lat="44.59698" lon="4.08298">
        <ele>829</ele>
        <time>2011-03-04T13:13:58Z</time>
      </trkpt>
      <trkpt lat="44.5969" lon="4.08306">
        <ele>826</ele>
        <time>2011-03-04T13:14:06Z</time>
      </trkpt>
      <trkpt lat="44.59682" lon="4.08312">
        <ele>823</ele>
        <time>2011-03-04T13:14:14Z</time>
      </trkpt>
      <trkpt lat="44.59672" lon="4.08322">
        <ele>821</ele>
        <time>2011-03-04T13:14:30Z</time>
      </trkpt>
      <trkpt lat="44.59663" lon="4.08335">
        <ele>820</ele>
        <time>2011-03-04T13:14:41Z</time>
      </trkpt>
      <trkpt lat="44.59655" lon="4.08347">
        <ele>818</ele>
        <time>2011-03-04T13:14:55Z</time>
      </trkpt>
      <trkpt lat="44.59654" lon="4.08359">
        <ele>818</ele>
        <time>2011-03-04T13:15:08Z</time>
      </trkpt>
      <trkpt lat="44.59648" lon="4.08356">
        <ele>818</ele>
        <time>2011-03-04T13:15:56Z</time>
      </trkpt>
      <trkpt lat="44.59639" lon="4.08346">
        <ele>818</ele>
        <time>2011-03-04T13:16:04Z</time>
      </trkpt>
      <trkpt lat="44.59631" lon="4.08339">
        <ele>817</ele>
        <time>2011-03-04T13:16:12Z</time>
      </trkpt>
      <trkpt lat="44.59621" lon="4.08335">
        <ele>816</ele>
        <time>2011-03-04T13:16:19Z</time>
      </trkpt>
      <trkpt lat="44.59609" lon="4.08336">
        <ele>816</ele>
        <time>2011-03-04T13:16:29Z</time>
      </trkpt>
      <trkpt lat="44.59599" lon="4.08346">
        <ele>816</ele>
        <time>2011-03-04T13:16:40Z</time>
      </trkpt>
      <trkpt lat="44.59595" lon="4.08358">
        <ele>816</ele>
        <time>2011-03-04T13:16:47Z</time>
      </trkpt>
      <trkpt lat="44.59592" lon="4.08374">
        <ele>816</ele>
        <time>2011-03-04T13:16:56Z</time>
      </trkpt>
      <trkpt lat="44.59593" lon="4.08392">
        <ele>816</ele>
        <time>2011-03-04T13:17:06Z</time>
      </trkpt>
      <trkpt lat="44.59598" lon="4.08404">
        <ele>815</ele>
        <time>2011-03-04T13:17:14Z</time>
      </trkpt>
      <trkpt lat="44.59606" lon="4.08412">
        <ele>814</ele>
        <time>2011-03-04T13:17:22Z</time>
      </trkpt>
      <trkpt lat="44.59616" lon="4.08418">
        <ele>813</ele>
        <time>2011-03-04T13:17:43Z</time>
      </trkpt>
      <trkpt lat="44.59625" lon="4.08415">
        <ele>813</ele>
        <time>2011-03-04T13:17:57Z</time>
      </trkpt>
      <trkpt lat="44.59637" lon="4.08409">
        <ele>813</ele>
        <time>2011-03-04T13:18:27Z</time>
      </trkpt>
      <trkpt lat="44.59651" lon="4.08403">
        <ele>813</ele>
        <time>2011-03-04T13:18:38Z</time>
      </trkpt>
      <trkpt lat="44.59665" lon="4.08404">
        <ele>813</ele>
        <time>2011-03-04T13:18:48Z</time>
      </trkpt>
      <trkpt lat="44.59674" lon="4.08415">
        <ele>813</ele>
        <time>2011-03-04T13:18:58Z</time>
      </trkpt>
      <trkpt lat="44.59684" lon="4.08429">
        <ele>810</ele>
        <time>2011-03-04T13:19:09Z</time>
      </trkpt>
      <trkpt lat="44.59693" lon="4.08436">
        <ele>810</ele>
        <time>2011-03-04T13:19:15Z</time>
      </trkpt>
      <trkpt lat="44.59702" lon="4.08447">
        <ele>810</ele>
        <time>2011-03-04T13:19:24Z</time>
      </trkpt>
      <trkpt lat="44.59712" lon="4.08457">
        <ele>810</ele>
        <time>2011-03-04T13:19:33Z</time>
      </trkpt>
      <trkpt lat="44.59716" lon="4.08465">
        <ele>810</ele>
        <time>2011-03-04T13:19:44Z</time>
      </trkpt>
      <trkpt lat="44.59723" lon="4.08471">
        <ele>810</ele>
        <time>2011-03-04T13:20:01Z</time>
      </trkpt>
      <trkpt lat="44.59731" lon="4.08474">
        <ele>810</ele>
        <time>2011-03-04T13:20:07Z</time>
      </trkpt>
      <trkpt lat="44.5974" lon="4.08479">
        <ele>810</ele>
        <time>2011-03-04T13:20:17Z</time>
      </trkpt>
      <trkpt lat="44.59748" lon="4.08486">
        <ele>810</ele>
        <time>2011-03-04T13:20:25Z</time>
      </trkpt>
      <trkpt lat="44.59755" lon="4.08493">
        <ele>809</ele>
        <time>2011-03-04T13:20:32Z</time>
      </trkpt>
      <trkpt lat="44.59761" lon="4.08509">
        <ele>806</ele>
        <time>2011-03-04T13:20:43Z</time>
      </trkpt>
      <trkpt lat="44.5976" lon="4.08525">
        <ele>804</ele>
        <time>2011-03-04T13:20:52Z</time>
      </trkpt>
      <trkpt lat="44.5975" lon="4.08536">
        <ele>802</ele>
        <time>2011-03-04T13:21:01Z</time>
      </trkpt>
      <trkpt lat="44.59741" lon="4.08543">
        <ele>802</ele>
        <time>2011-03-04T13:21:11Z</time>
      </trkpt>
      <trkpt lat="44.59732" lon="4.08554">
        <ele>798</ele>
        <time>2011-03-04T13:21:22Z</time>
      </trkpt>
      <trkpt lat="44.59724" lon="4.08563">
        <ele>793</ele>
        <time>2011-03-04T13:21:30Z</time>
      </trkpt>
      <trkpt lat="44.59717" lon="4.08571">
        <ele>793</ele>
        <time>2011-03-04T13:21:37Z</time>
      </trkpt>
      <trkpt lat="44.59709" lon="4.08581">
        <ele>790</ele>
        <time>2011-03-04T13:21:45Z</time>
      </trkpt>
      <trkpt lat="44.59699" lon="4.08591">
        <ele>787</ele>
        <time>2011-03-04T13:21:55Z</time>
      </trkpt>
      <trkpt lat="44.59689" lon="4.08601">
        <ele>785</ele>
        <time>2011-03-04T13:22:04Z</time>
      </trkpt>
      <trkpt lat="44.59681" lon="4.08608">
        <ele>784</ele>
        <time>2011-03-04T13:22:10Z</time>
      </trkpt>
      <trkpt lat="44.59673" lon="4.08617">
        <ele>783</ele>
        <time>2011-03-04T13:22:22Z</time>
      </trkpt>
      <trkpt lat="44.59671" lon="4.08627">
        <ele>783</ele>
        <time>2011-03-04T13:22:34Z</time>
      </trkpt>
      <trkpt lat="44.59674" lon="4.08644">
        <ele>783</ele>
        <time>2011-03-04T13:22:46Z</time>
      </trkpt>
      <trkpt lat="44.59683" lon="4.08654">
        <ele>791</ele>
        <time>2011-03-04T13:22:57Z</time>
      </trkpt>
      <trkpt lat="44.59687" lon="4.08669">
        <ele>798</ele>
        <time>2011-03-04T13:23:06Z</time>
      </trkpt>
      <trkpt lat="44.59687" lon="4.08683">
        <ele>797</ele>
        <time>2011-03-04T13:23:17Z</time>
      </trkpt>
      <trkpt lat="44.59691" lon="4.08696">
        <ele>790</ele>
        <time>2011-03-04T13:23:28Z</time>
      </trkpt>
      <trkpt lat="44.59695" lon="4.0871">
        <ele>782</ele>
        <time>2011-03-04T13:23:38Z</time>
      </trkpt>
      <trkpt lat="44.597" lon="4.08715">
        <ele>760</ele>
        <time>2011-03-04T13:24:24Z</time>
      </trkpt>
      <trkpt lat="44.59713" lon="4.08716">
        <ele>770</ele>
        <time>2011-03-04T13:24:35Z</time>
      </trkpt>
      <trkpt lat="44.59716" lon="4.08723">
        <ele>772</ele>
        <time>2011-03-04T13:24:44Z</time>
      </trkpt>
      <trkpt lat="44.59708" lon="4.08729">
        <ele>772</ele>
        <time>2011-03-04T13:24:50Z</time>
      </trkpt>
      <trkpt lat="44.59698" lon="4.08736">
        <ele>772</ele>
        <time>2011-03-04T13:24:56Z</time>
      </trkpt>
      <trkpt lat="44.59689" lon="4.08744">
        <ele>772</ele>
        <time>2011-03-04T13:25:02Z</time>
      </trkpt>
      <trkpt lat="44.59682" lon="4.08752">
        <ele>774</ele>
        <time>2011-03-04T13:25:11Z</time>
      </trkpt>
      <trkpt lat="44.59685" lon="4.08746">
        <ele>772</ele>
        <time>2011-03-04T13:26:05Z</time>
      </trkpt>
      <trkpt lat="44.59682" lon="4.08744">
        <ele>772</ele>
        <time>2011-03-04T13:26:44Z</time>
      </trkpt>
      <trkpt lat="44.59676" lon="4.08749">
        <ele>772</ele>
        <time>2011-03-04T13:27:07Z</time>
      </trkpt>
      <trkpt lat="44.59672" lon="4.0874">
        <ele>775</ele>
        <time>2011-03-04T13:27:33Z</time>
      </trkpt>
      <trkpt lat="44.59679" lon="4.08743">
        <ele>775</ele>
        <time>2011-03-04T13:27:49Z</time>
      </trkpt>
      <trkpt lat="44.59671" lon="4.08746">
        <ele>776</ele>
        <time>2011-03-04T13:28:12Z</time>
      </trkpt>
      <trkpt lat="44.59666" lon="4.08761">
        <ele>776</ele>
        <time>2011-03-04T13:28:28Z</time>
      </trkpt>
      <trkpt lat="44.59655" lon="4.0877">
        <ele>776</ele>
        <time>2011-03-04T13:28:38Z</time>
      </trkpt>
      <trkpt lat="44.59644" lon="4.08778">
        <ele>770</ele>
        <time>2011-03-04T13:28:48Z</time>
      </trkpt>
      <trkpt lat="44.59634" lon="4.08784">
        <ele>770</ele>
        <time>2011-03-04T13:28:57Z</time>
      </trkpt>
      <trkpt lat="44.59628" lon="4.08794">
        <ele>770</ele>
        <time>2011-03-04T13:29:05Z</time>
      </trkpt>
      <trkpt lat="44.59618" lon="4.08803">
        <ele>770</ele>
        <time>2011-03-04T13:29:16Z</time>
      </trkpt>
      <trkpt lat="44.59609" lon="4.08808">
        <ele>770</ele>
        <time>2011-03-04T13:29:22Z</time>
      </trkpt>
      <trkpt lat="44.59598" lon="4.08815">
        <ele>770</ele>
        <time>2011-03-04T13:29:31Z</time>
      </trkpt>
      <trkpt lat="44.59589" lon="4.08815">
        <ele>772</ele>
        <time>2011-03-04T13:29:37Z</time>
      </trkpt>
      <trkpt lat="44.59577" lon="4.08813">
        <ele>772</ele>
        <time>2011-03-04T13:29:47Z</time>
      </trkpt>
      <trkpt lat="44.59565" lon="4.08808">
        <ele>772</ele>
        <time>2011-03-04T13:29:57Z</time>
      </trkpt>
      <trkpt lat="44.59554" lon="4.088">
        <ele>772</ele>
        <time>2011-03-04T13:30:07Z</time>
      </trkpt>
      <trkpt lat="44.59544" lon="4.08804">
        <ele>770</ele>
        <time>2011-03-04T13:30:18Z</time>
      </trkpt>
      <trkpt lat="44.59536" lon="4.0881">
        <ele>770</ele>
        <time>2011-03-04T13:30:26Z</time>
      </trkpt>
      <trkpt lat="44.59528" lon="4.0882">
        <ele>768</ele>
        <time>2011-03-04T13:30:37Z</time>
      </trkpt>
      <trkpt lat="44.5952" lon="4.08832">
        <ele>768</ele>
        <time>2011-03-04T13:30:47Z</time>
      </trkpt>
      <trkpt lat="44.59511" lon="4.08845">
        <ele>766</ele>
        <time>2011-03-04T13:30:57Z</time>
      </trkpt>
      <trkpt lat="44.59507" lon="4.08859">
        <ele>765</ele>
        <time>2011-03-04T13:31:07Z</time>
      </trkpt>
      <trkpt lat="44.59506" lon="4.08868">
        <ele>765</ele>
        <time>2011-03-04T13:31:28Z</time>
      </trkpt>
      <trkpt lat="44.59508" lon="4.08883">
        <ele>761</ele>
        <time>2011-03-04T13:31:37Z</time>
      </trkpt>
      <trkpt lat="44.59511" lon="4.08899">
        <ele>760</ele>
        <time>2011-03-04T13:31:47Z</time>
      </trkpt>
      <trkpt lat="44.59514" lon="4.08912">
        <ele>759</ele>
        <time>2011-03-04T13:31:56Z</time>
      </trkpt>
      <trkpt lat="44.59519" lon="4.08923">
        <ele>759</ele>
        <time>2011-03-04T13:32:03Z</time>
      </trkpt>
      <trkpt lat="44.59525" lon="4.08933">
        <ele>759</ele>
        <time>2011-03-04T13:32:09Z</time>
      </trkpt>
      <trkpt lat="44.59532" lon="4.08947">
        <ele>757</ele>
        <time>2011-03-04T13:32:18Z</time>
      </trkpt>
      <trkpt lat="44.59538" lon="4.08957">
        <ele>754</ele>
        <time>2011-03-04T13:32:25Z</time>
      </trkpt>
      <trkpt lat="44.59539" lon="4.08967">
        <ele>754</ele>
        <time>2011-03-04T13:32:34Z</time>
      </trkpt>
      <trkpt lat="44.59545" lon="4.08982">
        <ele>754</ele>
        <time>2011-03-04T13:32:44Z</time>
      </trkpt>
      <trkpt lat="44.59549" lon="4.08997">
        <ele>753</ele>
        <time>2011-03-04T13:32:54Z</time>
      </trkpt>
      <trkpt lat="44.59554" lon="4.09008">
        <ele>753</ele>
        <time>2011-03-04T13:33:38Z</time>
      </trkpt>
      <trkpt lat="44.59557" lon="4.09023">
        <ele>753</ele>
        <time>2011-03-04T13:33:58Z</time>
      </trkpt>
      <trkpt lat="44.59558" lon="4.09039">
        <ele>753</ele>
        <time>2011-03-04T13:34:08Z</time>
      </trkpt>
      <trkpt lat="44.5956" lon="4.09054">
        <ele>752</ele>
        <time>2011-03-04T13:34:17Z</time>
      </trkpt>
      <trkpt lat="44.59565" lon="4.09064">
        <ele>751</ele>
        <time>2011-03-04T13:34:30Z</time>
      </trkpt>
      <trkpt lat="44.59575" lon="4.09071">
        <ele>751</ele>
        <time>2011-03-04T13:34:41Z</time>
      </trkpt>
      <trkpt lat="44.59586" lon="4.0908">
        <ele>751</ele>
        <time>2011-03-04T13:34:52Z</time>
      </trkpt>
      <trkpt lat="44.59595" lon="4.09089">
        <ele>751</ele>
        <time>2011-03-04T13:35:00Z</time>
      </trkpt>
      <trkpt lat="44.59593" lon="4.09097">
        <ele>751</ele>
        <time>2011-03-04T13:35:18Z</time>
      </trkpt>
      <trkpt lat="44.596" lon="4.09092">
        <ele>758</ele>
        <time>2011-03-04T13:35:37Z</time>
      </trkpt>
      <trkpt lat="44.5961" lon="4.09093">
        <ele>750</ele>
        <time>2011-03-04T13:35:48Z</time>
      </trkpt>
      <trkpt lat="44.5961" lon="4.09101">
        <ele>749</ele>
        <time>2011-03-04T13:36:17Z</time>
      </trkpt>
      <trkpt lat="44.59603" lon="4.09116">
        <ele>747</ele>
        <time>2011-03-04T13:36:39Z</time>
      </trkpt>
      <trkpt lat="44.59597" lon="4.0913">
        <ele>745</ele>
        <time>2011-03-04T13:36:48Z</time>
      </trkpt>
      <trkpt lat="44.59596" lon="4.09146">
        <ele>745</ele>
        <time>2011-03-04T13:36:58Z</time>
      </trkpt>
      <trkpt lat="44.59599" lon="4.09159">
        <ele>744</ele>
        <time>2011-03-04T13:37:04Z</time>
      </trkpt>
      <trkpt lat="44.59602" lon="4.09171">
        <ele>742</ele>
        <time>2011-03-04T13:37:10Z</time>
      </trkpt>
      <trkpt lat="44.59605" lon="4.09188">
        <ele>737</ele>
        <time>2011-03-04T13:37:19Z</time>
      </trkpt>
      <trkpt lat="44.59607" lon="4.09204">
        <ele>736</ele>
        <time>2011-03-04T13:37:29Z</time>
      </trkpt>
      <trkpt lat="44.59602" lon="4.09219">
        <ele>735</ele>
        <time>2011-03-04T13:37:39Z</time>
      </trkpt>
      <trkpt lat="44.59599" lon="4.09235">
        <ele>734</ele>
        <time>2011-03-04T13:37:48Z</time>
      </trkpt>
      <trkpt lat="44.59591" lon="4.09243">
        <ele>733</ele>
        <time>2011-03-04T13:37:57Z</time>
      </trkpt>
      <trkpt lat="44.59586" lon="4.09256">
        <ele>734</ele>
        <time>2011-03-04T13:38:43Z</time>
      </trkpt>
      <trkpt lat="44.59586" lon="4.09271">
        <ele>734</ele>
        <time>2011-03-04T13:39:03Z</time>
      </trkpt>
      <trkpt lat="44.59581" lon="4.09285">
        <ele>734</ele>
        <time>2011-03-04T13:39:19Z</time>
      </trkpt>
      <trkpt lat="44.59577" lon="4.09299">
        <ele>734</ele>
        <time>2011-03-04T13:39:31Z</time>
      </trkpt>
      <trkpt lat="44.59574" lon="4.09314">
        <ele>735</ele>
        <time>2011-03-04T13:39:40Z</time>
      </trkpt>
      <trkpt lat="44.59571" lon="4.09329">
        <ele>736</ele>
        <time>2011-03-04T13:39:49Z</time>
      </trkpt>
      <trkpt lat="44.59568" lon="4.09344">
        <ele>737</ele>
        <time>2011-03-04T13:40:10Z</time>
      </trkpt>
      <trkpt lat="44.59567" lon="4.0936">
        <ele>737</ele>
        <time>2011-03-04T13:40:20Z</time>
      </trkpt>
      <trkpt lat="44.59566" lon="4.09375">
        <ele>738</ele>
        <time>2011-03-04T13:40:29Z</time>
      </trkpt>
      <trkpt lat="44.59563" lon="4.0939">
        <ele>738</ele>
        <time>2011-03-04T13:40:38Z</time>
      </trkpt>
      <trkpt lat="44.59557" lon="4.09405">
        <ele>738</ele>
        <time>2011-03-04T13:40:47Z</time>
      </trkpt>
      <trkpt lat="44.59553" lon="4.09421">
        <ele>739</ele>
        <time>2011-03-04T13:40:56Z</time>
      </trkpt>
      <trkpt lat="44.5955" lon="4.09436">
        <ele>739</ele>
        <time>2011-03-04T13:41:05Z</time>
      </trkpt>
      <trkpt lat="44.59546" lon="4.09451">
        <ele>740</ele>
        <time>2011-03-04T13:41:14Z</time>
      </trkpt>
      <trkpt lat="44.59543" lon="4.09465">
        <ele>740</ele>
        <time>2011-03-04T13:41:23Z</time>
      </trkpt>
      <trkpt lat="44.59542" lon="4.09481">
        <ele>740</ele>
        <time>2011-03-04T13:41:33Z</time>
      </trkpt>
      <trkpt lat="44.59545" lon="4.09494">
        <ele>741</ele>
        <time>2011-03-04T13:41:46Z</time>
      </trkpt>
      <trkpt lat="44.59545" lon="4.09509">
        <ele>741</ele>
        <time>2011-03-04T13:42:05Z</time>
      </trkpt>
      <trkpt lat="44.59542" lon="4.09525">
        <ele>741</ele>
        <time>2011-03-04T13:42:14Z</time>
      </trkpt>
      <trkpt lat="44.59538" lon="4.09541">
        <ele>741</ele>
        <time>2011-03-04T13:42:23Z</time>
      </trkpt>
      <trkpt lat="44.59533" lon="4.09552">
        <ele>741</ele>
        <time>2011-03-04T13:42:30Z</time>
      </trkpt>
      <trkpt lat="44.59526" lon="4.09562">
        <ele>741</ele>
        <time>2011-03-04T13:42:38Z</time>
      </trkpt>
      <trkpt lat="44.59518" lon="4.09575">
        <ele>741</ele>
        <time>2011-03-04T13:42:47Z</time>
      </trkpt>
      <trkpt lat="44.59512" lon="4.09589">
        <ele>741</ele>
        <time>2011-03-04T13:42:57Z</time>
      </trkpt>
      <trkpt lat="44.5951" lon="4.09604">
        <ele>739</ele>
        <time>2011-03-04T13:43:06Z</time>
      </trkpt>
      <trkpt lat="44.59507" lon="4.09622">
        <ele>739</ele>
        <time>2011-03-04T13:43:15Z</time>
      </trkpt>
      <trkpt lat="44.59504" lon="4.09639">
        <ele>739</ele>
        <time>2011-03-04T13:43:24Z</time>
      </trkpt>
      <trkpt lat="44.59503" lon="4.09655">
        <ele>739</ele>
        <time>2011-03-04T13:43:33Z</time>
      </trkpt>
      <trkpt lat="44.59502" lon="4.0967">
        <ele>739</ele>
        <time>2011-03-04T13:43:42Z</time>
      </trkpt>
      <trkpt lat="44.59502" lon="4.09684">
        <ele>739</ele>
        <time>2011-03-04T13:43:52Z</time>
      </trkpt>
      <trkpt lat="44.59502" lon="4.09701">
        <ele>739</ele>
        <time>2011-03-04T13:44:01Z</time>
      </trkpt>
      <trkpt lat="44.595" lon="4.09717">
        <ele>738</ele>
        <time>2011-03-04T13:44:10Z</time>
      </trkpt>
      <trkpt lat="44.59501" lon="4.09732">
        <ele>737</ele>
        <time>2011-03-04T13:44:19Z</time>
      </trkpt>
      <trkpt lat="44.59493" lon="4.09745">
        <ele>736</ele>
        <time>2011-03-04T13:44:28Z</time>
      </trkpt>
      <trkpt lat="44.59488" lon="4.0976">
        <ele>736</ele>
        <time>2011-03-04T13:44:37Z</time>
      </trkpt>
      <trkpt lat="44.59483" lon="4.09774">
        <ele>736</ele>
        <time>2011-03-04T13:44:46Z</time>
      </trkpt>
      <trkpt lat="44.59483" lon="4.09788">
        <ele>735</ele>
        <time>2011-03-04T13:44:55Z</time>
      </trkpt>
      <trkpt lat="44.59486" lon="4.09802">
        <ele>734</ele>
        <time>2011-03-04T13:45:04Z</time>
      </trkpt>
      <trkpt lat="44.59492" lon="4.09816">
        <ele>733</ele>
        <time>2011-03-04T13:45:14Z</time>
      </trkpt>
      <trkpt lat="44.59502" lon="4.09825">
        <ele>732</ele>
        <time>2011-03-04T13:45:24Z</time>
      </trkpt>
      <trkpt lat="44.59513" lon="4.09833">
        <ele>731</ele>
        <time>2011-03-04T13:45:34Z</time>
      </trkpt>
      <trkpt lat="44.5952" lon="4.09842">
        <ele>730</ele>
        <time>2011-03-04T13:45:42Z</time>
      </trkpt>
      <trkpt lat="44.59527" lon="4.09855">
        <ele>729</ele>
        <time>2011-03-04T13:45:51Z</time>
      </trkpt>
      <trkpt lat="44.59532" lon="4.09871">
        <ele>728</ele>
        <time>2011-03-04T13:46:00Z</time>
      </trkpt>
      <trkpt lat="44.59536" lon="4.09886">
        <ele>727</ele>
        <time>2011-03-04T13:46:09Z</time>
      </trkpt>
      <trkpt lat="44.59541" lon="4.09901">
        <ele>726</ele>
        <time>2011-03-04T13:46:18Z</time>
      </trkpt>
      <trkpt lat="44.5955" lon="4.09915">
        <ele>725</ele>
        <time>2011-03-04T13:46:28Z</time>
      </trkpt>
      <trkpt lat="44.5956" lon="4.09928">
        <ele>724</ele>
        <time>2011-03-04T13:46:39Z</time>
      </trkpt>
      <trkpt lat="44.5957" lon="4.09938">
        <ele>722</ele>
        <time>2011-03-04T13:46:48Z</time>
      </trkpt>
      <trkpt lat="44.59579" lon="4.09952">
        <ele>721</ele>
        <time>2011-03-04T13:46:58Z</time>
      </trkpt>
      <trkpt lat="44.59587" lon="4.09965">
        <ele>721</ele>
        <time>2011-03-04T13:47:07Z</time>
      </trkpt>
      <trkpt lat="44.59595" lon="4.09975">
        <ele>721</ele>
        <time>2011-03-04T13:47:15Z</time>
      </trkpt>
      <trkpt lat="44.59603" lon="4.09982">
        <ele>720</ele>
        <time>2011-03-04T13:47:22Z</time>
      </trkpt>
      <trkpt lat="44.59613" lon="4.09986">
        <ele>719</ele>
        <time>2011-03-04T13:47:31Z</time>
      </trkpt>
      <trkpt lat="44.59624" lon="4.09987">
        <ele>718</ele>
        <time>2011-03-04T13:47:40Z</time>
      </trkpt>
      <trkpt lat="44.59635" lon="4.09984">
        <ele>718</ele>
        <time>2011-03-04T13:47:49Z</time>
      </trkpt>
      <trkpt lat="44.59647" lon="4.09981">
        <ele>717</ele>
        <time>2011-03-04T13:47:59Z</time>
      </trkpt>
      <trkpt lat="44.59658" lon="4.09986">
        <ele>717</ele>
        <time>2011-03-04T13:48:09Z</time>
      </trkpt>
      <trkpt lat="44.59664" lon="4.10002">
        <ele>717</ele>
        <time>2011-03-04T13:48:18Z</time>
      </trkpt>
      <trkpt lat="44.59663" lon="4.10017">
        <ele>717</ele>
        <time>2011-03-04T13:48:27Z</time>
      </trkpt>
      <trkpt lat="44.59659" lon="4.1003">
        <ele>717</ele>
        <time>2011-03-04T13:48:36Z</time>
      </trkpt>
      <trkpt lat="44.59651" lon="4.1004">
        <ele>715</ele>
        <time>2011-03-04T13:48:48Z</time>
      </trkpt>
      <trkpt lat="44.59653" lon="4.10054">
        <ele>715</ele>
        <time>2011-03-04T13:48:57Z</time>
      </trkpt>
      <trkpt lat="44.59657" lon="4.10066">
        <ele>715</ele>
        <time>2011-03-04T13:49:12Z</time>
      </trkpt>
      <trkpt lat="44.59661" lon="4.10077">
        <ele>722</ele>
        <time>2011-03-04T13:50:04Z</time>
      </trkpt>
      <trkpt lat="44.5967" lon="4.10079">
        <ele>722</ele>
        <time>2011-03-04T13:50:30Z</time>
      </trkpt>
      <trkpt lat="44.59679" lon="4.10081">
        <ele>722</ele>
        <time>2011-03-04T13:50:41Z</time>
      </trkpt>
      <trkpt lat="44.59689" lon="4.10085">
        <ele>722</ele>
        <time>2011-03-04T13:50:52Z</time>
      </trkpt>
      <trkpt lat="44.59692" lon="4.10096">
        <ele>722</ele>
        <time>2011-03-04T13:51:04Z</time>
      </trkpt>
      <trkpt lat="44.59692" lon="4.10107">
        <ele>723</ele>
        <time>2011-03-04T13:51:29Z</time>
      </trkpt>
      <trkpt lat="44.59689" lon="4.1012">
        <ele>725</ele>
        <time>2011-03-04T13:51:43Z</time>
      </trkpt>
      <trkpt lat="44.59682" lon="4.10133">
        <ele>725</ele>
        <time>2011-03-04T13:51:55Z</time>
      </trkpt>
      <trkpt lat="44.59679" lon="4.10145">
        <ele>725</ele>
        <time>2011-03-04T13:52:06Z</time>
      </trkpt>
      <trkpt lat="44.59677" lon="4.10158">
        <ele>726</ele>
        <time>2011-03-04T13:52:18Z</time>
      </trkpt>
      <trkpt lat="44.59679" lon="4.1017">
        <ele>726</ele>
        <time>2011-03-04T13:52:40Z</time>
      </trkpt>
      <trkpt lat="44.59682" lon="4.10185">
        <ele>726</ele>
        <time>2011-03-04T13:52:51Z</time>
      </trkpt>
      <trkpt lat="44.59687" lon="4.10199">
        <ele>726</ele>
        <time>2011-03-04T13:53:02Z</time>
      </trkpt>
      <trkpt lat="44.59695" lon="4.10211">
        <ele>726</ele>
        <time>2011-03-04T13:53:13Z</time>
      </trkpt>
      <trkpt lat="44.59701" lon="4.10224">
        <ele>726</ele>
        <time>2011-03-04T13:53:23Z</time>
      </trkpt>
      <trkpt lat="44.59708" lon="4.10234">
        <ele>726</ele>
        <time>2011-03-04T13:53:33Z</time>
      </trkpt>
      <trkpt lat="44.59714" lon="4.10248">
        <ele>731</ele>
        <time>2011-03-04T13:53:48Z</time>
      </trkpt>
      <trkpt lat="44.59706" lon="4.10254">
        <ele>731</ele>
        <time>2011-03-04T13:54:02Z</time>
      </trkpt>
      <trkpt lat="44.59712" lon="4.10253">
        <ele>733</ele>
        <time>2011-03-04T13:54:28Z</time>
      </trkpt>
      <trkpt lat="44.59713" lon="4.10255">
        <ele>735</ele>
        <time>2011-03-04T13:55:14Z</time>
      </trkpt>
      <trkpt lat="44.59706" lon="4.10259">
        <ele>735</ele>
        <time>2011-03-04T13:55:33Z</time>
      </trkpt>
      <trkpt lat="44.59707" lon="4.10272">
        <ele>735</ele>
        <time>2011-03-04T13:55:47Z</time>
      </trkpt>
      <trkpt lat="44.59701" lon="4.10284">
        <ele>735</ele>
        <time>2011-03-04T13:55:59Z</time>
      </trkpt>
      <trkpt lat="44.59697" lon="4.10295">
        <ele>735</ele>
        <time>2011-03-04T13:56:11Z</time>
      </trkpt>
      <trkpt lat="44.59694" lon="4.10308">
        <ele>735</ele>
        <time>2011-03-04T13:56:24Z</time>
      </trkpt>
      <trkpt lat="44.59689" lon="4.10322">
        <ele>737</ele>
        <time>2011-03-04T13:56:37Z</time>
      </trkpt>
      <trkpt lat="44.59685" lon="4.10334">
        <ele>739</ele>
        <time>2011-03-04T13:56:50Z</time>
      </trkpt>
      <trkpt lat="44.59681" lon="4.10346">
        <ele>741</ele>
        <time>2011-03-04T13:57:00Z</time>
      </trkpt>
      <trkpt lat="44.5968" lon="4.10361">
        <ele>746</ele>
        <time>2011-03-04T13:57:12Z</time>
      </trkpt>
      <trkpt lat="44.59681" lon="4.10376">
        <ele>753</ele>
        <time>2011-03-04T13:57:35Z</time>
      </trkpt>
      <trkpt lat="44.59687" lon="4.10387">
        <ele>753</ele>
        <time>2011-03-04T13:57:47Z</time>
      </trkpt>
      <trkpt lat="44.59691" lon="4.10397">
        <ele>751</ele>
        <time>2011-03-04T13:57:57Z</time>
      </trkpt>
      <trkpt lat="44.59698" lon="4.10405">
        <ele>751</ele>
        <time>2011-03-04T13:58:31Z</time>
      </trkpt>
      <trkpt lat="44.59706" lon="4.10415">
        <ele>749</ele>
        <time>2011-03-04T13:58:45Z</time>
      </trkpt>
      <trkpt lat="44.59708" lon="4.10414">
        <ele>741</ele>
        <time>2011-03-04T13:59:08Z</time>
      </trkpt>
      <trkpt lat="44.59714" lon="4.10428">
        <ele>740</ele>
        <time>2011-03-04T13:59:17Z</time>
      </trkpt>
      <trkpt lat="44.59715" lon="4.10439">
        <ele>753</ele>
        <time>2011-03-04T13:59:38Z</time>
      </trkpt>
      <trkpt lat="44.59723" lon="4.10449">
        <ele>753</ele>
        <time>2011-03-04T13:59:47Z</time>
      </trkpt>
      <trkpt lat="44.59726" lon="4.10465">
        <ele>753</ele>
        <time>2011-03-04T13:59:58Z</time>
      </trkpt>
      <trkpt lat="44.59734" lon="4.10462">
        <ele>753</ele>
        <time>2011-03-04T14:00:24Z</time>
      </trkpt>
      <trkpt lat="44.59742" lon="4.10462">
        <ele>753</ele>
        <time>2011-03-04T14:00:51Z</time>
      </trkpt>
      <trkpt lat="44.59744" lon="4.10467">
        <ele>753</ele>
        <time>2011-03-04T14:01:15Z</time>
      </trkpt>
      <trkpt lat="44.5975" lon="4.10478">
        <ele>753</ele>
        <time>2011-03-04T14:01:32Z</time>
      </trkpt>
      <trkpt lat="44.59755" lon="4.10488">
        <ele>754</ele>
        <time>2011-03-04T14:01:44Z</time>
      </trkpt>
      <trkpt lat="44.59763" lon="4.10499">
        <ele>760</ele>
        <time>2011-03-04T14:01:57Z</time>
      </trkpt>
      <trkpt lat="44.59768" lon="4.1051">
        <ele>762</ele>
        <time>2011-03-04T14:02:09Z</time>
      </trkpt>
      <trkpt lat="44.59774" lon="4.1052">
        <ele>763</ele>
        <time>2011-03-04T14:02:22Z</time>
      </trkpt>
      <trkpt lat="44.59771" lon="4.10529">
        <ele>776</ele>
        <time>2011-03-04T14:02:49Z</time>
      </trkpt>
      <trkpt lat="44.59778" lon="4.1054">
        <ele>776</ele>
        <time>2011-03-04T14:03:08Z</time>
      </trkpt>
      <trkpt lat="44.59779" lon="4.10552">
        <ele>781</ele>
        <time>2011-03-04T14:03:24Z</time>
      </trkpt>
      <trkpt lat="44.59782" lon="4.10567">
        <ele>782</ele>
        <time>2011-03-04T14:03:39Z</time>
      </trkpt>
      <trkpt lat="44.59787" lon="4.10574">
        <ele>782</ele>
        <time>2011-03-04T14:03:59Z</time>
      </trkpt>
      <trkpt lat="44.59793" lon="4.10561">
        <ele>780</ele>
        <time>2011-03-04T14:04:14Z</time>
      </trkpt>
      <trkpt lat="44.59797" lon="4.10567">
        <ele>787</ele>
        <time>2011-03-04T14:05:05Z</time>
      </trkpt>
      <trkpt lat="44.59801" lon="4.10579">
        <ele>787</ele>
        <time>2011-03-04T14:05:21Z</time>
      </trkpt>
      <trkpt lat="44.59803" lon="4.10586">
        <ele>793</ele>
        <time>2011-03-04T14:06:14Z</time>
      </trkpt>
      <trkpt lat="44.59808" lon="4.10597">
        <ele>793</ele>
        <time>2011-03-04T14:06:36Z</time>
      </trkpt>
      <trkpt lat="44.59818" lon="4.10605">
        <ele>793</ele>
        <time>2011-03-04T14:07:07Z</time>
      </trkpt>
      <trkpt lat="44.59826" lon="4.10614">
        <ele>793</ele>
        <time>2011-03-04T14:07:18Z</time>
      </trkpt>
      <trkpt lat="44.59836" lon="4.10625">
        <ele>794</ele>
        <time>2011-03-04T14:07:32Z</time>
      </trkpt>
      <trkpt lat="44.59845" lon="4.10632">
        <ele>795</ele>
        <time>2011-03-04T14:07:51Z</time>
      </trkpt>
      <trkpt lat="44.59854" lon="4.10633">
        <ele>795</ele>
        <time>2011-03-04T14:08:03Z</time>
      </trkpt>
      <trkpt lat="44.59864" lon="4.10634">
        <ele>795</ele>
        <time>2011-03-04T14:08:12Z</time>
      </trkpt>
      <trkpt lat="44.59874" lon="4.10638">
        <ele>795</ele>
        <time>2011-03-04T14:08:23Z</time>
      </trkpt>
      <trkpt lat="44.59885" lon="4.10643">
        <ele>795</ele>
        <time>2011-03-04T14:08:35Z</time>
      </trkpt>
      <trkpt lat="44.59896" lon="4.10645">
        <ele>798</ele>
        <time>2011-03-04T14:08:50Z</time>
      </trkpt>
      <trkpt lat="44.59905" lon="4.10646">
        <ele>799</ele>
        <time>2011-03-04T14:09:02Z</time>
      </trkpt>
      <trkpt lat="44.59916" lon="4.10648">
        <ele>805</ele>
        <time>2011-03-04T14:09:21Z</time>
      </trkpt>
      <trkpt lat="44.59926" lon="4.10645">
        <ele>806</ele>
        <time>2011-03-04T14:09:33Z</time>
      </trkpt>
      <trkpt lat="44.59937" lon="4.10641">
        <ele>807</ele>
        <time>2011-03-04T14:09:45Z</time>
      </trkpt>
      <trkpt lat="44.59946" lon="4.10639">
        <ele>809</ele>
        <time>2011-03-04T14:09:57Z</time>
      </trkpt>
      <trkpt lat="44.59953" lon="4.1063">
        <ele>816</ele>
        <time>2011-03-04T14:10:25Z</time>
      </trkpt>
      <trkpt lat="44.59963" lon="4.10624">
        <ele>820</ele>
        <time>2011-03-04T14:10:37Z</time>
      </trkpt>
      <trkpt lat="44.59971" lon="4.10616">
        <ele>822</ele>
        <time>2011-03-04T14:10:48Z</time>
      </trkpt>
      <trkpt lat="44.59975" lon="4.10615">
        <ele>825</ele>
        <time>2011-03-04T14:11:16Z</time>
      </trkpt>
      <trkpt lat="44.59974" lon="4.10625">
        <ele>825</ele>
        <time>2011-03-04T14:12:46Z</time>
      </trkpt>
      <trkpt lat="44.59975" lon="4.10636">
        <ele>819</ele>
        <time>2011-03-04T14:13:17Z</time>
      </trkpt>
      <trkpt lat="44.59985" lon="4.10642">
        <ele>815</ele>
        <time>2011-03-04T14:13:36Z</time>
      </trkpt>
      <trkpt lat="44.59992" lon="4.10647">
        <ele>811</ele>
        <time>2011-03-04T14:13:49Z</time>
      </trkpt>
      <trkpt lat="44.59998" lon="4.10659">
        <ele>806</ele>
        <time>2011-03-04T14:14:04Z</time>
      </trkpt>
      <trkpt lat="44.60002" lon="4.10668">
        <ele>802</ele>
        <time>2011-03-04T14:14:33Z</time>
      </trkpt>
      <trkpt lat="44.60005" lon="4.10678">
        <ele>795</ele>
        <time>2011-03-04T14:15:08Z</time>
      </trkpt>
      <trkpt lat="44.60007" lon="4.1069">
        <ele>795</ele>
        <time>2011-03-04T14:15:29Z</time>
      </trkpt>
      <trkpt lat="44.60012" lon="4.10698">
        <ele>794</ele>
        <time>2011-03-04T14:15:56Z</time>
      </trkpt>
      <trkpt lat="44.6001" lon="4.10709">
        <ele>792</ele>
        <time>2011-03-04T14:16:22Z</time>
      </trkpt>
      <trkpt lat="44.60003" lon="4.10719">
        <ele>790</ele>
        <time>2011-03-04T14:16:49Z</time>
      </trkpt>
      <trkpt lat="44.60003" lon="4.10725">
        <ele>782</ele>
        <time>2011-03-04T14:17:15Z</time>
      </trkpt>
      <trkpt lat="44.60009" lon="4.10733">
        <ele>775</ele>
        <time>2011-03-04T14:17:31Z</time>
      </trkpt>
      <trkpt lat="44.60013" lon="4.10742">
        <ele>772</ele>
        <time>2011-03-04T14:17:57Z</time>
      </trkpt>
      <trkpt lat="44.60008" lon="4.10754">
        <ele>770</ele>
        <time>2011-03-04T14:18:17Z</time>
      </trkpt>
      <trkpt lat="44.60009" lon="4.10764">
        <ele>765</ele>
        <time>2011-03-04T14:18:49Z</time>
      </trkpt>
      <trkpt lat="44.60012" lon="4.1077">
        <ele>763</ele>
        <time>2011-03-04T14:19:40Z</time>
      </trkpt>
      <trkpt lat="44.60017" lon="4.1077">
        <ele>765</ele>
        <time>2011-03-04T14:20:06Z</time>
      </trkpt>
      <trkpt lat="44.60018" lon="4.10783">
        <ele>766</ele>
        <time>2011-03-04T14:20:44Z</time>
      </trkpt>
      <trkpt lat="44.60012" lon="4.10794">
        <ele>766</ele>
        <time>2011-03-04T14:20:55Z</time>
      </trkpt>
      <trkpt lat="44.60009" lon="4.1081">
        <ele>766</ele>
        <time>2011-03-04T14:21:13Z</time>
      </trkpt>
      <trkpt lat="44.60008" lon="4.10823">
        <ele>766</ele>
        <time>2011-03-04T14:21:26Z</time>
      </trkpt>
      <trkpt lat="44.60008" lon="4.10836">
        <ele>761</ele>
        <time>2011-03-04T14:21:36Z</time>
      </trkpt>
      <trkpt lat="44.60005" lon="4.10851">
        <ele>761</ele>
        <time>2011-03-04T14:21:54Z</time>
      </trkpt>
      <trkpt lat="44.60002" lon="4.10868">
        <ele>760</ele>
        <time>2011-03-04T14:22:04Z</time>
      </trkpt>
      <trkpt lat="44.59994" lon="4.10878">
        <ele>760</ele>
        <time>2011-03-04T14:22:20Z</time>
      </trkpt>
      <trkpt lat="44.59983" lon="4.10891">
        <ele>760</ele>
        <time>2011-03-04T14:22:30Z</time>
      </trkpt>
      <trkpt lat="44.59977" lon="4.10901">
        <ele>757</ele>
        <time>2011-03-04T14:22:48Z</time>
      </trkpt>
      <trkpt lat="44.59973" lon="4.10915">
        <ele>756</ele>
        <time>2011-03-04T14:22:57Z</time>
      </trkpt>
      <trkpt lat="44.59969" lon="4.10929">
        <ele>756</ele>
        <time>2011-03-04T14:23:06Z</time>
      </trkpt>
      <trkpt lat="44.59964" lon="4.10941">
        <ele>756</ele>
        <time>2011-03-04T14:23:13Z</time>
      </trkpt>
      <trkpt lat="44.59959" lon="4.10953">
        <ele>756</ele>
        <time>2011-03-04T14:23:19Z</time>
      </trkpt>
      <trkpt lat="44.59953" lon="4.10964">
        <ele>759</ele>
        <time>2011-03-04T14:23:28Z</time>
      </trkpt>
      <trkpt lat="44.59945" lon="4.10976">
        <ele>759</ele>
        <time>2011-03-04T14:23:40Z</time>
      </trkpt>
      <trkpt lat="44.59941" lon="4.10987">
        <ele>759</ele>
        <time>2011-03-04T14:23:55Z</time>
      </trkpt>
      <trkpt lat="44.59933" lon="4.10997">
        <ele>755</ele>
        <time>2011-03-04T14:24:12Z</time>
      </trkpt>
      <trkpt lat="44.59922" lon="4.11003">
        <ele>755</ele>
        <time>2011-03-04T14:24:23Z</time>
      </trkpt>
      <trkpt lat="44.59912" lon="4.11007">
        <ele>754</ele>
        <time>2011-03-04T14:24:34Z</time>
      </trkpt>
      <trkpt lat="44.59903" lon="4.11021">
        <ele>754</ele>
        <time>2011-03-04T14:25:14Z</time>
      </trkpt>
      <trkpt lat="44.59894" lon="4.11022">
        <ele>755</ele>
        <time>2011-03-04T14:25:34Z</time>
      </trkpt>
      <trkpt lat="44.59887" lon="4.11012">
        <ele>751</ele>
        <time>2011-03-04T14:25:42Z</time>
      </trkpt>
      <trkpt lat="44.59877" lon="4.11009">
        <ele>746</ele>
        <time>2011-03-04T14:25:54Z</time>
      </trkpt>
      <trkpt lat="44.59867" lon="4.11009">
        <ele>744</ele>
        <time>2011-03-04T14:26:03Z</time>
      </trkpt>
      <trkpt lat="44.59859" lon="4.11015">
        <ele>743</ele>
        <time>2011-03-04T14:26:18Z</time>
      </trkpt>
      <trkpt lat="44.5985" lon="4.11026">
        <ele>742</ele>
        <time>2011-03-04T14:26:43Z</time>
      </trkpt>
      <trkpt lat="44.59842" lon="4.11033">
        <ele>742</ele>
        <time>2011-03-04T14:26:54Z</time>
      </trkpt>
      <trkpt lat="44.59837" lon="4.11045">
        <ele>741</ele>
        <time>2011-03-04T14:27:14Z</time>
      </trkpt>
      <trkpt lat="44.5984" lon="4.11059">
        <ele>738</ele>
        <time>2011-03-04T14:27:27Z</time>
      </trkpt>
      <trkpt lat="44.5983" lon="4.11065">
        <ele>734</ele>
        <time>2011-03-04T14:27:51Z</time>
      </trkpt>
      <trkpt lat="44.59819" lon="4.11066">
        <ele>733</ele>
        <time>2011-03-04T14:28:00Z</time>
      </trkpt>
      <trkpt lat="44.5981" lon="4.11065">
        <ele>734</ele>
        <time>2011-03-04T14:28:25Z</time>
      </trkpt>
      <trkpt lat="44.59801" lon="4.11072">
        <ele>734</ele>
        <time>2011-03-04T14:28:37Z</time>
      </trkpt>
      <trkpt lat="44.59793" lon="4.11084">
        <ele>734</ele>
        <time>2011-03-04T14:28:46Z</time>
      </trkpt>
      <trkpt lat="44.59788" lon="4.11098">
        <ele>734</ele>
        <time>2011-03-04T14:28:55Z</time>
      </trkpt>
      <trkpt lat="44.59784" lon="4.11112">
        <ele>734</ele>
        <time>2011-03-04T14:29:05Z</time>
      </trkpt>
      <trkpt lat="44.59781" lon="4.11127">
        <ele>733</ele>
        <time>2011-03-04T14:29:14Z</time>
      </trkpt>
      <trkpt lat="44.59776" lon="4.11142">
        <ele>731</ele>
        <time>2011-03-04T14:29:25Z</time>
      </trkpt>
      <trkpt lat="44.59772" lon="4.11153">
        <ele>729</ele>
        <time>2011-03-04T14:29:34Z</time>
      </trkpt>
      <trkpt lat="44.59769" lon="4.11168">
        <ele>729</ele>
        <time>2011-03-04T14:29:44Z</time>
      </trkpt>
      <trkpt lat="44.5976" lon="4.11171">
        <ele>723</ele>
        <time>2011-03-04T14:30:06Z</time>
      </trkpt>
      <trkpt lat="44.59752" lon="4.11169">
        <ele>719</ele>
        <time>2011-03-04T14:30:48Z</time>
      </trkpt>
      <trkpt lat="44.5974" lon="4.11169">
        <ele>715</ele>
        <time>2011-03-04T14:31:09Z</time>
      </trkpt>
      <trkpt lat="44.59731" lon="4.11163">
        <ele>712</ele>
        <time>2011-03-04T14:31:25Z</time>
      </trkpt>
      <trkpt lat="44.59722" lon="4.11157">
        <ele>712</ele>
        <time>2011-03-04T14:31:40Z</time>
      </trkpt>
      <trkpt lat="44.59712" lon="4.11156">
        <ele>707</ele>
        <time>2011-03-04T14:31:54Z</time>
      </trkpt>
      <trkpt lat="44.597" lon="4.1115">
        <ele>702</ele>
        <time>2011-03-04T14:32:08Z</time>
      </trkpt>
      <trkpt lat="44.5969" lon="4.11143">
        <ele>701</ele>
        <time>2011-03-04T14:32:18Z</time>
      </trkpt>
      <trkpt lat="44.59679" lon="4.1114">
        <ele>700</ele>
        <time>2011-03-04T14:32:28Z</time>
      </trkpt>
      <trkpt lat="44.5967" lon="4.11135">
        <ele>700</ele>
        <time>2011-03-04T14:32:38Z</time>
      </trkpt>
      <trkpt lat="44.5966" lon="4.11126">
        <ele>698</ele>
        <time>2011-03-04T14:32:47Z</time>
      </trkpt>
      <trkpt lat="44.5965" lon="4.11121">
        <ele>694</ele>
        <time>2011-03-04T14:32:58Z</time>
      </trkpt>
      <trkpt lat="44.5964" lon="4.1112">
        <ele>692</ele>
        <time>2011-03-04T14:33:08Z</time>
      </trkpt>
      <trkpt lat="44.59637" lon="4.11134">
        <ele>690</ele>
        <time>2011-03-04T14:33:29Z</time>
      </trkpt>
      <trkpt lat="44.59633" lon="4.11148">
        <ele>690</ele>
        <time>2011-03-04T14:33:38Z</time>
      </trkpt>
      <trkpt lat="44.5963" lon="4.11163">
        <ele>688</ele>
        <time>2011-03-04T14:33:48Z</time>
      </trkpt>
      <trkpt lat="44.59628" lon="4.11177">
        <ele>687</ele>
        <time>2011-03-04T14:33:57Z</time>
      </trkpt>
      <trkpt lat="44.59625" lon="4.11189">
        <ele>687</ele>
        <time>2011-03-04T14:34:08Z</time>
      </trkpt>
      <trkpt lat="44.59616" lon="4.11195">
        <ele>684</ele>
        <time>2011-03-04T14:34:21Z</time>
      </trkpt>
      <trkpt lat="44.59612" lon="4.11201">
        <ele>686</ele>
        <time>2011-03-04T14:34:39Z</time>
      </trkpt>
      <trkpt lat="44.59601" lon="4.11202">
        <ele>687</ele>
        <time>2011-03-04T14:34:46Z</time>
      </trkpt>
      <trkpt lat="44.59591" lon="4.11209">
        <ele>680</ele>
        <time>2011-03-04T14:34:58Z</time>
      </trkpt>
      <trkpt lat="44.59591" lon="4.11221">
        <ele>677</ele>
        <time>2011-03-04T14:35:40Z</time>
      </trkpt>
      <trkpt lat="44.59599" lon="4.11229">
        <ele>677</ele>
        <time>2011-03-04T14:35:56Z</time>
      </trkpt>
      <trkpt lat="44.59608" lon="4.1124">
        <ele>677</ele>
        <time>2011-03-04T14:36:08Z</time>
      </trkpt>
      <trkpt lat="44.59617" lon="4.11251">
        <ele>677</ele>
        <time>2011-03-04T14:36:20Z</time>
      </trkpt>
      <trkpt lat="44.59623" lon="4.11262">
        <ele>677</ele>
        <time>2011-03-04T14:36:33Z</time>
      </trkpt>
      <trkpt lat="44.59627" lon="4.11274">
        <ele>677</ele>
        <time>2011-03-04T14:36:44Z</time>
      </trkpt>
      <trkpt lat="44.59622" lon="4.11286">
        <ele>677</ele>
        <time>2011-03-04T14:36:55Z</time>
      </trkpt>
      <trkpt lat="44.59615" lon="4.11295">
        <ele>677</ele>
        <time>2011-03-04T14:37:40Z</time>
      </trkpt>
      <trkpt lat="44.59608" lon="4.11305">
        <ele>677</ele>
        <time>2011-03-04T14:37:53Z</time>
      </trkpt>
      <trkpt lat="44.596" lon="4.11319">
        <ele>678</ele>
        <time>2011-03-04T14:38:04Z</time>
      </trkpt>
      <trkpt lat="44.59595" lon="4.11329">
        <ele>679</ele>
        <time>2011-03-04T14:38:12Z</time>
      </trkpt>
      <trkpt lat="44.59586" lon="4.11341">
        <ele>680</ele>
        <time>2011-03-04T14:38:24Z</time>
      </trkpt>
      <trkpt lat="44.59579" lon="4.11352">
        <ele>680</ele>
        <time>2011-03-04T14:38:36Z</time>
      </trkpt>
      <trkpt lat="44.59573" lon="4.11362">
        <ele>680</ele>
        <time>2011-03-04T14:38:57Z</time>
      </trkpt>
      <trkpt lat="44.59567" lon="4.11377">
        <ele>680</ele>
        <time>2011-03-04T14:39:08Z</time>
      </trkpt>
      <trkpt lat="44.59563" lon="4.11392">
        <ele>680</ele>
        <time>2011-03-04T14:39:18Z</time>
      </trkpt>
      <trkpt lat="44.59563" lon="4.11409">
        <ele>681</ele>
        <time>2011-03-04T14:39:28Z</time>
      </trkpt>
      <trkpt lat="44.59558" lon="4.11423">
        <ele>681</ele>
        <time>2011-03-04T14:39:38Z</time>
      </trkpt>
      <trkpt lat="44.59553" lon="4.11433">
        <ele>681</ele>
        <time>2011-03-04T14:39:46Z</time>
      </trkpt>
      <trkpt lat="44.59546" lon="4.11448">
        <ele>681</ele>
        <time>2011-03-04T14:39:58Z</time>
      </trkpt>
      <trkpt lat="44.59539" lon="4.11462">
        <ele>680</ele>
        <time>2011-03-04T14:40:09Z</time>
      </trkpt>
      <trkpt lat="44.59535" lon="4.11474">
        <ele>679</ele>
        <time>2011-03-04T14:40:32Z</time>
      </trkpt>
      <trkpt lat="44.59534" lon="4.11487">
        <ele>679</ele>
        <time>2011-03-04T14:40:43Z</time>
      </trkpt>
      <trkpt lat="44.59537" lon="4.11503">
        <ele>679</ele>
        <time>2011-03-04T14:41:03Z</time>
      </trkpt>
      <trkpt lat="44.59533" lon="4.11502">
        <ele>679</ele>
        <time>2011-03-04T14:41:40Z</time>
      </trkpt>
      <trkpt lat="44.59533" lon="4.1151">
        <ele>685</ele>
        <time>2011-03-04T14:42:59Z</time>
      </trkpt>
      <trkpt lat="44.59532" lon="4.11504">
        <ele>682</ele>
        <time>2011-03-04T14:44:15Z</time>
      </trkpt>
      <trkpt lat="44.59535" lon="4.11508">
        <ele>676</ele>
        <time>2011-03-04T14:46:23Z</time>
      </trkpt>
      <trkpt lat="44.59536" lon="4.11526">
        <ele>676</ele>
        <time>2011-03-04T14:46:33Z</time>
      </trkpt>
      <trkpt lat="44.59536" lon="4.11539">
        <ele>676</ele>
        <time>2011-03-04T14:46:40Z</time>
      </trkpt>
      <trkpt lat="44.59537" lon="4.11552">
        <ele>676</ele>
        <time>2011-03-04T14:46:47Z</time>
      </trkpt>
      <trkpt lat="44.59535" lon="4.11565">
        <ele>676</ele>
        <time>2011-03-04T14:46:54Z</time>
      </trkpt>
      <trkpt lat="44.59525" lon="4.11576">
        <ele>675</ele>
        <time>2011-03-04T14:47:03Z</time>
      </trkpt>
      <trkpt lat="44.59514" lon="4.1158">
        <ele>673</ele>
        <time>2011-03-04T14:47:11Z</time>
      </trkpt>
      <trkpt lat="44.59505" lon="4.11582">
        <ele>673</ele>
        <time>2011-03-04T14:47:18Z</time>
      </trkpt>
      <trkpt lat="44.59493" lon="4.11586">
        <ele>672</ele>
        <time>2011-03-04T14:47:28Z</time>
      </trkpt>
      <trkpt lat="44.59483" lon="4.11591">
        <ele>670</ele>
        <time>2011-03-04T14:47:35Z</time>
      </trkpt>
      <trkpt lat="44.59471" lon="4.11595">
        <ele>669</ele>
        <time>2011-03-04T14:47:47Z</time>
      </trkpt>
      <trkpt lat="44.59462" lon="4.11601">
        <ele>668</ele>
        <time>2011-03-04T14:47:54Z</time>
      </trkpt>
      <trkpt lat="44.5945" lon="4.11607">
        <ele>667</ele>
        <time>2011-03-04T14:48:03Z</time>
      </trkpt>
      <trkpt lat="44.59439" lon="4.11612">
        <ele>665</ele>
        <time>2011-03-04T14:48:12Z</time>
      </trkpt>
      <trkpt lat="44.59429" lon="4.11618">
        <ele>665</ele>
        <time>2011-03-04T14:48:20Z</time>
      </trkpt>
      <trkpt lat="44.59417" lon="4.11618">
        <ele>663</ele>
        <time>2011-03-04T14:48:31Z</time>
      </trkpt>
      <trkpt lat="44.59406" lon="4.11618">
        <ele>661</ele>
        <time>2011-03-04T14:48:43Z</time>
      </trkpt>
      <trkpt lat="44.59396" lon="4.11622">
        <ele>658</ele>
        <time>2011-03-04T14:48:55Z</time>
      </trkpt>
      <trkpt lat="44.59385" lon="4.11627">
        <ele>657</ele>
        <time>2011-03-04T14:49:07Z</time>
      </trkpt>
      <trkpt lat="44.59376" lon="4.11632">
        <ele>657</ele>
        <time>2011-03-04T14:49:15Z</time>
      </trkpt>
      <trkpt lat="44.59368" lon="4.11638">
        <ele>657</ele>
        <time>2011-03-04T14:49:23Z</time>
      </trkpt>
      <trkpt lat="44.59356" lon="4.11646">
        <ele>657</ele>
        <time>2011-03-04T14:49:33Z</time>
      </trkpt>
      <trkpt lat="44.59344" lon="4.11652">
        <ele>656</ele>
        <time>2011-03-04T14:49:43Z</time>
      </trkpt>
      <trkpt lat="44.59332" lon="4.11658">
        <ele>656</ele>
        <time>2011-03-04T14:49:53Z</time>
      </trkpt>
      <trkpt lat="44.59324" lon="4.11664">
        <ele>656</ele>
        <time>2011-03-04T14:50:01Z</time>
      </trkpt>
      <trkpt lat="44.59313" lon="4.11673">
        <ele>655</ele>
        <time>2011-03-04T14:50:11Z</time>
      </trkpt>
      <trkpt lat="44.59304" lon="4.11681">
        <ele>655</ele>
        <time>2011-03-04T14:50:19Z</time>
      </trkpt>
      <trkpt lat="44.59296" lon="4.11688">
        <ele>655</ele>
        <time>2011-03-04T14:50:26Z</time>
      </trkpt>
      <trkpt lat="44.59288" lon="4.11695">
        <ele>654</ele>
        <time>2011-03-04T14:50:34Z</time>
      </trkpt>
      <trkpt lat="44.59278" lon="4.11703">
        <ele>654</ele>
        <time>2011-03-04T14:50:43Z</time>
      </trkpt>
      <trkpt lat="44.5927" lon="4.11711">
        <ele>654</ele>
        <time>2011-03-04T14:50:51Z</time>
      </trkpt>
      <trkpt lat="44.5926" lon="4.11722">
        <ele>654</ele>
        <time>2011-03-04T14:51:01Z</time>
      </trkpt>
      <trkpt lat="44.59253" lon="4.11732">
        <ele>654</ele>
        <time>2011-03-04T14:51:09Z</time>
      </trkpt>
      <trkpt lat="44.59245" lon="4.11739">
        <ele>652</ele>
        <time>2011-03-04T14:51:16Z</time>
      </trkpt>
      <trkpt lat="44.59235" lon="4.11733">
        <ele>650</ele>
        <time>2011-03-04T14:51:26Z</time>
      </trkpt>
      <trkpt lat="44.59239" lon="4.11721">
        <ele>647</ele>
        <time>2011-03-04T14:51:32Z</time>
      </trkpt>
      <trkpt lat="44.59246" lon="4.11706">
        <ele>645</ele>
        <time>2011-03-04T14:51:41Z</time>
      </trkpt>
      <trkpt lat="44.59252" lon="4.11695">
        <ele>644</ele>
        <time>2011-03-04T14:51:48Z</time>
      </trkpt>
      <trkpt lat="44.59258" lon="4.11681">
        <ele>642</ele>
        <time>2011-03-04T14:51:57Z</time>
      </trkpt>
      <trkpt lat="44.59264" lon="4.11666">
        <ele>641</ele>
        <time>2011-03-04T14:52:06Z</time>
      </trkpt>
      <trkpt lat="44.59269" lon="4.11649">
        <ele>640</ele>
        <time>2011-03-04T14:52:15Z</time>
      </trkpt>
      <trkpt lat="44.59271" lon="4.11634">
        <ele>640</ele>
        <time>2011-03-04T14:52:22Z</time>
      </trkpt>
      <trkpt lat="44.59277" lon="4.11619">
        <ele>640</ele>
        <time>2011-03-04T14:52:31Z</time>
      </trkpt>
      <trkpt lat="44.59286" lon="4.11604">
        <ele>640</ele>
        <time>2011-03-04T14:52:42Z</time>
      </trkpt>
      <trkpt lat="44.59295" lon="4.11596">
        <ele>640</ele>
        <time>2011-03-04T14:52:52Z</time>
      </trkpt>
      <trkpt lat="44.59306" lon="4.11587">
        <ele>640</ele>
        <time>2011-03-04T14:53:02Z</time>
      </trkpt>
      <trkpt lat="44.59315" lon="4.11579">
        <ele>640</ele>
        <time>2011-03-04T14:53:10Z</time>
      </trkpt>
      <trkpt lat="44.59322" lon="4.1157">
        <ele>640</ele>
        <time>2011-03-04T14:53:17Z</time>
      </trkpt>
      <trkpt lat="44.59328" lon="4.11556">
        <ele>640</ele>
        <time>2011-03-04T14:53:26Z</time>
      </trkpt>
      <trkpt lat="44.59335" lon="4.11541">
        <ele>640</ele>
        <time>2011-03-04T14:53:35Z</time>
      </trkpt>
      <trkpt lat="44.59338" lon="4.11525">
        <ele>638</ele>
        <time>2011-03-04T14:53:44Z</time>
      </trkpt>
      <trkpt lat="44.59341" lon="4.1151">
        <ele>636</ele>
        <time>2011-03-04T14:53:54Z</time>
      </trkpt>
      <trkpt lat="44.59341" lon="4.11497">
        <ele>635</ele>
        <time>2011-03-04T14:54:31Z</time>
      </trkpt>
      <trkpt lat="44.59341" lon="4.1148">
        <ele>635</ele>
        <time>2011-03-04T14:54:45Z</time>
      </trkpt>
      <trkpt lat="44.59339" lon="4.11466">
        <ele>635</ele>
        <time>2011-03-04T14:54:55Z</time>
      </trkpt>
      <trkpt lat="44.59335" lon="4.11455">
        <ele>634</ele>
        <time>2011-03-04T14:55:06Z</time>
      </trkpt>
      <trkpt lat="44.59331" lon="4.11466">
        <ele>634</ele>
        <time>2011-03-04T14:55:39Z</time>
      </trkpt>
      <trkpt lat="44.59335" lon="4.11474">
        <ele>631</ele>
        <time>2011-03-04T14:56:14Z</time>
      </trkpt>
      <trkpt lat="44.59341" lon="4.11487">
        <ele>631</ele>
        <time>2011-03-04T14:56:26Z</time>
      </trkpt>
      <trkpt lat="44.59344" lon="4.11502">
        <ele>631</ele>
        <time>2011-03-04T14:56:36Z</time>
      </trkpt>
      <trkpt lat="44.59341" lon="4.11516">
        <ele>631</ele>
        <time>2011-03-04T14:56:46Z</time>
      </trkpt>
      <trkpt lat="44.5934" lon="4.1153">
        <ele>631</ele>
        <time>2011-03-04T14:56:55Z</time>
      </trkpt>
      <trkpt lat="44.59337" lon="4.11545">
        <ele>631</ele>
        <time>2011-03-04T14:57:05Z</time>
      </trkpt>
      <trkpt lat="44.5933" lon="4.11559">
        <ele>631</ele>
        <time>2011-03-04T14:57:15Z</time>
      </trkpt>
      <trkpt lat="44.59323" lon="4.11573">
        <ele>631</ele>
        <time>2011-03-04T14:57:26Z</time>
      </trkpt>
      <trkpt lat="44.59314" lon="4.11585">
        <ele>631</ele>
        <time>2011-03-04T14:57:35Z</time>
      </trkpt>
      <trkpt lat="44.59303" lon="4.11593">
        <ele>631</ele>
        <time>2011-03-04T14:57:44Z</time>
      </trkpt>
      <trkpt lat="44.59293" lon="4.116">
        <ele>633</ele>
        <time>2011-03-04T14:57:53Z</time>
      </trkpt>
      <trkpt lat="44.59284" lon="4.11608">
        <ele>635</ele>
        <time>2011-03-04T14:58:07Z</time>
      </trkpt>
      <trkpt lat="44.59277" lon="4.11618">
        <ele>635</ele>
        <time>2011-03-04T14:58:15Z</time>
      </trkpt>
      <trkpt lat="44.59272" lon="4.11632">
        <ele>635</ele>
        <time>2011-03-04T14:58:25Z</time>
      </trkpt>
      <trkpt lat="44.59264" lon="4.11639">
        <ele>637</ele>
        <time>2011-03-04T14:58:44Z</time>
      </trkpt>
      <trkpt lat="44.59254" lon="4.1165">
        <ele>637</ele>
        <time>2011-03-04T14:58:53Z</time>
      </trkpt>
      <trkpt lat="44.59246" lon="4.11657">
        <ele>637</ele>
        <time>2011-03-04T14:59:01Z</time>
      </trkpt>
      <trkpt lat="44.59237" lon="4.11666">
        <ele>637</ele>
        <time>2011-03-04T14:59:11Z</time>
      </trkpt>
      <trkpt lat="44.5923" lon="4.11676">
        <ele>637</ele>
        <time>2011-03-04T14:59:19Z</time>
      </trkpt>
      <trkpt lat="44.59223" lon="4.11687">
        <ele>637</ele>
        <time>2011-03-04T14:59:29Z</time>
      </trkpt>
      <trkpt lat="44.59215" lon="4.117">
        <ele>637</ele>
        <time>2011-03-04T14:59:38Z</time>
      </trkpt>
      <trkpt lat="44.59209" lon="4.11712">
        <ele>637</ele>
        <time>2011-03-04T14:59:49Z</time>
      </trkpt>
      <trkpt lat="44.59205" lon="4.11728">
        <ele>637</ele>
        <time>2011-03-04T15:00:02Z</time>
      </trkpt>
      <trkpt lat="44.59203" lon="4.1174">
        <ele>636</ele>
        <time>2011-03-04T15:00:13Z</time>
      </trkpt>
      <trkpt lat="44.592" lon="4.11756">
        <ele>635</ele>
        <time>2011-03-04T15:00:22Z</time>
      </trkpt>
      <trkpt lat="44.592" lon="4.11773">
        <ele>634</ele>
        <time>2011-03-04T15:00:31Z</time>
      </trkpt>
      <trkpt lat="44.59198" lon="4.11789">
        <ele>634</ele>
        <time>2011-03-04T15:00:40Z</time>
      </trkpt>
      <trkpt lat="44.59193" lon="4.11799">
        <ele>632</ele>
        <time>2011-03-04T15:00:47Z</time>
      </trkpt>
      <trkpt lat="44.59185" lon="4.11813">
        <ele>628</ele>
        <time>2011-03-04T15:00:57Z</time>
      </trkpt>
      <trkpt lat="44.59185" lon="4.11812">
        <ele>630</ele>
        <time>2011-03-04T15:01:20Z</time>
      </trkpt>
      <trkpt lat="44.59181" lon="4.11799">
        <ele>630</ele>
        <time>2011-03-04T15:01:32Z</time>
      </trkpt>
      <trkpt lat="44.59175" lon="4.11785">
        <ele>630</ele>
        <time>2011-03-04T15:02:12Z</time>
      </trkpt>
      <trkpt lat="44.59172" lon="4.11773">
        <ele>628</ele>
        <time>2011-03-04T15:02:24Z</time>
      </trkpt>
      <trkpt lat="44.5917" lon="4.11759">
        <ele>625</ele>
        <time>2011-03-04T15:02:35Z</time>
      </trkpt>
      <trkpt lat="44.59165" lon="4.11748">
        <ele>623</ele>
        <time>2011-03-04T15:02:49Z</time>
      </trkpt>
      <trkpt lat="44.59161" lon="4.11737">
        <ele>620</ele>
        <time>2011-03-04T15:03:00Z</time>
      </trkpt>
      <trkpt lat="44.59156" lon="4.11722">
        <ele>619</ele>
        <time>2011-03-04T15:03:33Z</time>
      </trkpt>
      <trkpt lat="44.59151" lon="4.11709">
        <ele>619</ele>
        <time>2011-03-04T15:03:44Z</time>
      </trkpt>
      <trkpt lat="44.59148" lon="4.11697">
        <ele>616</ele>
        <time>2011-03-04T15:03:54Z</time>
      </trkpt>
      <trkpt lat="44.59146" lon="4.11684">
        <ele>613</ele>
        <time>2011-03-04T15:04:07Z</time>
      </trkpt>
      <trkpt lat="44.59143" lon="4.1167">
        <ele>611</ele>
        <time>2011-03-04T15:04:18Z</time>
      </trkpt>
      <trkpt lat="44.59142" lon="4.11656">
        <ele>605</ele>
        <time>2011-03-04T15:04:39Z</time>
      </trkpt>
      <trkpt lat="44.59143" lon="4.11639">
        <ele>604</ele>
        <time>2011-03-04T15:04:50Z</time>
      </trkpt>
      <trkpt lat="44.59139" lon="4.11624">
        <ele>604</ele>
        <time>2011-03-04T15:05:04Z</time>
      </trkpt>
      <trkpt lat="44.59132" lon="4.11628">
        <ele>604</ele>
        <time>2011-03-04T15:05:37Z</time>
      </trkpt>
      <trkpt lat="44.59121" lon="4.11633">
        <ele>602</ele>
        <time>2011-03-04T15:05:46Z</time>
      </trkpt>
      <trkpt lat="44.5911" lon="4.11632">
        <ele>600</ele>
        <time>2011-03-04T15:05:58Z</time>
      </trkpt>
      <trkpt lat="44.59098" lon="4.11632">
        <ele>598</ele>
        <time>2011-03-04T15:06:07Z</time>
      </trkpt>
      <trkpt lat="44.59089" lon="4.11633">
        <ele>596</ele>
        <time>2011-03-04T15:06:15Z</time>
      </trkpt>
      <trkpt lat="44.59079" lon="4.11638">
        <ele>593</ele>
        <time>2011-03-04T15:06:26Z</time>
      </trkpt>
      <trkpt lat="44.59071" lon="4.11632">
        <ele>589</ele>
        <time>2011-03-04T15:06:45Z</time>
      </trkpt>
      <trkpt lat="44.5907" lon="4.11616">
        <ele>589</ele>
        <time>2011-03-04T15:06:55Z</time>
      </trkpt>
      <trkpt lat="44.59069" lon="4.11599">
        <ele>589</ele>
        <time>2011-03-04T15:07:06Z</time>
      </trkpt>
      <trkpt lat="44.59069" lon="4.11585">
        <ele>589</ele>
        <time>2011-03-04T15:07:15Z</time>
      </trkpt>
      <trkpt lat="44.59071" lon="4.11569">
        <ele>589</ele>
        <time>2011-03-04T15:07:24Z</time>
      </trkpt>
      <trkpt lat="44.59068" lon="4.11556">
        <ele>589</ele>
        <time>2011-03-04T15:07:47Z</time>
      </trkpt>
      <trkpt lat="44.59069" lon="4.11543">
        <ele>589</ele>
        <time>2011-03-04T15:08:02Z</time>
      </trkpt>
      <trkpt lat="44.5907" lon="4.11547">
        <ele>589</ele>
        <time>2011-03-04T15:08:25Z</time>
      </trkpt>
      <trkpt lat="44.59069" lon="4.11561">
        <ele>589</ele>
        <time>2011-03-04T15:08:34Z</time>
      </trkpt>
      <trkpt lat="44.59072" lon="4.11572">
        <ele>589</ele>
        <time>2011-03-04T15:09:08Z</time>
      </trkpt>
      <trkpt lat="44.59073" lon="4.11588">
        <ele>591</ele>
        <time>2011-03-04T15:09:45Z</time>
      </trkpt>
      <trkpt lat="44.59074" lon="4.11605">
        <ele>591</ele>
        <time>2011-03-04T15:09:55Z</time>
      </trkpt>
      <trkpt lat="44.59073" lon="4.11622">
        <ele>591</ele>
        <time>2011-03-04T15:10:05Z</time>
      </trkpt>
      <trkpt lat="44.59072" lon="4.11637">
        <ele>591</ele>
        <time>2011-03-04T15:10:15Z</time>
      </trkpt>
      <trkpt lat="44.59072" lon="4.11657">
        <ele>591</ele>
        <time>2011-03-04T15:10:28Z</time>
      </trkpt>
      <trkpt lat="44.59071" lon="4.11674">
        <ele>591</ele>
        <time>2011-03-04T15:10:37Z</time>
      </trkpt>
      <trkpt lat="44.59069" lon="4.11688">
        <ele>591</ele>
        <time>2011-03-04T15:10:44Z</time>
      </trkpt>
      <trkpt lat="44.59069" lon="4.11704">
        <ele>590</ele>
        <time>2011-03-04T15:10:53Z</time>
      </trkpt>
      <trkpt lat="44.59069" lon="4.11718">
        <ele>587</ele>
        <time>2011-03-04T15:11:00Z</time>
      </trkpt>
      <trkpt lat="44.59066" lon="4.11733">
        <ele>586</ele>
        <time>2011-03-04T15:11:09Z</time>
      </trkpt>
      <trkpt lat="44.59063" lon="4.1175">
        <ele>585</ele>
        <time>2011-03-04T15:11:19Z</time>
      </trkpt>
      <trkpt lat="44.59063" lon="4.11768">
        <ele>585</ele>
        <time>2011-03-04T15:11:30Z</time>
      </trkpt>
      <trkpt lat="44.59061" lon="4.11785">
        <ele>585</ele>
        <time>2011-03-04T15:11:39Z</time>
      </trkpt>
      <trkpt lat="44.5906" lon="4.11798">
        <ele>585</ele>
        <time>2011-03-04T15:11:46Z</time>
      </trkpt>
      <trkpt lat="44.59055" lon="4.11813">
        <ele>585</ele>
        <time>2011-03-04T15:11:55Z</time>
      </trkpt>
      <trkpt lat="44.59052" lon="4.11829">
        <ele>585</ele>
        <time>2011-03-04T15:12:04Z</time>
      </trkpt>
      <trkpt lat="44.5905" lon="4.11843">
        <ele>585</ele>
        <time>2011-03-04T15:12:12Z</time>
      </trkpt>
      <trkpt lat="44.5905" lon="4.11859">
        <ele>585</ele>
        <time>2011-03-04T15:12:22Z</time>
      </trkpt>
      <trkpt lat="44.59048" lon="4.11876">
        <ele>584</ele>
        <time>2011-03-04T15:12:32Z</time>
      </trkpt>
      <trkpt lat="44.59045" lon="4.11891">
        <ele>581</ele>
        <time>2011-03-04T15:12:41Z</time>
      </trkpt>
      <trkpt lat="44.59044" lon="4.11907">
        <ele>578</ele>
        <time>2011-03-04T15:12:49Z</time>
      </trkpt>
      <trkpt lat="44.59043" lon="4.11921">
        <ele>578</ele>
        <time>2011-03-04T15:12:56Z</time>
      </trkpt>
      <trkpt lat="44.59042" lon="4.11939">
        <ele>578</ele>
        <time>2011-03-04T15:13:06Z</time>
      </trkpt>
      <trkpt lat="44.59039" lon="4.11958">
        <ele>578</ele>
        <time>2011-03-04T15:13:16Z</time>
      </trkpt>
      <trkpt lat="44.59037" lon="4.11977">
        <ele>578</ele>
        <time>2011-03-04T15:13:26Z</time>
      </trkpt>
      <trkpt lat="44.59034" lon="4.11993">
        <ele>578</ele>
        <time>2011-03-04T15:13:35Z</time>
      </trkpt>
      <trkpt lat="44.59034" lon="4.12006">
        <ele>577</ele>
        <time>2011-03-04T15:13:42Z</time>
      </trkpt>
      <trkpt lat="44.59027" lon="4.12021">
        <ele>576</ele>
        <time>2011-03-04T15:13:51Z</time>
      </trkpt>
      <trkpt lat="44.59019" lon="4.12037">
        <ele>574</ele>
        <time>2011-03-04T15:14:02Z</time>
      </trkpt>
      <trkpt lat="44.5901" lon="4.12048">
        <ele>574</ele>
        <time>2011-03-04T15:14:15Z</time>
      </trkpt>
      <trkpt lat="44.59" lon="4.12059">
        <ele>576</ele>
        <time>2011-03-04T15:14:25Z</time>
      </trkpt>
      <trkpt lat="44.58992" lon="4.12066">
        <ele>576</ele>
        <time>2011-03-04T15:14:33Z</time>
      </trkpt>
      <trkpt lat="44.58985" lon="4.12075">
        <ele>576</ele>
        <time>2011-03-04T15:14:40Z</time>
      </trkpt>
      <trkpt lat="44.58978" lon="4.12084">
        <ele>576</ele>
        <time>2011-03-04T15:14:47Z</time>
      </trkpt>
      <trkpt lat="44.58968" lon="4.12093">
        <ele>576</ele>
        <time>2011-03-04T15:14:56Z</time>
      </trkpt>
      <trkpt lat="44.58961" lon="4.12102">
        <ele>576</ele>
        <time>2011-03-04T15:15:04Z</time>
      </trkpt>
      <trkpt lat="44.58953" lon="4.12111">
        <ele>576</ele>
        <time>2011-03-04T15:15:12Z</time>
      </trkpt>
      <trkpt lat="44.58944" lon="4.12124">
        <ele>573</ele>
        <time>2011-03-04T15:15:23Z</time>
      </trkpt>
      <trkpt lat="44.58937" lon="4.12141">
        <ele>573</ele>
        <time>2011-03-04T15:15:38Z</time>
      </trkpt>
      <trkpt lat="44.58928" lon="4.12157">
        <ele>573</ele>
        <time>2011-03-04T15:15:50Z</time>
      </trkpt>
      <trkpt lat="44.58923" lon="4.12168">
        <ele>573</ele>
        <time>2011-03-04T15:15:57Z</time>
      </trkpt>
      <trkpt lat="44.58918" lon="4.12181">
        <ele>570</ele>
        <time>2011-03-04T15:16:04Z</time>
      </trkpt>
      <trkpt lat="44.58912" lon="4.12198">
        <ele>569</ele>
        <time>2011-03-04T15:16:14Z</time>
      </trkpt>
      <trkpt lat="44.58907" lon="4.12214">
        <ele>567</ele>
        <time>2011-03-04T15:16:24Z</time>
      </trkpt>
      <trkpt lat="44.58905" lon="4.12231">
        <ele>566</ele>
        <time>2011-03-04T15:16:34Z</time>
      </trkpt>
      <trkpt lat="44.58902" lon="4.12249">
        <ele>566</ele>
        <time>2011-03-04T15:16:43Z</time>
      </trkpt>
      <trkpt lat="44.58899" lon="4.12264">
        <ele>566</ele>
        <time>2011-03-04T15:16:52Z</time>
      </trkpt>
      <trkpt lat="44.58896" lon="4.12277">
        <ele>566</ele>
        <time>2011-03-04T15:16:59Z</time>
      </trkpt>
      <trkpt lat="44.58892" lon="4.12293">
        <ele>566</ele>
        <time>2011-03-04T15:17:08Z</time>
      </trkpt>
      <trkpt lat="44.58888" lon="4.12309">
        <ele>566</ele>
        <time>2011-03-04T15:17:18Z</time>
      </trkpt>
      <trkpt lat="44.58885" lon="4.12326">
        <ele>566</ele>
        <time>2011-03-04T15:17:27Z</time>
      </trkpt>
      <trkpt lat="44.58881" lon="4.12342">
        <ele>566</ele>
        <time>2011-03-04T15:17:37Z</time>
      </trkpt>
      <trkpt lat="44.58877" lon="4.12357">
        <ele>566</ele>
        <time>2011-03-04T15:17:46Z</time>
      </trkpt>
      <trkpt lat="44.58872" lon="4.12373">
        <ele>566</ele>
        <time>2011-03-04T15:17:56Z</time>
      </trkpt>
      <trkpt lat="44.58869" lon="4.12389">
        <ele>566</ele>
        <time>2011-03-04T15:18:06Z</time>
      </trkpt>
      <trkpt lat="44.58863" lon="4.12402">
        <ele>566</ele>
        <time>2011-03-04T15:18:14Z</time>
      </trkpt>
      <trkpt lat="44.58862" lon="4.12414">
        <ele>565</ele>
        <time>2011-03-04T15:18:23Z</time>
      </trkpt>
      <trkpt lat="44.58857" lon="4.12429">
        <ele>565</ele>
        <time>2011-03-04T15:18:32Z</time>
      </trkpt>
      <trkpt lat="44.58855" lon="4.12444">
        <ele>565</ele>
        <time>2011-03-04T15:18:42Z</time>
      </trkpt>
      <trkpt lat="44.58852" lon="4.1246">
        <ele>565</ele>
        <time>2011-03-04T15:18:51Z</time>
      </trkpt>
      <trkpt lat="44.58847" lon="4.12472">
        <ele>565</ele>
        <time>2011-03-04T15:18:58Z</time>
      </trkpt>
      <trkpt lat="44.58843" lon="4.12488">
        <ele>564</ele>
        <time>2011-03-04T15:19:08Z</time>
      </trkpt>
      <trkpt lat="44.58838" lon="4.125">
        <ele>562</ele>
        <time>2011-03-04T15:19:19Z</time>
      </trkpt>
      <trkpt lat="44.58836" lon="4.12514">
        <ele>562</ele>
        <time>2011-03-04T15:19:28Z</time>
      </trkpt>
      <trkpt lat="44.58833" lon="4.1253">
        <ele>562</ele>
        <time>2011-03-04T15:19:37Z</time>
      </trkpt>
      <trkpt lat="44.58828" lon="4.12544">
        <ele>562</ele>
        <time>2011-03-04T15:19:47Z</time>
      </trkpt>
      <trkpt lat="44.58823" lon="4.12556">
        <ele>562</ele>
        <time>2011-03-04T15:19:55Z</time>
      </trkpt>
      <trkpt lat="44.58816" lon="4.12566">
        <ele>562</ele>
        <time>2011-03-04T15:20:02Z</time>
      </trkpt>
      <trkpt lat="44.58809" lon="4.12578">
        <ele>561</ele>
        <time>2011-03-04T15:20:10Z</time>
      </trkpt>
      <trkpt lat="44.58803" lon="4.12589">
        <ele>561</ele>
        <time>2011-03-04T15:20:18Z</time>
      </trkpt>
      <trkpt lat="44.58796" lon="4.12599">
        <ele>560</ele>
        <time>2011-03-04T15:20:25Z</time>
      </trkpt>
      <trkpt lat="44.58789" lon="4.12611">
        <ele>560</ele>
        <time>2011-03-04T15:20:37Z</time>
      </trkpt>
      <trkpt lat="44.5878" lon="4.12623">
        <ele>571</ele>
        <time>2011-03-04T15:20:54Z</time>
      </trkpt>
      <trkpt lat="44.58773" lon="4.12638">
        <ele>576</ele>
        <time>2011-03-04T15:21:05Z</time>
      </trkpt>
      <trkpt lat="44.58765" lon="4.12653">
        <ele>574</ele>
        <time>2011-03-04T15:21:16Z</time>
      </trkpt>
      <trkpt lat="44.58761" lon="4.12664">
        <ele>574</ele>
        <time>2011-03-04T15:21:23Z</time>
      </trkpt>
      <trkpt lat="44.58757" lon="4.12679">
        <ele>569</ele>
        <time>2011-03-04T15:21:32Z</time>
      </trkpt>
      <trkpt lat="44.58754" lon="4.12693">
        <ele>564</ele>
        <time>2011-03-04T15:21:41Z</time>
      </trkpt>
      <trkpt lat="44.58751" lon="4.12709">
        <ele>564</ele>
        <time>2011-03-04T15:21:50Z</time>
      </trkpt>
      <trkpt lat="44.58751" lon="4.12724">
        <ele>564</ele>
        <time>2011-03-04T15:21:59Z</time>
      </trkpt>
      <trkpt lat="44.58747" lon="4.12738">
        <ele>564</ele>
        <time>2011-03-04T15:22:08Z</time>
      </trkpt>
      <trkpt lat="44.58745" lon="4.12752">
        <ele>564</ele>
        <time>2011-03-04T15:22:17Z</time>
      </trkpt>
      <trkpt lat="44.58741" lon="4.12767">
        <ele>564</ele>
        <time>2011-03-04T15:22:27Z</time>
      </trkpt>
      <trkpt lat="44.5874" lon="4.12783">
        <ele>564</ele>
        <time>2011-03-04T15:22:37Z</time>
      </trkpt>
      <trkpt lat="44.58738" lon="4.12797">
        <ele>564</ele>
        <time>2011-03-04T15:22:47Z</time>
      </trkpt>
      <trkpt lat="44.58734" lon="4.12814">
        <ele>561</ele>
        <time>2011-03-04T15:22:57Z</time>
      </trkpt>
      <trkpt lat="44.58734" lon="4.1283">
        <ele>561</ele>
        <time>2011-03-04T15:23:06Z</time>
      </trkpt>
      <trkpt lat="44.58734" lon="4.12846">
        <ele>561</ele>
        <time>2011-03-04T15:23:15Z</time>
      </trkpt>
      <trkpt lat="44.58735" lon="4.12861">
        <ele>561</ele>
        <time>2011-03-04T15:23:24Z</time>
      </trkpt>
      <trkpt lat="44.58735" lon="4.12876">
        <ele>561</ele>
        <time>2011-03-04T15:23:33Z</time>
      </trkpt>
      <trkpt lat="44.58736" lon="4.12891">
        <ele>561</ele>
        <time>2011-03-04T15:23:43Z</time>
      </trkpt>
      <trkpt lat="44.58735" lon="4.12907">
        <ele>561</ele>
        <time>2011-03-04T15:23:54Z</time>
      </trkpt>
      <trkpt lat="44.58731" lon="4.12922">
        <ele>561</ele>
        <time>2011-03-04T15:24:03Z</time>
      </trkpt>
      <trkpt lat="44.58728" lon="4.12937">
        <ele>560</ele>
        <time>2011-03-04T15:24:12Z</time>
      </trkpt>
      <trkpt lat="44.58726" lon="4.12953">
        <ele>557</ele>
        <time>2011-03-04T15:24:21Z</time>
      </trkpt>
      <trkpt lat="44.58726" lon="4.12969">
        <ele>556</ele>
        <time>2011-03-04T15:24:30Z</time>
      </trkpt>
      <trkpt lat="44.58728" lon="4.12984">
        <ele>555</ele>
        <time>2011-03-04T15:24:39Z</time>
      </trkpt>
      <trkpt lat="44.58735" lon="4.12998">
        <ele>554</ele>
        <time>2011-03-04T15:24:49Z</time>
      </trkpt>
      <trkpt lat="44.58742" lon="4.13005">
        <ele>553</ele>
        <time>2011-03-04T15:24:56Z</time>
      </trkpt>
      <trkpt lat="44.58743" lon="4.13008">
        <ele>550</ele>
        <time>2011-03-04T15:25:09Z</time>
      </trkpt>
    </trkseg>
  </trk>
</gpx>